[[{"header":{"parameterUnit":"m.s-1","parameterCategory":1,"la1":30.6,"la2":29.2853,"lo1":-89.7004,"lo2":-87.6739,"dy":0.0162,"dx":0.0183,"nx":112,"ny":82,"refTime":"2023-06-30T00:00:00:Z","depth":0,"parameterNumber":2,"parameterNumberName":"U-component_of_WINDS"},"data":[0.0,0.0,0.0,0.0,0.0,0.0,0.0,0.0,0.0,0.0,0.0,0.0,0.0,0.0,0.0,0.0,0.0,0.0,0.0,0.0,0.0,0.0,0.0,0.0,0.0,0.0,0.0,0.0,0.0,0.0,0.0,0.0,0.0,0.0,0.0,0.0,0.0,0.0,0.0,0.0,0.0,0.0,0.0,0.0,0.0,0.0,0.0,0.0,0.0,0.0,0.0,0.0,0.0,0.0,0.0,0.0,0.0,0.0,0.0,0.0,0.0,0.0,0.0,0.0,0.0,0.0,0.0,0.0,0.0,0.0,0.0,0.0,0.0,0.0,0.0,0.0,0.0,0.0,0.0,0.0,0.0,0.0,0.0,0.0,0.0,0.0,0.0,0.0,0.0,0.0,0.568,0.2472,-0.0875,-0.3405,-0.4678,-0.521,-0.4372,-0.178,0.0,0.0,0.0,0.0,0.0,0.0,0.0,0.0,0.0,0.0,0.0,0.0,0.0,0.0,0.0,0.0,0.0,0.0,0.0,0.0,0.0,0.0,0.0,0.0,0.0,0.0,0.0,0.0,0.0,0.0,0.0,0.0,0.0,0.0,0.0,0.0,0.0,0.0,0.0,0.0,0.0,0.0,0.0,0.0,0.0,0.0,0.0,0.0,0.0,0.0,0.0,0.0,0.0,0.0,0.0,0.0,0.0,0.0,0.0,0.0,0.0,0.0,0.0,0.0,0.0,0.0,0.0,0.0,0.0,0.0,0.0,0.0,0.0,0.0,0.0,0.0,0.0,0.0,0.0,0.0,0.0,0.0,0.0,0.0,0.0,0.0,0.0,0.0,0.0,0.0,0.0,0.0,0.0,0.0,0.0,0.0,0.0,0.0,0.0,0.0,0.0,0.0,0.0,0.0,0.3502,-0.0871,-0.2766,-0.3991,-0.4656,-0.5399,-0.464,-0.1855,0.0,0.0,0.0,0.0,0.0,0.0,0.0,0.0,0.0,0.0,0.0,0.0,0.0,0.0,0.0,0.0,0.0,0.0,0.0,0.0,0.0,0.0,0.0,0.0,0.0,0.0,0.0,0.0,0.0,0.0,0.0,0.0,0.0,0.0,0.0,0.0,0.0,0.0,0.0,0.0,0.0,0.0,0.0,0.0,0.0,0.0,0.0,0.0,0.0,0.0,0.0,0.0,0.0,0.0,0.0,0.0,0.0,0.0,0.0,0.0,0.0,0.0,0.0,0.0,0.0,0.0,0.0,0.0,0.0,0.0,0.0,0.0,0.0,0.0,0.0,0.0,0.0,0.0,0.0,0.0,0.0,0.0,0.0,0.0,0.0,0.0,0.0,0.0,0.0,0.0,0.0,0.0,0.0,0.0,0.0,0.0,0.0,0.0,0.0,0.0,0.0,0.0,0.0,0.0523,-0.1318,-0.1432,-0.2662,-0.3737,-0.442,-0.5022,-0.4532,-0.2581,-0.1072,0.0,0.0,0.0,0.0,0.0,0.0,0.0,0.0,0.0,0.0,0.0,0.0,0.0,0.0,0.0,0.0,0.0,0.0,0.0,0.0,0.0,0.0,0.0,0.0,0.0,0.0,0.0,0.0,0.0,0.0,0.0,0.0,0.0,0.0,0.0,0.0,0.0,0.0,0.0,0.0,0.0,0.0,0.0,0.0,0.0,0.0,0.0,0.0,0.0,0.0,0.0,0.0,0.0,0.0,0.0,0.0,0.0,0.0,0.0,0.0,0.0,0.0,0.0,0.0,0.0,0.0,0.0,0.0,0.0,0.0,0.0,0.0,0.0,0.0,0.0,0.0,0.0,0.0,0.0,0.0,0.0,0.0,0.0,0.0,0.0,0.0,0.0,0.0,0.0,0.0,0.0,0.0,0.0,0.0,0.0,0.0,0.0,0.0,0.0,0.0,0.0,0.0,-0.3798,-0.3813,-0.0988,-0.1747,-0.2975,-0.4231,-0.45,-0.4172,-0.3163,-0.1492,0.0,0.0,0.0,0.0,0.0,0.0,0.0,0.0,0.0,0.0,0.0,0.0,0.0,0.0,0.0,0.0,0.0,0.0,0.0,0.0,0.0,0.0,0.0,0.0,0.0,0.0,0.0,0.0,0.0,0.0,0.0,0.0,0.0,0.0,0.0,0.0,0.0,0.0,0.0,0.0,0.0,0.0,0.0,0.0,0.0,0.0,0.0,0.0,0.0,0.0,0.0,0.0,0.0,0.0,0.0,0.0,0.0,0.0,0.0,0.0,0.0,0.0,0.0,0.0,0.0,0.0,0.0,0.0,0.0,0.0,0.0,0.0,0.0,0.0,0.0,0.0,0.0,0.0,0.0,0.0,0.0,0.0,0.0,0.0,0.0,0.0,0.0,0.0,0.0,0.0,0.0,0.0,0.0,0.0,0.0,0.0,0.0,0.0,0.0,0.0,0.0,0.0,-0.3099,-0.035,-0.0088,-0.0375,-0.165,-0.4256,-0.4001,-0.3514,-0.3134,-0.1011,0.0,0.0,0.0,0.0,0.0,0.0,0.0,0.0,0.0,0.0,0.0,0.0,0.0,0.0,0.0,0.0,0.0,0.0,0.0,0.0,0.0,0.0,0.0,0.0,0.0,0.0,0.0,0.0,0.0,0.0,0.0,0.0,0.0,0.0,0.0,0.0,0.0,0.0,0.0,0.0,0.0,0.0,0.0,0.0,0.0,0.0,0.0,0.0,0.0,0.0,0.0,0.0,0.0,0.0,0.0,0.0,0.0,0.0,0.0,0.0,0.0,0.0,0.0,0.0,0.0,0.0,0.0,0.0,0.0,0.0,0.0,0.0,0.0,0.0,0.0,0.0,0.0,0.0,0.0,0.0,0.0,0.0,0.0,0.0,0.0,0.0,0.0,0.0,0.0,0.0,0.0,0.0,0.0,0.0,0.0,0.0,0.0,0.0,0.0,0.0,0.0,0.0,-0.4235,-0.547,-0.0523,-0.0092,-0.0566,-0.1603,-0.3441,-0.3974,-0.2692,0.0,0.0,0.0,0.0,0.0,0.0,0.0,0.0,0.0,0.0,0.0,0.0,0.0,0.0,0.0,0.0,0.0,0.0,0.0,0.0,0.0,0.0,0.0,0.0,0.0,0.0,0.0,0.0,0.0,0.0,0.0,0.0,0.0,0.0,0.0,0.0,0.0,0.0,0.0,0.0,0.0,0.0,0.0,0.0,0.0,0.0,0.0,0.0,0.0,0.0,0.0,0.0,0.0,0.0,0.0,0.0,0.0,0.0,0.0,0.0,0.0,0.0,0.0,0.0,0.0,0.0,0.0,0.0,0.0,0.0,0.0,0.0,0.0,0.0,0.0,0.0,0.0,0.0,0.0,0.0,0.0,0.0,0.0,0.0,0.0,0.0,0.0,0.0,0.0,0.0,0.0,0.0,0.0,0.0,0.0,0.0,0.0,0.0,0.0,0.0,0.0,0.0,0.446,-0.2792,-0.5979,-0.0579,-0.0,0.0,0.0,-0.2142,-0.3122,-0.2289,0.0,0.0,0.0,0.0,0.0,0.0,0.0,0.0,0.0,0.0,0.0,0.0,0.0,0.0,0.0,0.0,0.0,0.0,0.0,0.0,0.0,0.0,0.0,0.0,0.0,0.0,0.0,0.0,0.0,0.0,0.0,0.0,0.0,0.0,0.0,0.0,0.0,0.0,0.0,0.0,0.0,0.0,0.0,0.0,0.0,0.0,0.0,0.0,0.0,0.0,0.0,0.0,0.0,0.0,0.0,0.0,0.0,0.0,0.0,0.0,0.0,0.0,0.0,0.0,0.0,0.0,0.0,0.0,0.0,0.0,0.0,0.0,0.0,0.0,0.0,0.0,0.0,0.0,0.0,0.0,0.0,0.0,0.0,0.0,0.0,0.0,0.0,0.0,0.0,0.0,0.0,0.0,0.0,0.0,0.0,0.0,0.0,0.0,0.0,0.0,0.0,0.0,0.476,0.1861,0.0,0.0,0.0,0.0,0.0,0.0,-0.0606,0.0,0.0,0.0,0.0,0.0,0.0,0.0,0.0,0.0,0.0,0.0,0.0,0.0,0.0,0.0,0.0,0.0,0.0,0.0,0.0,0.0,0.0,0.0,0.0,0.0,0.0,0.0,0.0,0.0,0.0,0.0,0.0,0.0,0.0,0.0,0.0,0.0,0.0,0.0,0.0,0.0,0.0,0.0,0.0,0.0,0.0,0.0,0.0,0.0,0.0,0.0,0.0,0.0,0.0,0.0,0.0,0.0,0.0,0.0,0.0,0.0,0.0,0.0,0.0,0.0,0.0,0.0,0.0,0.0,0.0,0.0,0.0,0.0,0.0,0.0,0.0,0.0,0.0,0.0,0.0,0.0,0.0,0.0,0.0,0.0,0.0,0.0,0.0,0.0,0.0,0.0,0.0,0.0,0.0,0.0,0.0,0.0,0.0,0.0,0.0,0.0,0.0,0.0,0.4788,0.1839,0.0,0.0,0.0,0.0,0.0,0.0,-0.1007,-0.3355,0.0,0.0,0.0,0.0,0.0,0.0,0.0,0.0,0.0,0.0,0.0,0.0,0.0,0.0,0.0,0.0,0.0,0.0,0.0,0.0,0.0,0.0,0.0,0.0,0.0,0.0,0.0,0.0,0.0,0.0,0.0,0.0,0.0,0.0,0.0,0.0,0.0,0.0,0.0,0.0,0.0,0.0,0.0,0.0,0.0,0.0,0.0,0.0,0.0,0.0,0.0,0.0,0.0,0.0,0.0,0.0,0.0,0.0,0.0,0.0,0.0,0.0,0.0,0.0,0.0,0.0,0.0,0.0,0.0,0.0,0.0,0.0,0.0,0.0,0.0,0.0,0.0,0.0,0.0,0.0,0.0,0.0,0.0,0.0,0.0,0.0,0.0,0.0,0.0,0.0,0.0,0.0,0.0,0.0,0.0,0.0,0.0,0.0,0.0,0.0,0.0,0.0,0.5105,0.2073,0.0,0.0,0.0,0.0,0.0,0.0,-0.0709,-0.2355,0.0,0.0,0.0,0.0,0.0,0.0,0.0,0.0,0.0,0.0,0.0,0.0,0.0,0.0,0.0,0.0,0.0,0.0,0.0,0.0,0.0,0.0,0.0,0.0,0.0,0.0,0.0,0.0,0.0,0.0,0.0,0.0,0.0,0.0,0.0,0.0,0.0,0.0,0.0,0.0,0.0,0.0,0.0,0.0,0.0,0.0,0.0,0.0,0.0,0.0,0.0,0.0,0.0,0.0,0.0,0.0,0.0,0.0,0.0,0.0,0.0,0.0,0.0,0.0,0.0,0.0,0.0,0.0,0.0,0.0,0.0,0.0,0.0,0.0,0.0,0.0,0.0,0.0,0.0,0.0,0.0,0.0,0.0,0.0,0.0,0.0,0.0,0.0,0.0,0.0,0.0,0.0,0.0,0.0,0.0,0.0,0.0,0.0,0.0,0.0,0.0,0.0,0.5426,0.2366,0.0,0.0,0.0,0.0,0.0,0.0,0.0,0.0,0.0,0.0,0.0,0.0,0.0,0.0,0.0,0.0,0.0,0.0,0.0,0.0,0.0,0.0,0.0,0.0,0.0,0.0,0.0,0.0,0.0,0.0,0.0,0.0,0.0,0.0,0.0,0.0,0.0,0.0,0.0,0.0,0.0,0.0,0.0,0.0,0.0,0.0,0.0,0.0,0.0,0.0,0.0,0.0,0.0,0.0,0.0,0.0,0.0,0.0,0.0,0.0,0.0,0.0,0.0,0.0,0.0,0.0,0.0,0.0,-1.0477,-1.0578,0.0,0.0,0.0,0.0,0.0,0.0,0.0,0.0,0.0,0.0,0.0,0.0,0.0,0.0,0.0,0.0,0.0,0.0,0.0,0.0,0.0,0.0,0.0,0.0,0.0,0.0,0.0,0.0,0.0,0.0,0.0,0.0,0.0,0.0,0.0,0.0,0.0,0.0,0.0,0.0,0.423,0.1759,0.0,0.0,0.0,0.0,0.0,0.0,0.0,0.0,-0.1131,0.0,0.0,0.0,0.0,0.0,0.0,0.0,0.0,0.0,0.0,0.0,0.0,0.0,0.0,0.0,0.0,0.0,0.0,0.0,0.0,0.0,0.0,0.0,0.0,0.0,0.0,0.0,0.0,0.0,0.0,0.0,0.0,0.0,0.0,0.0,0.0,0.0,0.0,0.0,0.0,0.0,0.0,0.0,0.0,0.0,0.0,0.0,0.0,0.0,0.0,0.0,0.0,0.0,0.0,0.0,0.0,0.0,0.0,0.0,-1.2491,-1.1938,0.0,0.0,0.0,0.0,0.0,0.0,0.0,0.0,0.0,0.0,0.0,0.0,0.0,0.0,0.0,0.0,0.0,0.0,0.0,0.0,0.0,0.0,0.0,0.0,0.0,0.0,0.0,0.0,0.0,0.0,0.0,0.0,0.0,0.0,0.0,0.0,0.0,0.0,0.0,0.0,0.3987,0.166,0.0,0.0,0.0,0.0,0.0,0.0,0.0,0.0,0.0,0.0,0.0,0.0,0.0,0.0,0.0,0.0,0.0,0.0,0.0,0.0,0.0,0.0,0.0,0.0,0.0,0.0,0.0,0.0,0.0,0.0,0.0,0.0,0.0,0.0,0.0,0.0,0.0,0.0,0.0,0.0,0.0,0.0,0.0,0.0,0.0,0.0,0.0,0.0,0.0,0.0,0.0,0.0,0.0,0.0,0.0,0.0,0.0,0.0,0.0,0.0,0.0,0.0,-1.4176,-1.4194,-1.4367,-1.4225,-1.4104,-1.4023,-1.4704,-1.3622,-1.1472,-1.2935,0.0,0.0,0.0,0.0,0.0,0.0,0.0,0.0,0.0,0.0,0.0,0.0,0.0,0.0,0.0,0.0,0.0,0.0,0.0,0.0,0.0,0.0,-0.7724,-0.7514,-0.8146,-0.8318,-0.6651,0.0,0.0,0.0,0.0,0.0,0.0,0.0,0.0,0.0,0.0,0.0,0.4415,0.1872,0.0,0.0,0.0,0.0,0.0,0.0,0.0,0.0,0.0,0.0,0.0,0.0,0.0,0.0,0.0,0.0,0.0,0.0,0.0,0.0,0.0,0.0,0.0,0.0,0.0,0.0,0.0,0.0,0.0,0.0,0.0,0.0,0.0,0.0,0.0,0.0,0.0,0.0,0.0,0.0,0.0,0.0,-0.9374,-1.0759,0.0,0.0,0.0,0.0,0.0,0.0,0.0,0.0,0.0,0.0,0.0,0.0,0.0,-1.4555,-1.5174,-1.5417,-1.5797,-1.6302,-1.5673,-1.5369,-1.539,-1.4741,-1.4093,-1.3546,-1.456,0.0,-1.2356,-1.1622,0.0,0.0,0.0,0.0,0.0,0.0,0.0,0.0,0.0,0.0,0.0,0.0,0.0,0.0,0.0,0.0,0.0,0.0,0.0,0.0,0.0,0.0,-0.737,-0.7679,-0.7591,-0.7437,-0.7393,-0.8196,-0.8631,-0.7636,-0.5694,-0.4085,0.0,0.0,0.0,0.0,0.0,0.0,0.5546,0.2393,0.0,0.0,0.0,0.0,0.0,0.0,0.0,0.0,0.0,0.0,0.0,-0.0586,0.0,0.0,0.0,0.0,0.0,0.0,0.0,0.0,0.0,0.0,0.0,0.0,0.0,0.0,0.0,0.0,0.0,0.0,0.0,0.0,0.0,0.0,0.0,0.0,0.0,0.0,0.0,0.0,0.0,-0.9904,-1.0913,-1.2806,-1.3195,-1.3635,0.0,0.0,0.0,0.0,0.0,0.0,0.0,0.0,0.0,-1.3377,-1.471,-1.5503,-1.5651,-1.5733,-1.5867,-1.6069,-1.5325,-1.4986,-1.4969,-1.4225,-1.3718,-1.3396,-1.3457,-1.3074,-1.2461,-1.3003,-1.2971,-1.2651,0.0,0.0,0.0,0.0,-1.1019,-1.0961,-1.1026,-1.0837,-1.0715,-1.1452,0.0,0.0,0.0,0.0,0.0,0.0,0.0,-0.8781,-0.9599,-0.9097,-0.8218,-0.7611,-0.7449,-0.7454,-0.7575,-0.8091,-0.858,-0.8685,-0.8663,-0.8333,-0.7456,-0.5814,0.0,0.0,0.0,0.1494,0.4246,0.1907,0.0,0.0,0.0,0.0,0.0,0.0,0.0,0.0,0.0,0.0,0.0,0.0,-0.071,0.0,0.0,0.0,0.0,0.0,0.0,0.0,0.0,0.0,0.0,0.0,0.0,0.0,0.0,0.0,0.0,0.0,0.0,0.0,0.0,0.0,0.0,0.0,0.0,0.0,0.0,0.0,0.0,-1.0784,-1.2044,-1.4269,-1.4446,-1.4675,0.0,0.0,0.0,0.0,0.0,0.0,-1.4263,-1.5003,-1.5228,-1.4783,-1.5688,-1.6085,-1.5866,-1.6069,-1.6153,-1.6153,-1.5612,-1.5339,-1.5305,-1.458,-1.4243,-1.4192,-1.3261,-1.2973,-1.3193,-1.3998,-1.3606,-1.2546,-1.2778,-1.2665,-1.2228,-1.1709,-1.1559,-1.1649,-1.1678,-1.1805,-1.2004,-1.2196,-1.2316,-1.2269,-1.1643,0.0,0.0,0.0,0.0,-0.9181,-0.9387,-0.9154,-0.8603,-0.7556,-0.75,-0.7723,-0.7899,-0.8049,-0.8375,-0.9107,-1.0309,-1.0937,-1.0046,-0.9384,0.0,-0.6298,-0.3905,-0.1425,0.1124,-0.0072,-0.0863,-0.0085,0.0,0.0,0.0,0.0,0.0,0.0,0.0,0.0,0.0,0.0,0.0,0.0,0.0,0.0,0.0,0.0,0.0,0.0,0.0,0.0,0.0,0.0,0.0,0.0,0.0,0.0,0.0,0.0,0.0,0.0,0.0,0.0,0.0,0.0,0.0,0.0,0.0,0.0,0.0,0.0,0.0,-1.4119,-1.358,0.0,0.0,0.0,0.0,-1.573,-1.5836,-1.6203,-1.6955,-1.7043,-1.6616,-1.5581,-1.6258,-1.6669,-1.6648,-1.7337,-1.7693,-1.7693,-1.7659,-1.7642,-1.7625,-1.6864,-1.6529,-1.6462,-1.502,-1.48,-1.5274,-1.3261,-1.2396,-1.2479,-1.4121,-1.4739,-1.4688,-1.4401,-1.3922,-1.3205,-1.2023,-1.1035,-1.0437,-1.1059,-1.1534,-1.1951,-1.2525,-1.1468,0.0,0.0,-1.081,-0.8271,-0.9903,-0.9019,-0.7679,-0.7605,-0.7739,-0.8049,-0.8694,-0.8845,-0.868,-0.8108,-0.8171,-0.8348,-0.8473,0.0,-0.929,-0.8788,-0.6213,-0.4286,-0.4113,-0.42,-0.318,-0.0304,0.0,0.0,0.0,0.0,0.0,0.0,0.0,0.0,0.0,0.0,0.0,0.0,-0.3366,0.0,0.0,0.0,0.0,0.0,0.0,0.0,0.0,0.0,0.0,0.0,0.0,0.0,0.0,0.0,0.0,0.0,0.0,0.0,0.0,0.0,0.0,0.0,0.0,0.0,0.0,0.0,0.0,-1.5607,-1.6344,0.0,-1.7528,-1.742,-1.7339,-1.7439,-1.7259,-1.7274,-1.7569,-1.7586,-1.7642,-1.771,-1.7523,-1.7642,-1.8099,-1.7912,-1.7811,-1.7772,-1.732,-1.7084,-1.7067,-1.6323,-1.5984,-1.595,-1.5443,-1.5358,-1.5544,-1.4749,-1.3853,-1.3057,-1.3683,-1.3338,-1.2605,-1.3799,-1.3493,-1.2523,-1.2843,-1.2735,-1.2463,-1.254,-1.2203,-1.1854,-1.2066,-1.1392,-1.072,-1.1587,-1.0543,-0.9295,-0.9908,-0.9574,-0.8968,-0.8539,-0.8825,-0.9041,-0.8499,-0.8728,-0.8865,-0.8329,-0.8618,-0.8958,-0.9044,-0.9025,-0.9101,-0.9491,-0.816,-0.7187,-0.732,-0.7333,-0.691,-0.5843,-0.2286,0.0,0.0,0.0,0.0,0.0,0.0,0.0,0.0,0.0,0.0,0.0,-0.2296,-0.3263,0.0,0.0,0.0,0.0,0.0,0.0,0.0,0.0,0.0,0.0,0.0,0.0,0.0,0.0,0.0,0.0,0.0,0.0,0.0,0.0,0.0,0.0,0.0,0.0,0.0,-1.48,-1.638,-1.7609,-1.8211,-1.8705,-1.9194,-1.8937,-1.8675,-1.8512,-1.8068,-1.8031,-1.8515,-1.8318,-1.8521,-1.9249,-1.8809,-1.8674,-1.8894,-1.842,-1.8048,-1.7772,-1.7304,-1.7067,-1.705,-1.6559,-1.6339,-1.6323,-1.6069,-1.6103,-1.6306,-1.5815,-1.5155,-1.4445,-1.3867,-1.3009,-1.2255,-1.3486,-1.3309,-1.2618,-1.3661,-1.396,-1.384,-1.3818,-1.3202,-1.2399,-1.2174,-1.1556,-1.0913,-1.0779,-1.0337,-0.9944,-1.009,-1.0073,-0.9916,-0.9558,-0.9821,-0.9959,-0.9282,-0.9375,-0.9577,-0.9476,-0.9428,-0.9543,-0.9965,-1.002,-1.0337,-1.1306,-1.1005,-1.0721,-1.0848,-1.0322,-0.9688,-0.897,-0.4471,-0.1099,-0.0085,-0.3153,-0.3653,-0.0211,0.0,-0.1381,-0.4454,-0.4592,-0.4511,-0.4313,-0.4657,-0.4247,-0.3073,0.0,0.0,0.0,0.0,0.0,0.0,0.0,0.0,0.0,0.0,0.0,0.0,0.0,0.0,0.0,0.0,0.0,0.0,0.0,0.0,0.0,0.0,0.0,-1.5889,-1.6323,-1.7603,-1.9913,-1.8856,-1.8217,-1.8894,-1.8352,-1.8234,-1.891,-1.8335,-1.8549,-2.0002,-1.9384,-1.9316,-2.0052,-2.0018,-1.9647,-1.8944,-1.891,-1.8538,-1.7811,-1.7811,-1.7811,-1.7811,-1.7811,-1.7811,-1.776,-1.7033,-1.7134,-1.7693,-1.6255,-1.6086,-1.6559,-1.4821,-1.4159,-1.412,-1.3799,-1.3679,-1.3775,-1.4517,-1.4469,-1.4183,-1.4659,-1.431,-1.3613,-1.2932,-1.2053,-1.1221,-1.0832,-1.0388,-1.0137,-1.059,-1.0493,-1.0345,-1.0592,-1.0655,-1.0768,-1.1114,-1.0891,-1.0817,-1.139,-1.0399,-0.9864,-1.1082,-1.1988,-1.2961,-1.4188,-1.4475,0.0,-1.4531,-1.2988,-1.1164,-0.923,-0.6339,-0.3319,-0.0254,-0.9056,-1.0652,-0.1077,-0.0173,-0.3971,-1.2811,-1.3449,-1.3362,-1.2794,-1.0522,-0.7534,-0.3887,0.0,0.0,0.0,0.0,0.0,0.0,0.0,0.0,0.0,0.0,0.0,0.0,0.0,0.0,0.0,0.0,0.0,0.0,0.0,0.0,0.0,-1.6794,-1.7584,-1.6578,-1.8653,-2.0244,-2.006,-2.0653,-2.094,-2.0611,-2.0873,-2.094,-2.0585,-2.0889,-2.1245,-2.1667,-2.0974,-2.0906,-2.1623,-2.0576,-1.99,-1.9697,-1.9164,-1.8538,-1.7811,-1.7811,-1.7811,-1.7811,-1.7811,-1.7811,-1.7794,-1.7591,-1.7608,-1.7777,-1.7371,-1.732,-1.7354,-1.5789,-1.5177,-1.5244,-1.5666,-1.5512,-1.5158,-1.5896,-1.525,-1.4202,-1.4866,-1.4821,-1.4358,-1.365,-1.3442,-1.343,-1.3308,-1.3007,-1.2756,-1.2887,-1.2639,-1.2277,-1.1874,-1.1904,-1.1863,-1.1124,-1.127,-1.1482,-1.126,-1.1218,-1.1198,-1.1153,-1.1339,-1.1446,-1.1248,-1.1259,-1.1125,-1.0701,-1.0204,-1.0378,-1.1607,-0.8129,-0.4174,-0.0333,-0.2576,-0.6133,-1.0729,-0.4095,-0.1122,-0.3643,-1.0083,-1.3362,-1.2794,-1.2422,-1.2939,0.0,0.0,0.0,0.0,0.0,0.0,0.0,0.0,0.0,0.0,0.0,0.0,0.0,0.0,0.0,0.0,0.0,0.0,0.0,0.0,0.0,0.0,-1.8447,-1.9464,-1.9886,-2.0923,-2.1495,-2.1017,-2.1742,-2.2141,-2.1701,-2.2057,-2.2124,-2.1684,-2.1769,-2.1972,-2.2293,-2.1583,-2.1532,-2.2293,-2.1421,-2.0839,-2.0517,-1.9862,-1.932,-1.8916,-1.8392,-1.8318,-1.8633,-1.8301,-1.8061,-1.7988,-1.8295,-1.8194,-1.7828,-1.8132,-1.8082,-1.767,0.0,0.0,0.0,0.0,-1.6115,-1.5967,-1.6708,-1.6168,-1.5295,-1.6046,-1.5977,-1.5522,-1.5089,-1.4827,-1.471,-1.482,-1.4551,-1.4264,-1.4498,-1.4288,-1.3978,-1.3686,-1.3502,-1.3193,-1.2405,-1.239,-1.239,-1.1972,-1.2239,0.0,-1.2112,-1.2385,-1.2706,-1.2899,-1.2652,-1.2326,-1.2026,-1.1049,-1.1051,-1.2788,-1.0645,-0.7753,-0.4436,-0.462,0.0,0.0,0.0,-0.3999,-0.4981,-0.6879,0.0,0.0,0.0,-1.2408,-1.6338,-1.1701,0.0,0.0,-0.624,-0.8342,0.0,0.0,0.0,0.0,0.0,0.0,0.0,0.0,0.0,0.0,0.0,0.0,0.0,0.0,0.0,0.0,-2.0643,-2.2006,-2.4295,-2.3126,-2.2159,-2.2494,-2.2428,-2.2349,-2.2366,-2.2338,-2.231,-2.231,-2.1684,-2.16,-2.2276,-2.1684,0.0,0.0,0.0,-2.1976,-2.1257,-2.0818,-2.057,-2.0535,-1.9424,-1.919,-1.9797,-1.9066,-1.8557,-1.8284,-1.894,-1.8706,-1.7934,-1.8597,-1.8455,-1.7749,-1.6831,-1.6476,-1.6431,-1.614,-1.6115,-1.6363,-1.7096,0.0,0.0,-1.7456,-1.7287,-1.6817,-1.6733,-1.6105,-1.5487,-1.5731,-1.5428,-1.5152,-1.5612,-1.5454,-1.5271,-1.5597,-1.5066,-1.4422,-1.42,-1.388,-1.3531,-1.3118,-1.3293,-1.3498,-1.3413,-1.4088,-1.5059,-1.629,-1.5876,-1.544,-1.5501,-1.3472,-1.2345,-1.3157,-1.2939,0.0,-1.0425,-1.104,-0.9829,-0.5913,-0.7585,-0.9292,-1.0581,-0.3797,-0.1899,-0.5956,-0.5805,-0.7729,-1.1906,-1.6342,-1.2951,-0.2426,-0.3919,-0.6716,0.0,0.0,0.0,0.0,0.0,0.0,0.0,0.0,0.0,0.0,0.0,0.0,0.0,0.0,0.0,-2.1121,-2.2664,-2.4098,-2.5212,-2.503,-2.4574,-2.4065,-2.3172,-2.2625,-2.2703,-2.2443,-2.231,-2.231,-2.2175,-2.2158,-2.231,-2.2175,-2.2158,-2.231,-2.25,-2.2289,-2.1529,-2.1686,-2.1481,-2.0909,-2.0649,0.0,-1.9777,-1.9635,-1.9188,-1.8545,-1.8667,-1.863,-1.8467,-1.8608,-1.845,-1.8065,-1.7686,-1.7524,-1.7485,-1.744,-1.7071,-1.6694,-1.7451,-1.726,-1.6733,-1.6868,-1.7219,-1.7473,-1.6885,-1.6786,0.0,-1.6954,-1.6694,-1.6424,-1.6539,-1.5847,-1.5286,-1.594,-1.5261,-1.4494,-1.4422,-1.4813,-1.4817,-1.3548,-1.3835,-1.4107,-1.3498,-1.3547,-1.357,-1.3257,-1.3161,-1.2968,-1.2508,-1.1599,-1.1644,-1.3344,-1.1662,-1.1033,-1.2519,-1.1225,-0.9993,-0.9179,-0.9639,-0.7649,-0.2527,-0.0823,-0.0414,-0.1295,-0.1261,-0.1692,-0.2608,-1.3295,-1.2296,-0.0534,-0.0851,-0.147,0.0,0.0,0.0,0.0,0.0,0.0,0.0,0.0,0.0,0.0,0.0,-1.868,0.0,0.0,-2.2461,-2.3691,-2.4477,-2.5501,-2.7067,-2.6585,-2.5584,-2.4347,-2.3517,-2.2911,-2.2569,-2.2405,-2.231,-2.231,-2.231,-2.231,-2.231,-2.2426,-2.25,-2.25,-2.2789,-2.2755,-2.2411,-2.234,-2.2314,-2.2339,-2.1708,-2.1404,-2.1367,-2.0517,-1.9867,-1.9415,-1.936,-1.9071,-1.8585,-1.8585,-1.8528,-1.8371,-1.8103,-1.7927,-1.7811,-1.7811,-1.7645,-1.75,-1.7877,-1.7841,-1.7636,-1.7494,-1.7706,-1.7902,-1.7398,-1.7378,-1.7549,-1.7549,-1.7432,-1.7288,-1.7288,-1.6878,-1.6547,-1.6892,-1.6286,-1.5494,-1.5138,-1.5054,-1.4716,-1.3616,-1.3701,-1.3819,-1.3464,-1.3462,-1.3373,-1.3014,-1.2692,-1.2449,-1.2329,-1.1715,-1.1718,-1.2825,-1.1818,-1.1547,-1.2782,-1.1949,-1.1368,-1.1401,-1.1237,-0.8572,-0.2793,-0.0918,0.0,0.0,0.0,0.0,-0.0018,-0.6214,-0.6056,0.0,0.0,0.0,0.0,0.0,0.0,0.0,0.0,0.0,0.0,0.0,-1.8984,-2.005,-2.0949,-2.193,-2.3225,-2.3929,-2.476,-2.6038,-2.6136,-2.6749,-2.8722,-2.7665,-2.6113,-2.4498,-2.3902,-2.3272,-2.2456,-2.2321,-2.231,-2.231,-2.231,-2.2321,-2.236,-2.2573,-2.2721,-2.2797,-2.3117,-2.33,-2.33,-2.2998,-2.3159,-2.3777,-2.2758,-2.252,-2.2942,-2.1603,-2.0712,-2.0264,-2.0029,-1.9489,-1.8734,-1.8642,-1.8623,-1.8623,-1.827,-1.804,-1.7949,-1.79,-1.8014,-1.8208,-1.8249,-1.841,-1.8566,-1.8351,-1.827,-1.8229,-1.7949,-1.7883,-1.7878,-1.7811,-1.7811,-1.7811,-1.7811,-1.7693,-1.7625,-1.7777,-1.7279,-1.6591,-1.5954,-1.5418,-1.4827,-1.4059,-1.3803,-1.3717,-1.3733,-1.3691,-1.3663,-1.3617,-1.3156,-1.2939,-1.3208,-1.2637,-1.2288,-1.2522,-1.2421,-1.239,-1.2532,-1.2651,-1.2695,-1.2695,-1.2431,-1.0622,-0.6932,-0.3379,-0.1016,-0.002,0.0,0.0,0.0,0.0,0.0,0.0,0.0,0.0,-1.5432,-1.5773,-1.6581,-1.7303,-1.7822,-1.8549,0.0,0.0,-2.1952,-2.2588,-2.3687,-2.4494,-2.4381,-2.524,-2.6127,-2.6632,-2.7468,-2.8297,-2.8892,-2.7918,-2.6723,-2.5567,-2.4731,-2.3857,-2.2756,-2.2453,-2.231,-2.231,-2.231,-2.2398,-2.2634,-2.2669,-2.2848,-2.3141,-2.3459,-2.3631,-2.3631,-2.3885,-2.4059,-2.4133,-2.3987,-2.3602,-2.2978,-2.2813,-2.1896,-2.0433,-1.9717,-1.9335,-1.9196,-1.8771,-1.8734,-1.8878,-1.8142,-1.8103,-1.8489,-1.8249,-1.8166,-1.8229,-1.8469,-1.8566,-1.8603,-1.8566,-1.8547,-1.8508,-1.8229,-1.8146,-1.8121,-1.7878,-1.7811,-1.7811,-1.7811,-1.7304,-1.7004,-1.7642,-1.7432,-1.6969,-1.6659,-1.6835,-1.68,-1.5888,-1.5225,-1.4845,-1.4892,-1.4326,-1.3813,-1.3632,-1.3825,-1.4023,-1.4062,-1.3629,-1.3355,-1.3451,-1.2868,-1.2532,-1.2666,-1.2685,-1.2709,-1.2709,-1.3099,-1.3152,-1.274,-0.8943,-0.4687,-0.0098,0.0,0.0,0.0,0.0,0.0,0.0,0.0,0.0,-1.7715,-1.7356,-1.7466,0.0,-2.0217,-2.12,-2.3242,-2.4144,-2.4643,-2.5092,-2.5613,-2.5967,-2.5796,-2.6177,-2.6713,0.0,-2.7824,-2.8146,-2.8288,-2.7858,-2.6962,-2.538,-2.4717,-2.3957,-2.2816,-2.2463,-2.236,-2.2527,-2.2537,-2.2573,-2.2695,-2.3069,-2.3346,-2.35,-2.3816,-2.3996,-2.3996,-2.4132,-2.419,-2.419,-2.419,-2.4025,-2.3676,-2.2721,-2.1382,-1.9785,-1.9436,-1.9305,-1.9289,-1.9081,-1.9082,-1.9134,-1.8679,-1.8641,-1.877,-1.8351,-1.8391,-1.8697,-1.8789,-1.8895,-1.8999,-1.8878,-1.8825,-1.8789,-1.8508,-1.843,-1.8371,-1.8103,-1.8163,-1.8229,-1.8061,-1.7904,-1.789,-1.82,-1.8126,-1.7816,-1.7285,-1.6958,-1.6658,-1.6306,-1.5212,-1.4533,-1.5003,-1.4542,-1.4212,-1.4602,-1.4396,-1.4264,-1.4467,-1.432,-1.4448,-1.5093,-1.4519,-1.4301,-1.4868,-1.4912,-1.4912,-1.4912,-1.5601,-1.5579,-1.4613,-1.303,-1.1172,-0.9004,-0.6016,-0.3008,0.0,0.0,0.0,0.0,0.0,0.0,-1.8621,-1.8434,0.0,-2.1105,-2.2313,-2.3422,-2.5304,-2.627,-2.6763,-2.6859,-2.6958,-2.6945,-2.6725,-2.6452,-2.6564,-2.7459,-2.7607,-2.7603,-2.7661,-2.7369,-2.6535,-2.4861,-2.4247,-2.3611,-2.2773,-2.2463,-2.2398,-2.2669,-2.2634,-2.266,-2.2822,-2.33,-2.3649,-2.3837,-2.4074,-2.419,-2.419,-2.419,-2.419,-2.419,-2.419,-2.419,-2.4153,-2.2758,-2.1345,-1.9984,-1.973,-1.951,-1.9289,-1.9227,-1.9389,-1.957,-1.909,-1.9092,-1.9324,-1.8673,-1.8678,-1.9019,-1.9069,-1.9182,-1.9274,-1.9134,-1.9086,-1.9088,-1.9057,-1.8875,-1.8748,-1.8918,-1.8786,-1.86,-1.8615,-1.8628,-1.8585,-1.8585,-1.8659,-1.8537,-1.7932,-1.7273,-1.6856,-1.7073,-1.5819,-1.4974,-1.5792,-1.5429,-1.522,-1.5817,-1.5416,-1.5164,-1.5367,-1.546,-1.579,-1.6602,-1.6214,-1.6157,-1.6772,-1.683,-1.683,-1.683,-1.742,-1.723,-1.5994,-1.6035,-1.6013,-1.5879,-1.1895,-0.7988,-0.4238,-0.2812,-0.1387,0.0,0.0,0.0,-1.667,0.0,-1.9569,-2.1753,-2.3412,-2.4732,-2.5422,-2.7019,-2.8116,-2.7442,-2.7531,-2.7571,-2.6826,-2.5867,-2.5516,-2.6649,-2.6827,-2.697,-2.7254,-2.6322,-2.5182,-2.4147,-2.3267,-2.2738,0.0,-2.2463,-2.2398,-2.2669,-2.2463,-2.2571,-2.3141,-2.3189,-2.3522,-2.417,-2.419,-2.419,-2.419,-2.419,-2.419,-2.419,-2.419,-2.419,-2.4171,-2.3345,-2.252,-2.1692,-2.0831,-2.0023,-1.9274,-1.9102,-1.959,-2.0342,-1.9111,-1.9363,-2.0323,-1.9323,-1.9002,-1.9018,-1.9212,-1.9289,-1.9289,-1.9289,-1.9289,-1.9389,-1.9974,-1.9614,-1.9273,-2.0553,-1.9795,-1.8781,-1.9544,-1.919,-1.8585,-1.8585,-1.8789,-1.8914,-1.8624,-1.8281,-1.8225,-1.8801,-1.7788,-1.706,-1.788,-1.7509,-1.7123,-1.7142,-1.7248,-1.7252,-1.7139,-1.7349,-1.7554,-1.765,-1.7638,-1.7619,-1.7664,-1.7664,-1.7664,-1.7664,-1.7683,-1.7733,-1.7812,-1.7819,-1.7584,-1.7051,-1.5801,-1.5098,-1.4922,-0.9902,-0.4902,0.0,0.0,0.0,-1.8593,0.0,-2.2892,-2.4297,-2.5923,-2.7347,-2.8021,-2.8564,-2.8559,-2.7313,-2.6799,-2.625,-2.505,-2.4185,-2.4067,-2.5374,-2.5942,-2.6097,-2.5749,-2.6231,-2.5843,-2.3728,-2.351,0.0,0.0,0.0,-2.2096,-2.2669,-2.2368,-2.2459,-2.3165,-2.3414,-2.3753,-2.419,-2.419,-2.419,-2.419,-2.419,-2.419,-2.419,-2.419,-2.3914,-2.34,-2.3125,-2.2556,-2.1766,-2.0886,-2.0338,-2.0044,-1.9449,-1.9392,-1.9659,-1.9223,-1.9328,-1.9675,-1.9321,-1.9198,-1.9214,-1.9274,-1.9305,-1.9305,-1.9305,-1.9656,-2.0026,-1.9705,-1.9782,-1.9951,-1.9741,-1.938,-1.9104,-1.9237,-1.956,-1.9719,-1.9191,-1.955,-1.982,-1.9208,-1.8559,-1.8368,-1.9217,-1.8157,-1.7392,-1.8272,-1.782,-1.7536,-1.8175,-1.7852,-1.7518,-1.7473,-1.7576,-1.7898,-1.8496,-1.8042,-1.7933,-1.8511,-1.8561,-1.8561,-1.8568,-1.9104,-1.9212,-1.8717,-1.8747,-1.8414,-1.765,-1.7304,-1.6934,-1.6523,-1.4785,-1.3242,-1.1855,-0.8437,-0.4375,-2.0339,-2.2712,-2.5001,-2.6446,-2.769,-2.8667,-2.9018,-2.8767,-2.8078,-2.6607,-2.5696,-2.4735,-2.3406,-2.2601,-2.257,-2.3741,-2.4438,-2.4657,-2.423,-2.5241,-2.5232,-2.3142,-2.3493,-2.3744,0.0,0.0,0.0,-2.266,-2.2607,-2.2733,-2.3183,-2.3392,-2.3714,-2.419,-2.419,-2.419,-2.419,-2.419,-2.419,-2.419,-2.419,-2.3933,-2.3437,-2.3437,-2.2832,-2.1784,-2.1216,-2.0629,-2.0042,-1.951,-1.9473,-1.9693,-1.9399,-1.9473,-1.9693,-1.9399,-1.9305,-1.9305,-1.9305,-1.9305,-1.9344,-1.9638,-2.0079,-2.0521,-2.0592,-2.0776,-2.0944,-2.0879,-2.031,-1.9845,-2.0315,-2.0457,-2.0448,-2.0244,-2.062,-2.0831,-2.0018,-1.9485,-1.9285,-1.9619,-1.8839,-1.8324,-1.8922,-1.8638,-1.8555,-1.9235,-1.8899,-1.8554,-1.8554,-1.8609,-1.885,-1.94,-1.8965,-1.885,-1.9415,-1.9456,-1.9458,-1.9464,-2.0003,-2.0109,-1.9612,-1.9645,-1.9419,-1.8881,-1.8593,-1.8262,-1.7891,-1.7578,-1.7734,-1.8242,-1.4922,-1.1211,-2.1864,-2.3985,-2.6043,-2.8147,-2.8622,-2.8553,-2.8378,-2.7695,-2.6647,-2.5312,-2.4133,-2.302,0.0,0.0,-2.1015,-2.1799,-2.2494,-2.2898,-2.2822,-2.3476,-2.3608,0.0,0.0,0.0,0.0,0.0,0.0,-2.279,-2.317,-2.3361,-2.3271,-2.3283,-2.3558,-2.417,-2.419,-2.419,-2.419,-2.419,-2.419,-2.419,-2.419,-2.419,-2.419,-2.419,-2.3327,-2.1876,-2.1821,-2.0884,-1.9344,-1.9323,-1.9748,-2.0356,-1.9601,-1.9767,-2.0338,-1.9583,-1.9305,-1.932,-1.932,-1.9341,-1.9491,-2.0246,-2.0558,-2.0906,-2.2483,-2.2428,-2.217,-2.3657,-2.2391,-2.0924,-2.252,-2.1803,-2.0848,-2.1636,-2.1946,-2.1857,-2.1045,-2.1028,-2.0921,-2.0096,-1.9908,-1.9889,-1.9889,-1.9962,-2.0087,-2.0265,-2.03,-2.03,-2.03,-2.0292,-2.0292,-2.03,-2.03,-2.03,-2.03,-2.0308,-2.0313,-2.0313,-2.0361,-2.0432,-2.0506,-2.051,-2.0539,-2.0605,-1.9785,-1.9375,-1.9355,-1.8535,-1.8437,-1.8984,-1.8984,-1.957,-2.4532,-2.6985,-2.9222,-2.9319,-2.8966,-2.8432,-2.7684,-2.6188,-2.4487,-2.2862,-2.1549,-2.0275,0.0,0.0,0.0,-2.0435,-2.2186,0.0,-2.2797,-2.4325,0.0,-2.3306,0.0,-2.4586,-2.4265,-2.4601,0.0,-2.4083,-2.3612,-2.3526,-2.4,-2.429,-2.4389,-2.4208,-2.419,-2.419,-2.419,-2.419,-2.419,-2.419,-2.419,-2.419,-2.419,-2.419,-2.3657,-2.2666,-2.2061,-2.118,-2.0152,-1.9546,-1.9418,-1.9583,-1.9381,-1.9418,-1.9583,-1.9381,-1.9394,-1.9527,-1.9527,-1.9815,-2.0244,-2.0429,-2.1328,-2.2336,-2.2152,-2.2373,-2.2648,-2.2464,-2.1951,-2.1598,-2.2129,-2.242,-2.2523,-2.2239,-2.2665,-2.29,-2.209,-2.1972,-2.1978,-2.1893,-2.1435,-2.1072,-2.1072,-2.0608,-2.0237,-2.0296,-2.0349,-2.0366,-2.0308,-2.0299,-2.0325,-2.0371,-2.0332,-2.032,-2.0381,-2.0381,-2.0366,-2.0366,-2.0435,-2.048,-2.0508,-2.0542,-2.0585,-2.0605,-2.0371,-2.0273,-2.0273,-2.0059,-2.0019,-2.0176,-2.0176,-2.0312,-2.6594,-2.8714,-3.0357,-2.9729,-2.9267,-2.8454,-2.6779,-2.4904,-2.3046,-2.1266,-1.9695,0.0,-1.7735,-1.7712,0.0,0.0,0.0,0.0,-2.1753,-2.3922,-2.492,0.0,-2.4653,0.0,-2.4571,-2.5169,-2.5622,-2.5723,-2.5013,-2.4503,-2.4292,-2.4682,-2.4671,-2.4208,-2.419,-2.419,-2.419,-2.419,-2.419,-2.419,-2.419,-2.419,-2.419,-2.419,-2.3768,-2.296,-2.2152,-2.1308,-2.0429,-1.962,-1.9305,-1.9305,-1.9413,-1.9423,-1.9438,-1.9504,-1.9585,-1.9695,-1.9695,-2.014,-2.0771,-2.105,-2.1553,-2.207,-2.2279,-2.2648,-2.2923,-2.2567,-2.2471,-2.2576,-2.3075,-2.3322,-2.3393,-2.3393,-2.3776,-2.3942,-2.3139,-2.3027,-2.2999,-2.2747,-2.2378,-2.1987,-2.1606,-2.1184,-2.0769,-2.0395,-2.0701,-2.0975,-2.097,-2.0933,-2.0936,-2.097,-2.1284,-2.1493,-2.1543,-2.1565,-2.1575,-2.1575,-2.1292,-2.1263,-2.1634,-2.0976,-2.0781,-2.1152,-2.0781,-2.0605,-2.0605,-2.0605,-2.0605,-2.0605,-2.0605,-2.0605,-2.8291,-2.9729,-3.0462,-2.9853,-2.9362,-2.8341,-2.5799,-2.3703,-2.1782,-1.9919,0.0,-1.7082,-1.7221,-1.6962,-1.7005,-1.7921,0.0,-2.0316,-2.0592,-2.2932,-2.4175,-2.3006,-2.5041,-2.6055,-2.4846,-2.5336,-2.6192,-2.7313,-2.67,-2.5764,-2.4605,-2.4913,-2.4841,-2.4226,-2.419,-2.419,-2.419,-2.419,-2.419,-2.419,-2.419,-2.419,-2.419,-2.419,-2.3768,-2.296,-2.2152,-2.1308,-2.0429,-1.9669,-1.9335,-1.935,-1.9555,-1.9623,-1.9649,-1.9762,-1.9802,-1.9824,-1.9824,-2.0297,-2.101,-2.1662,-2.1459,-2.122,-2.2513,-2.2958,-2.3103,-2.3284,-2.3406,-2.3712,-2.4601,-2.4279,-2.3896,-2.4685,-2.4956,-2.4843,-2.4144,-2.4138,-2.4033,-2.3281,-2.3118,-2.2843,-2.2088,-2.1925,-2.1632,-2.0869,-2.1406,-2.1909,-2.1975,-2.1929,-2.1885,-2.1877,-2.2559,-2.3026,-2.3033,-2.3062,-2.3093,-2.3093,-2.2459,-2.2383,-2.3086,-2.1719,-2.1289,-2.2051,-2.1211,-2.0762,-2.0762,-2.0762,-2.0762,-2.0781,-2.0879,-2.0937,-2.9948,-3.0723,-3.1174,-3.0516,-2.8931,-2.7003,-2.4738,-2.2191,0.0,0.0,-1.6288,-1.5602,-1.5476,-1.5915,-1.6659,-1.7753,-1.8923,-2.0114,-2.1259,-2.2327,-2.3173,0.0,-2.4892,-2.577,-2.5875,-2.6275,0.0,-2.7736,-2.7077,-2.634,-2.5751,-2.6099,-2.5672,-2.4245,-2.419,-2.419,-2.419,-2.419,-2.419,-2.419,-2.419,-2.419,-2.419,-2.419,-2.3768,-2.296,-2.2152,-2.1308,-2.0446,-1.9804,-1.9541,-1.9569,-1.9701,-1.9774,-1.9774,-1.9778,-1.9869,-1.9973,-1.9973,-2.0174,-2.0498,-2.1003,-2.1542,-2.2004,-2.2262,-2.2839,-2.3412,-2.346,-2.3978,-2.4615,-2.4886,-2.4847,-2.4827,-2.5133,-2.5233,-2.5215,-2.5061,-2.5062,-2.5052,-2.4962,-2.4418,-2.3948,-2.3859,-2.329,-2.2808,-2.2652,-2.2764,-2.2889,-2.2949,-2.2845,-2.2809,-2.2848,-2.2995,-2.3109,-2.3161,-2.3124,-2.3105,-2.3105,-2.3027,-2.3047,-2.3184,-2.2852,-2.2754,-2.2969,-2.2129,-2.168,-2.168,-2.168,-2.168,-2.1699,-2.2363,-2.2695,-2.9094,-3.0428,-3.1324,-3.0689,-2.9024,-2.6898,-2.4198,0.0,0.0,0.0,-1.53,-1.4756,-1.5013,-1.5097,0.0,-1.673,-1.7186,-1.8217,-2.0495,-2.1396,0.0,-2.34,-2.4917,-2.5778,0.0,-2.6475,-2.7143,-2.7513,-2.7165,-2.6688,-2.6045,-2.56,-2.5038,-2.4376,-2.4357,-2.4357,-2.4357,-2.4357,-2.4303,-2.419,-2.419,-2.419,-2.419,-2.419,-2.3988,-2.3584,-2.2776,-2.1984,-2.1235,-2.0507,-2.0023,-1.9732,-1.9847,-1.9893,-1.9922,-2.0021,-2.0107,-2.0161,-2.0161,-2.0233,-2.0345,-2.0556,-2.0836,-2.1202,-2.2003,-2.2537,-2.2992,-2.3512,-2.4258,-2.4943,-2.5118,-2.5152,-2.5173,-2.5274,-2.5303,-2.5303,-2.5303,-2.5303,-2.5322,-2.5383,-2.5118,-2.4749,-2.4378,-2.4005,-2.3629,-2.3218,-2.3515,-2.3789,-2.3828,-2.4154,-2.4249,-2.3828,-2.4178,-2.4471,-2.4492,-2.4473,-2.4453,-2.4453,-2.4062,-2.4023,-2.4473,-2.3594,-2.332,-2.3809,-2.2559,-2.2109,-2.2519,-2.2109,-2.2129,-2.2539,-2.2969,-2.3164,-2.8021,-2.99,-3.1324,-3.0689,-2.9107,-2.6917,-2.3689,-2.0976,0.0,0.0,-1.4683,-1.431,-1.5003,-1.4623,-1.4609,0.0,-1.5628,-1.6396,-1.9435,-2.038,-2.1309,0.0,-2.4593,0.0,-2.501,-2.6063,0.0,-2.7055,-2.691,-2.6524,-2.5909,-2.4801,-2.4284,-2.4495,-2.4495,-2.4495,-2.4495,-2.4495,-2.441,-2.419,-2.419,-2.4228,-2.4247,-2.4209,-2.4155,-2.4007,-2.316,-2.2416,-2.173,-2.0947,-2.0321,-1.9858,-2.0022,-2.0069,-2.0078,-2.0241,-2.0312,-2.0312,-2.0312,-2.0312,-2.0312,-2.0312,-2.0197,-2.0289,-2.1506,-2.2002,-2.2341,-2.3316,-2.4189,-2.487,-2.5206,-2.5303,-2.5303,-2.5303,-2.5303,-2.5293,-2.5322,-2.5312,-2.5357,-2.5441,-2.5493,-2.5333,-2.4707,-2.4646,-2.4453,-2.3828,-2.4277,-2.4687,-2.4687,-2.5273,-2.5449,-2.4746,-2.5293,-2.5703,-2.5703,-2.5703,-2.5703,-2.5703,-2.5059,-2.498,-2.5664,-2.4375,-2.3984,-2.4668,-2.3203,-2.2754,-2.3379,-2.2734,-2.2754,-2.3379,-2.3613,-2.373,-2.8257,-3.0009,-3.1324,-3.0689,-2.8716,-2.6134,-2.2872,0.0,0.0,-1.5044,-1.4291,-1.4314,-1.5068,-1.4655,-1.4606,-1.5886,0.0,-1.6043,0.0,0.0,-2.0318,-2.1917,0.0,0.0,-2.4431,-2.4933,-2.5605,-2.6578,-2.5965,-2.5546,-2.5472,-2.4667,-2.4284,-2.4495,-2.4495,-2.4495,-2.4495,-2.4495,-2.441,-2.419,-2.419,-2.4303,-2.4461,-2.4284,-2.3967,-2.3516,-2.2517,-2.1708,-2.1036,-2.0367,-2.004,-2.0003,-2.0197,-2.0277,-2.0277,-2.0285,-2.0312,-2.0312,-2.0312,-2.0312,-2.0312,-2.0312,-2.0285,-2.0296,-2.0433,-2.099,-2.1758,-2.2641,-2.3515,-2.4361,-2.5111,-2.5303,-2.5303,-2.5303,-2.5303,-2.5322,-2.5376,-2.5398,-2.5428,-2.5558,-2.5595,-2.5588,-2.5565,-2.5586,-2.5566,-2.5488,-2.5527,-2.5586,-2.5586,-2.5644,-2.5664,-2.5586,-2.5644,-2.5703,-2.5703,-2.5703,-2.5703,-2.5703,-2.5625,-2.5625,-2.5703,-2.5547,-2.5508,-2.5586,-2.4648,-2.4219,-2.4277,-2.4219,-2.4219,-2.4297,-2.5098,-2.5469,-2.5016,-2.7941,-3.0714,-2.9964,-2.8336,-2.6007,-2.2535,0.0,-1.7474,-1.4873,-1.4237,-1.4266,-1.4648,-1.4477,-1.4454,-1.5045,0.0,0.0,-1.7842,0.0,-1.8515,-2.1412,-2.3076,0.0,0.0,0.0,-2.6249,-2.6057,-2.5319,-2.4909,-2.5028,-2.463,-2.451,-2.479,-2.4727,-2.4685,-2.4685,-2.4559,-2.441,-2.419,-2.4321,-2.4409,-2.4512,-2.4526,-2.4451,-2.4228,-2.3295,-2.2468,-2.1733,-2.1024,-2.045,-2.0022,-2.0214,-2.0312,-2.03,-2.0301,-2.0299,-2.03,-2.0301,-2.0299,-2.0312,-2.0312,-2.0312,-2.0389,-2.0889,-2.1254,-2.1677,-2.2543,-2.3437,-2.4168,-2.4485,-2.4947,-2.5303,-2.5346,-2.5363,-2.5376,-2.5453,-2.5471,-2.5498,-2.5573,-2.5601,-2.5611,-2.5683,-2.5703,-2.5703,-2.5703,-2.5703,-2.5703,-2.5703,-2.5703,-2.5703,-2.5703,-2.5703,-2.5703,-2.5703,-2.5703,-2.5703,-2.5703,-2.5703,-2.5703,-2.5703,-2.5703,-2.5703,-2.5703,-2.4844,-2.4668,-2.5176,-2.4668,-2.4668,-2.5195,-2.5547,-2.5703,-2.2171,-2.5546,-2.8803,-2.8249,-2.6922,-2.4872,0.0,0.0,-1.6954,-1.4701,-1.4185,-1.4203,-1.4342,-1.433,-1.4319,0.0,0.0,-1.4374,-1.683,-1.6715,-1.7484,0.0,0.0,-2.3217,-2.3762,-2.5342,-2.6023,-2.5319,-2.4796,-2.4575,-2.479,-2.4697,-2.4766,-2.4979,-2.4917,-2.4869,-2.4869,-2.4727,-2.4575,-2.4375,-2.4528,-2.4476,-2.4294,-2.4369,-2.4176,-2.3739,-2.3088,-2.2344,-2.1538,-2.1105,-2.0556,-2.0022,-2.0214,-2.0308,-2.0306,-2.0308,-2.0308,-2.0328,-2.0324,-2.0326,-2.0334,-2.0334,-2.032,-2.0407,-2.0966,-2.1143,-2.1339,-2.2199,-2.3253,-2.4184,-2.4443,-2.4938,-2.5379,-2.5415,-2.5434,-2.5453,-2.5526,-2.5535,-2.5551,-2.5629,-2.5633,-2.5637,-2.5683,-2.5703,-2.5703,-2.5703,-2.5703,-2.5703,-2.5703,-2.5703,-2.5703,-2.5703,-2.5703,-2.5703,-2.5703,-2.5703,-2.5703,-2.5703,-2.5703,-2.5703,-2.5703,-2.5703,-2.5703,-2.5703,-2.5098,-2.5098,-2.5703,-2.5078,-2.5098,-2.5703,-2.5703,-2.5703,-2.0538,-2.3215,-2.5194,-2.5315,-2.4138,-2.2316,0.0,0.0,-1.5746,-1.4377,-1.4042,-1.406,-1.4268,-1.4255,-1.427,-1.4471,-1.4493,0.0,-1.5623,-1.6622,0.0,0.0,0.0,-2.1175,-2.2309,-2.352,-2.4226,-2.4208,-2.4393,-2.4575,-2.479,-2.4911,-2.4998,-2.501,-2.501,-2.501,-2.501,-2.4998,-2.4943,-2.479,-2.4804,-2.4452,-2.3805,-2.3612,-2.2716,-2.1337,-2.1268,-2.0698,-1.9851,-2.0182,-2.0188,-2.0022,-2.0214,-2.0294,-2.0307,-2.0307,-2.0337,-2.0406,-2.0406,-2.0406,-2.0406,-2.0406,-2.0347,-2.0307,-2.0307,-2.0308,-2.0481,-2.1365,-2.2865,-2.4389,-2.5255,-2.5489,-2.5508,-2.5508,-2.5489,-2.5526,-2.5573,-2.5601,-2.5629,-2.5683,-2.5703,-2.5703,-2.5703,-2.5703,-2.5703,-2.5703,-2.5703,-2.5703,-2.5703,-2.5703,-2.5703,-2.5703,-2.5703,-2.5703,-2.5703,-2.5703,-2.5703,-2.5703,-2.5703,-2.5703,-2.5703,-2.5703,-2.5703,-2.5703,-2.5684,-2.5684,-2.5703,-2.5684,-2.5684,-2.5703,-2.5703,-2.5703,-1.8313,-2.0677,-2.2801,-2.2321,-2.1746,-2.071,-1.8584,-1.7056,-1.576,-1.4557,-1.425,-1.4224,-1.4295,-1.432,-1.4374,-1.4475,-1.4537,0.0,0.0,0.0,0.0,-1.9858,-2.145,-2.2946,0.0,-2.4296,-2.4266,-2.4393,-2.4461,-2.462,-2.4911,-2.4974,-2.5057,-2.5203,-2.5077,-2.501,-2.501,-2.4917,-2.4842,-2.4804,-2.4891,-2.4816,-2.461,-2.4121,-2.3658,-2.3151,-2.1923,-2.1177,-2.08,-2.0438,-2.0169,-2.0012,-2.0215,-2.0308,-2.0305,-2.0391,-2.0425,-2.0414,-2.0444,-2.0435,-2.041,-2.041,-2.0398,-2.0361,-2.0361,-2.0336,-2.0618,-2.2133,-2.2945,-2.3718,-2.5119,-2.5493,-2.5503,-2.5558,-2.5564,-2.5595,-2.5659,-2.5662,-2.5662,-2.5703,-2.5703,-2.5703,-2.5703,-2.5703,-2.5703,-2.5703,-2.5703,-2.5703,-2.5703,-2.5703,-2.5703,-2.5703,-2.5703,-2.5703,-2.5703,-2.5703,-2.5703,-2.5703,-2.5703,-2.5703,-2.5703,-2.5703,-2.5703,-2.5703,-2.5703,-2.5703,-2.5703,-2.5703,-2.5703,-2.5703,-2.5703,-2.5703,0.0,-1.7344,-1.8952,-1.8759,-1.8641,-1.8205,-1.6813,-1.5934,-1.5223,-1.4487,-1.4344,-1.4387,-1.438,-1.4694,-1.4866,-1.4581,-1.486,0.0,0.0,0.0,0.0,-2.0371,0.0,0.0,-2.4468,-2.4357,-2.4284,-2.4478,-2.4559,-2.4741,-2.4998,-2.5077,-2.5163,-2.5303,-2.5173,-2.5111,-2.5111,-2.5024,-2.4994,-2.4994,-2.5065,-2.4785,-2.4154,-2.3784,-2.3217,-2.2489,-2.1487,-2.0937,0.0,-2.0422,-2.0196,-2.0065,-2.0256,-2.0347,-2.0398,-2.0475,-2.0484,-2.048,-2.0516,-2.0511,-2.0477,-2.0477,-2.0467,-2.0435,-2.0435,-2.0414,-2.069,-2.2146,-2.2786,-2.3344,-2.4729,-2.5333,-2.5579,-2.5602,-2.5604,-2.5605,-2.5616,-2.5637,-2.5661,-2.5661,-2.5683,-2.5703,-2.5703,-2.5703,-2.5703,-2.5703,-2.5703,-2.5703,-2.5703,-2.5703,-2.5703,-2.5703,-2.5703,-2.5703,-2.5703,-2.5703,-2.5703,-2.5703,-2.5703,-2.5703,-2.5703,-2.5703,-2.5703,-2.5703,-2.5703,-2.5703,-2.5703,-2.5703,-2.5703,-2.5703,-2.5703,-2.5703,0.0,-1.3484,0.0,-1.4889,-1.5134,-1.5131,-1.4778,-1.447,0.0,-1.4232,-1.4362,-1.4497,-1.4499,-1.521,-1.5548,-1.4725,-1.5333,0.0,0.0,-1.6133,0.0,0.0,-2.1985,-2.2997,-2.3132,-2.3787,-2.4303,-2.4478,-2.4685,-2.4869,-2.4998,-2.5173,-2.5293,-2.5303,-2.5303,-2.5303,-2.5303,-2.5303,-2.5303,-2.5303,-2.5245,-2.4409,-2.2889,-2.2754,-2.176,-2.0108,-2.0244,-2.0116,-1.985,-2.0169,-2.0192,-2.0048,-2.0313,-2.0402,-2.043,-2.0471,-2.0541,-2.0605,-2.0605,-2.0605,-2.0605,-2.0605,-2.0563,-2.051,-2.051,-2.051,-2.0683,-2.1565,-2.2437,-2.3301,-2.418,-2.5039,-2.5682,-2.5605,-2.5598,-2.559,-2.5503,-2.5551,-2.5598,-2.5598,-2.5637,-2.5683,-2.5683,-2.5683,-2.5683,-2.5683,-2.5683,-2.5683,-2.5683,-2.5683,-2.5683,-2.5683,-2.5683,-2.5683,-2.5683,-2.5703,-2.5703,-2.5703,-2.5703,-2.5703,-2.5703,-2.5703,-2.5703,-2.5703,-2.5703,-2.5683,-2.5683,-2.5683,-2.5683,-2.5683,-2.5683,-2.5683,-1.045,0.0,-1.2572,-1.2806,-1.3205,-1.3565,0.0,0.0,0.0,0.0,0.0,0.0,0.0,0.0,0.0,-1.4504,0.0,-1.5413,-1.6583,0.0,0.0,-2.0782,-2.2207,-2.3024,-2.2771,-2.3768,-2.4444,-2.4495,-2.4685,-2.4869,-2.4998,-2.5034,-2.5141,-2.5303,-2.5303,-2.5303,-2.5303,-2.5303,-2.5303,-2.5284,-2.4678,-2.4187,-2.3744,-2.2408,-2.1564,-2.1125,-2.0546,-2.0269,-2.0183,-2.027,-1.9923,-1.9415,-2.0185,-2.0072,-1.9591,-2.0309,-2.0585,-2.0605,-2.0605,-2.0605,-2.0605,-2.0605,-2.0586,-2.0585,-2.0585,-2.054,-2.0687,-2.1619,-2.25,-2.3359,-2.4111,-2.4967,-2.5605,-2.5543,-2.5511,-2.5526,-2.5493,-2.5503,-2.5511,-2.5511,-2.5543,-2.5551,-2.5551,-2.5551,-2.5551,-2.5551,-2.5595,-2.5611,-2.5611,-2.5611,-2.5611,-2.5611,-2.5611,-2.5611,-2.5611,-2.5662,-2.5703,-2.5703,-2.5703,-2.5703,-2.5703,-2.5703,-2.5703,-2.5703,-2.5658,-2.5601,-2.5551,-2.5551,-2.5551,-2.5551,-2.5551,-2.5567,-0.9721,-1.0333,-1.1041,-1.1452,-1.2073,-1.2684,-1.3066,0.0,0.0,0.0,0.0,0.0,0.0,0.0,0.0,0.0,-1.5796,0.0,0.0,0.0,-2.0623,-2.1316,-2.2413,-2.3172,-2.3318,-2.4044,-2.4545,-2.4623,-2.4799,-2.4968,-2.5141,-2.5141,-2.5192,-2.5303,-2.5303,-2.5303,-2.5303,-2.4928,-2.4755,-2.4736,-2.3889,-2.3302,-2.2879,-2.1957,-2.1343,-2.0892,-2.0108,-1.9979,-2.0323,-1.9954,-1.9538,-1.9191,-1.9732,-1.9646,-1.9258,-1.9763,-2.0211,-2.0543,-2.0543,-2.0565,-2.0605,-2.0605,-2.0605,-2.0586,-2.0564,-2.0527,-2.0605,-2.1111,-2.2164,-2.3233,-2.3614,-2.4619,-2.5543,-2.5463,-2.544,-2.5453,-2.5408,-2.5434,-2.544,-2.5459,-2.5488,-2.5493,-2.5493,-2.5493,-2.5493,-2.5493,-2.5539,-2.5554,-2.5554,-2.5554,-2.5554,-2.5554,-2.5554,-2.5554,-2.5554,-2.5595,-2.5634,-2.5703,-2.5703,-2.5703,-2.5703,-2.5703,-2.5683,-2.5659,-2.5629,-2.5564,-2.5493,-2.5493,-2.5493,-2.5493,-2.5493,-2.5526,-0.9776,-0.9736,-0.9879,-1.0566,-1.1442,-1.2251,-1.2833,0.0,0.0,0.0,0.0,0.0,0.0,-1.5471,0.0,0.0,0.0,0.0,-1.9479,-1.9773,-2.0383,-2.168,-2.2592,-2.3326,-2.3913,-2.43,-2.4607,-2.479,-2.4956,-2.5111,-2.5284,-2.5303,-2.5245,-2.512,-2.512,-2.5063,-2.4918,-2.437,-2.4033,-2.3898,-2.3024,-2.2224,-2.1509,-2.1436,-2.0991,-2.0291,-1.9594,-1.9653,-2.0165,-1.9471,-1.9044,-1.8835,-1.9022,-1.8981,-1.8847,-1.9101,-1.9587,-2.0113,-2.0267,-2.044,-2.0585,-2.0565,-2.0565,-2.0563,-2.0508,-2.0482,-2.048,-2.0475,-2.1647,-2.2909,-2.2979,-2.4132,-2.5321,-2.5374,-2.5383,-2.536,-2.5313,-2.5337,-2.5383,-2.5376,-2.5428,-2.5477,-2.5477,-2.5477,-2.5477,-2.5477,-2.5488,-2.5479,-2.5479,-2.5479,-2.5473,-2.5473,-2.5473,-2.5479,-2.5479,-2.5484,-2.5551,-2.5661,-2.5662,-2.5662,-2.5662,-2.5683,-2.5658,-2.5567,-2.5564,-2.5543,-2.5477,-2.5477,-2.5477,-2.5477,-2.5477,-2.5463,-0.9706,-0.9717,-0.9751,-0.9998,-1.1134,-1.2206,-1.2308,0.0,0.0,0.0,0.0,0.0,0.0,-1.5672,-1.6063,0.0,0.0,-1.928,0.0,0.0,-2.1916,-2.1151,-2.2569,-2.3397,-2.2874,-2.4014,-2.4775,-2.4804,-2.5072,-2.5264,-2.5303,-2.5303,-2.4986,-2.4322,-2.4283,-2.3937,-2.3197,-2.3802,-2.3725,-2.2985,-2.212,-2.166,-2.1565,-2.0824,-2.0463,-2.0379,-2.0243,-1.9899,-1.9366,-1.9251,-1.8366,-1.7168,-1.791,-1.7732,-1.7269,-1.8672,-1.882,-1.8395,-1.9146,-1.9887,-2.051,-2.0444,-2.0432,-2.0429,-2.0422,-2.0422,-2.0391,-2.0342,-2.1109,-2.2068,-2.2751,-2.3644,-2.4561,-2.5176,-2.5322,-2.5313,-2.5293,-2.5303,-2.5322,-2.5313,-2.5312,-2.533,-2.533,-2.533,-2.533,-2.533,-2.5376,-2.5415,-2.5415,-2.5415,-2.5408,-2.542,-2.5427,-2.5415,-2.5415,-2.5477,-2.5517,-2.5535,-2.5539,-2.5539,-2.5539,-2.5593,-2.5558,-2.5434,-2.5434,-2.5406,-2.533,-2.533,-2.533,-2.533,-2.533,-2.5363,-0.9739,-0.9721,-0.9773,-1.0088,-1.1167,-1.2271,-1.2734,0.0,0.0,0.0,0.0,0.0,0.0,0.0,-1.6899,-1.8663,0.0,-2.0949,-2.1571,-2.199,-2.2173,-2.2037,-2.2885,-2.3511,-2.3621,-2.4403,-2.4917,-2.4917,-2.516,-2.5303,-2.5303,-2.4889,-2.4485,-2.411,-2.3681,-2.303,-2.2161,-2.2578,-2.2578,-2.2142,-2.1273,-2.0895,-2.0949,-2.0577,-2.0429,-2.0408,-1.9453,-1.9138,-1.9175,-1.8249,-1.7399,-1.6734,-1.7144,-1.701,-1.6749,-1.7998,-1.8493,-1.8613,-1.9048,-1.9747,-2.0438,-2.0418,-2.041,-2.0383,-2.0352,-2.0342,-2.0316,-2.0169,-2.0875,-2.1723,-2.206,-2.3058,-2.4072,-2.4405,-2.4778,-2.5043,-2.5043,-2.5043,-2.5049,-2.513,-2.5141,-2.5163,-2.5274,-2.5303,-2.5303,-2.5303,-2.5321,-2.5357,-2.5357,-2.5357,-2.5357,-2.5348,-2.5357,-2.5357,-2.5357,-2.5368,-2.5421,-2.5508,-2.5493,-2.5493,-2.5493,-2.5535,-2.5508,-2.5406,-2.5406,-2.5371,-2.5303,-2.5303,-2.5303,-2.5303,-2.5303,-2.5322,-0.9758,-0.9743,-0.981,-1.015,-1.1095,-1.2239,-1.332,0.0,0.0,0.0,0.0,0.0,0.0,-1.6511,0.0,-2.1006,-2.1891,-2.2436,-2.3088,-2.2739,-2.2627,-2.3162,-2.343,-2.3838,-2.4503,-2.4831,-2.4915,-2.4732,-2.4905,-2.4928,-2.4736,-2.412,-2.3715,-2.3529,-2.2924,-2.2172,-2.1318,-2.1177,-2.108,-2.1008,-2.033,-1.9939,-1.9821,-2.0087,-2.008,-1.9851,-1.8722,-1.8396,-1.8594,-1.7242,-1.6582,-1.6391,-1.6391,-1.6431,-1.6571,-1.7248,-1.8178,-1.9104,-1.9143,-1.9686,-2.0385,-2.0371,-2.0386,-2.0357,-2.0257,-2.023,-2.0203,-2.0003,-2.0544,-2.1201,-2.1376,-2.2418,-2.3491,-2.3681,-2.4276,-2.4804,-2.4804,-2.4804,-2.4828,-2.4924,-2.4949,-2.5005,-2.516,-2.5203,-2.5224,-2.5224,-2.5264,-2.5303,-2.5303,-2.5303,-2.5303,-2.5303,-2.5303,-2.5303,-2.5303,-2.5303,-2.5329,-2.5453,-2.5477,-2.5477,-2.5459,-2.5477,-2.5447,-2.5387,-2.5379,-2.5337,-2.5303,-2.5303,-2.5303,-2.5303,-2.5303,-2.5303,-0.9713,-0.9747,-0.9796,-0.9758,-1.0658,0.0,-1.3666,-1.5019,0.0,-1.7357,0.0,0.0,0.0,-1.786,-1.9237,-2.1649,-2.25,-2.3015,-2.3578,-2.4026,-2.4206,-2.3952,-2.4208,-2.4503,-2.4741,-2.4898,-2.4693,-2.395,-2.4071,-2.3841,-2.3024,-2.2928,-2.2546,-2.1804,-2.1714,-2.131,-2.05,-1.9698,-1.9286,-1.9282,-1.9227,-1.8802,-1.812,-1.8923,-1.8897,-1.8222,-1.8906,-1.832,-1.6875,-1.6758,-1.6229,-1.5492,-1.5492,-1.5902,-1.6508,-1.6559,-1.7663,-1.9087,-1.904,-1.9587,-2.0307,-2.0299,-2.0308,-2.0273,-2.0068,-2.0021,-1.9984,-1.9858,-1.9862,-2.0112,-2.0918,-2.1771,-2.2595,-2.3339,-2.4176,-2.4804,-2.4804,-2.4804,-2.4804,-2.4818,-2.4799,-2.4818,-2.4832,-2.4943,-2.5022,-2.5022,-2.5173,-2.5303,-2.5303,-2.5303,-2.5303,-2.5303,-2.5303,-2.5303,-2.5303,-2.5303,-2.5293,-2.5313,-2.5379,-2.5387,-2.5322,-2.5379,-2.5379,-2.5303,-2.5303,-2.5293,-2.5303,-2.5303,-2.5303,-2.5303,-2.5303,-2.5303,-0.9768,-1.0051,-1.027,-0.9869,0.0,0.0,0.0,0.0,-1.5993,-1.6402,-1.7606,0.0,0.0,0.0,-2.0662,-2.1627,-2.2558,-2.3425,-2.4275,-2.4572,-2.4448,-2.3758,-2.3921,-2.3871,-2.3411,-2.3537,-2.3505,-2.3199,-2.3246,-2.3174,-2.2883,-2.2349,-2.192,-2.1667,-2.0655,-1.9961,-1.9668,-1.8828,-1.8132,-1.7604,-1.8113,-1.8219,-1.7985,-1.8864,-1.8807,-1.8027,-1.8359,-1.7812,-1.6654,-1.6127,-1.568,-1.5329,-1.5207,-1.5314,-1.5626,-1.6187,-1.714,-1.8259,-1.8811,-1.9496,-2.0118,-2.0105,-2.006,-1.9962,-1.989,-1.988,-1.9847,-1.9701,-1.9669,-1.9882,-2.0803,-2.1567,-2.2331,-2.3116,-2.3896,-2.4428,-2.4428,-2.4428,-2.4461,-2.4575,-2.4607,-2.4654,-2.4775,-2.4842,-2.4883,-2.4883,-2.5005,-2.5111,-2.5111,-2.5224,-2.5303,-2.5303,-2.5303,-2.5303,-2.5303,-2.5303,-2.5303,-2.5303,-2.5312,-2.534,-2.5313,-2.5312,-2.5331,-2.5303,-2.5303,-2.5303,-2.5303,-2.5303,-2.5303,-2.5303,-2.5303,-2.5303,-0.9863,-1.015,-1.0418,0.0,0.0,0.0,0.0,0.0,-1.6098,-1.6841,-1.7809,0.0,-1.9847,0.0,0.0,-2.1801,-2.297,-2.3907,-2.4341,-2.4449,-2.425,-2.3669,-2.3467,-2.3179,-2.2649,-2.247,-2.2274,-2.2023,-2.1779,-2.1528,-2.1301,-2.0726,-2.042,-2.0499,-1.94,-1.8791,-1.8818,-1.8007,-1.7285,-1.6699,-1.6987,-1.7124,-1.7207,-1.8086,-1.8008,-1.7187,-1.746,-1.7104,-1.6234,-1.5621,-1.5326,-1.5255,-1.535,-1.5358,-1.5486,-1.658,-1.7367,-1.8013,-1.8941,-1.9545,-1.9943,-1.9943,-1.988,-1.9778,-1.975,-1.9738,-1.9701,-1.9536,-1.9685,-2.0103,-2.1013,-2.1593,-2.2152,-2.295,-2.3676,-2.419,-2.419,-2.419,-2.4247,-2.4375,-2.441,-2.4444,-2.4594,-2.4654,-2.47,-2.47,-2.4836,-2.4943,-2.4943,-2.5061,-2.516,-2.5203,-2.5264,-2.5303,-2.5303,-2.5303,-2.5303,-2.5303,-2.5303,-2.5303,-2.5303,-2.5303,-2.5303,-2.5303,-2.5303,-2.5303,-2.5303,-2.5303,-2.5303,-2.5303,-2.5303,-2.5303,-0.9971,-0.9991,-1.0114,0.0,0.0,0.0,0.0,-1.5855,-1.6818,-1.9287,0.0,-1.9377,-2.2505,-2.1001,0.0,-2.2225,-2.3815,-2.4469,-2.3606,-2.367,-2.3797,-2.3778,-2.3004,-2.2543,-2.2746,-2.1985,-2.1139,-2.035,-1.9529,-1.8703,-1.7852,-1.7795,-1.7826,-1.7907,-1.7888,-1.792,-1.7988,-1.7129,-1.6699,-1.668,-1.5801,-1.5391,-1.543,-1.6309,-1.6211,-1.5449,-1.632,-1.6215,-1.5392,-1.5329,-1.5218,-1.5177,-1.5903,-1.6156,-1.629,-1.7909,-1.8512,-1.8625,-1.9496,-1.9809,-1.9809,-1.9809,-1.9809,-1.9774,-1.9649,-1.9601,-1.9555,-1.935,-1.9877,-2.0704,-2.1565,-2.1785,-2.2006,-2.2832,-2.3621,-2.419,-2.419,-2.419,-2.419,-2.419,-2.419,-2.419,-2.419,-2.4357,-2.4495,-2.4495,-2.467,-2.4804,-2.4804,-2.4804,-2.4855,-2.4986,-2.5192,-2.5303,-2.5303,-2.5303,-2.5303,-2.5303,-2.5303,-2.5303,-2.5303,-2.5303,-2.5303,-2.5303,-2.5303,-2.5303,-2.5303,-2.5303,-2.5303,-2.5303,-2.5303,-2.5303,-0.933,-0.9355,0.0,0.0,0.0,0.0,0.0,-1.5229,0.0,0.0,-1.9883,-2.0518,-2.0311,-2.0723,-2.1171,-2.1493,-2.1902,-2.2381,-2.2936,-2.3055,-2.2873,-2.2249,-2.1444,-2.0751,-2.0177,-1.9338,-1.8756,-1.8551,-1.8324,-1.8087,-1.7874,-1.7866,-1.7907,-1.7967,-1.7381,-1.7069,-1.709,-1.6211,-1.5781,-1.5781,-1.5527,-1.5391,-1.543,-1.6309,-1.6229,-1.5441,-1.6315,-1.6176,-1.5319,-1.5163,-1.5063,-1.5085,-1.5734,-1.5982,-1.6156,-1.7824,-1.8434,-1.8558,-1.9473,-1.9738,-1.9656,-1.9656,-1.9559,-1.9434,-1.9394,-1.938,-1.9353,-1.915,-1.963,-2.0409,-2.1279,-2.1915,-2.2552,-2.3601,-2.4025,-2.419,-2.419,-2.419,-2.419,-2.419,-2.419,-2.419,-2.419,-2.4247,-2.4284,-2.4284,-2.4461,-2.4639,-2.479,-2.4804,-2.4818,-2.4855,-2.491,-2.4987,-2.5077,-2.5088,-2.5152,-2.5284,-2.5303,-2.5303,-2.5303,-2.5303,-2.5303,-2.5303,-2.5303,-2.5303,-2.5303,-2.5303,-2.5303,-2.5303,-2.5303,-2.5303,-0.9061,0.0,0.0,0.0,0.0,-1.36,-1.4569,0.0,0.0,0.0,-2.068,-2.1298,-2.0916,-2.1164,-2.1373,-2.1271,-2.1491,-2.179,-2.2209,-2.2004,-2.162,-2.11,-1.9985,-1.9076,-1.8564,-1.7722,-1.725,-1.7326,-1.7023,-1.6866,-1.6893,-1.6902,-1.693,-1.6973,-1.6465,-1.6172,-1.6172,-1.5664,-1.5391,-1.5391,-1.5409,-1.5409,-1.543,-1.5936,-1.5893,-1.5433,-1.5921,-1.5784,-1.5174,-1.5056,-1.5144,-1.5422,-1.6119,-1.6527,-1.6941,-1.8276,-1.8758,-1.8827,-1.9417,-1.9545,-1.9485,-1.9485,-1.9394,-1.9274,-1.9214,-1.9182,-1.9188,-1.9273,-1.9826,-2.0614,-2.1422,-2.221,-2.3013,-2.3984,-2.419,-2.419,-2.419,-2.419,-2.419,-2.419,-2.419,-2.419,-2.419,-2.419,-2.419,-2.419,-2.4303,-2.4409,-2.4561,-2.4623,-2.4685,-2.4685,-2.476,-2.496,-2.5359,-2.5152,-2.5187,-2.5631,-2.5426,-2.5303,-2.5303,-2.5303,-2.5303,-2.5303,-2.5214,-2.5173,-2.5173,-2.5138,-2.5103,-2.5103,-2.5103,-2.5103,-0.9025,0.0,0.0,0.0,0.0,0.0,-1.6993,-1.8457,-1.9653,-2.0789,0.0,-2.1735,-2.2943,-2.1812,-2.0853,-2.1291,-2.1799,-2.1941,-2.1257,-2.06,-2.0158,-2.0081,-1.8607,-1.7619,-1.7672,-1.69,-1.6428,-1.649,-1.5808,-1.5395,-1.5397,-1.5408,-1.5391,-1.5391,-1.5391,-1.5391,-1.5391,-1.5391,-1.539,-1.539,-1.5402,-1.5403,-1.539,-1.5381,-1.5391,-1.5385,-1.5311,-1.5174,-1.4995,-1.4973,-1.5347,-1.5979,-1.6773,-1.7501,-1.8207,-1.8996,-1.9305,-1.9305,-1.9305,-1.9289,-1.9274,-1.9289,-1.9274,-1.9212,-1.9052,-1.902,-1.9147,-1.9542,-2.0276,-2.111,-2.1789,-2.2553,-2.3323,-2.3976,-2.4113,-2.4113,-2.4113,-2.4113,-2.4113,-2.4151,-2.4151,-2.417,-2.419,-2.419,-2.419,-2.419,-2.419,-2.419,-2.419,-2.4357,-2.4478,-2.4478,-2.4639,-2.5047,-2.5803,-2.5294,-2.5266,-2.6021,-2.5551,-2.5253,-2.5253,-2.5264,-2.5274,-2.5274,-2.5077,-2.4986,-2.4986,-2.4869,-2.4804,-2.4804,-2.4804,-2.4804,0.0,-0.8562,0.0,0.0,0.0,-1.5599,-1.7266,-1.8662,-1.9326,-1.8379,-2.0136,-2.1584,-2.0743,-2.0224,-2.0031,-2.0278,-1.9898,-1.9334,-1.8624,-1.8965,-1.9035,-1.833,-1.7368,-1.6769,-1.6779,-1.6033,-1.5588,-1.5656,-1.5508,-1.5401,-1.5409,-1.539,-1.5391,-1.5391,-1.5391,-1.5391,-1.5391,-1.5406,-1.5401,-1.5401,-1.5397,-1.5397,-1.54,-1.536,-1.5329,-1.5307,-1.5143,-1.5049,-1.498,-1.483,-1.5214,-1.5967,-1.6682,-1.7426,-1.8207,-1.8996,-1.9305,-1.9305,-1.9305,-1.9198,-1.9102,-1.9243,-1.9048,-1.8789,-1.8949,-1.9254,-1.9542,-1.9433,-2.0333,-2.1427,-2.1631,-2.2223,-2.2923,-2.3323,-2.3414,-2.3414,-2.3414,-2.3414,-2.3482,-2.3774,-2.3816,-2.3896,-2.4151,-2.419,-2.419,-2.419,-2.419,-2.419,-2.419,-2.4247,-2.4247,-2.4247,-2.4303,-2.4467,-2.4787,-2.4685,-2.4742,-2.5092,-2.4983,-2.4915,-2.4915,-2.5005,-2.5057,-2.5057,-2.4917,-2.4842,-2.4842,-2.4799,-2.4804,-2.4804,-2.4804,-2.4804,0.0,0.0,0.0,0.0,0.0,0.0,-1.6675,-1.7572,-1.799,-1.7151,-1.9662,-2.1544,-2.0028,-1.9798,-1.9644,-1.9,-1.8546,-1.8137,-1.7747,-1.7753,-1.7632,-1.7169,-1.6416,-1.578,-1.5394,-1.4971,-1.4742,-1.4761,-1.4429,-1.4549,-1.5352,-1.5,-1.4961,-1.5391,-1.5391,-1.539,-1.5406,-1.54,-1.5389,-1.5358,-1.5343,-1.5342,-1.5303,-1.5307,-1.5249,-1.5143,-1.5056,-1.4962,-1.4856,-1.4747,-1.5362,-1.6417,-1.6751,-1.7624,-1.872,-1.9143,-1.9246,-1.915,-1.915,-1.9102,-1.9001,-1.8982,-1.8895,-1.877,-1.8642,-1.9037,-1.9534,-1.9608,-2.0472,-2.1447,-2.1832,-2.2209,-2.2554,-2.2721,-2.2989,-2.3189,-2.3189,-2.3189,-2.3236,-2.3414,-2.3459,-2.3522,-2.3692,-2.3714,-2.3714,-2.3714,-2.3714,-2.3774,-2.3937,-2.3976,-2.4016,-2.417,-2.419,-2.4394,-2.4894,-2.4667,-2.4713,-2.5185,-2.4972,-2.4804,-2.4804,-2.4766,-2.4823,-2.4904,-2.4741,-2.4654,-2.4654,-2.4561,-2.4512,-2.4512,-2.4512,-2.4512,0.0,0.0,0.0,0.0,0.0,0.0,-1.5558,-1.6063,-1.6476,-1.6602,-1.9066,-2.0793,-1.9512,-1.9349,-1.8981,-1.7701,-1.7484,-1.7446,-1.7292,-1.6811,-1.6457,-1.6314,-1.5713,-1.4976,-1.4178,-1.4108,-1.4095,-1.4101,-1.3359,-1.3574,-1.5098,-1.4492,-1.4434,-1.5156,-1.5312,-1.5408,-1.5394,-1.5391,-1.5358,-1.5303,-1.5303,-1.527,-1.5218,-1.5256,-1.5183,-1.5035,-1.4999,-1.489,-1.4737,-1.4687,-1.5542,-1.6908,-1.6908,-1.7894,-1.9289,-1.9259,-1.9134,-1.8984,-1.8949,-1.8896,-1.8825,-1.8659,-1.8768,-1.8911,-1.8502,-1.8957,-1.9711,-2.0094,-2.0788,-2.1515,-2.2141,-2.231,-2.231,-2.231,-2.2686,-2.3038,-2.3038,-2.3038,-2.3063,-2.3093,-2.3165,-2.3189,-2.3189,-2.3189,-2.3189,-2.3189,-2.3189,-2.33,-2.3566,-2.361,-2.3735,-2.4074,-2.4113,-2.4408,-2.5126,-2.4746,-2.4724,-2.5393,-2.4965,-2.47,-2.47,-2.4545,-2.4528,-2.47,-2.4545,-2.4444,-2.4444,-2.4284,-2.419,-2.419,-2.419,-2.419,0.0,0.0,0.0,0.0,0.0,-1.3345,0.0,0.0,-1.5997,0.0,-1.7386,-1.7864,-1.7658,-1.7248,-1.6906,-1.6696,-1.6657,-1.6407,-1.5638,-1.6099,-1.6245,-1.5545,-1.5361,-1.4971,-1.418,-1.4097,-1.4101,-1.4102,-1.3359,-1.3301,-1.4219,-1.416,-1.4141,-1.4277,-1.5019,-1.5408,-1.5394,-1.5336,-1.5303,-1.5291,-1.5302,-1.5293,-1.5284,-1.5187,-1.5149,-1.5171,-1.4992,-1.4913,-1.4859,-1.4614,-1.5466,-1.6908,-1.6908,-1.7894,-1.9274,-1.9101,-1.9018,-1.8966,-1.8734,-1.8508,-1.833,-1.8528,-1.8746,-1.8933,-1.9112,-1.999,-2.0942,-2.1017,-2.1583,-2.2192,-2.2276,-2.231,-2.231,-2.231,-2.2349,-2.2415,-2.2415,-2.2415,-2.2508,-2.2738,-2.2996,-2.3189,-2.3189,-2.3189,-2.3189,-2.3189,-2.3189,-2.323,-2.3259,-2.3277,-2.3392,-2.3735,-2.3774,-2.3933,-2.4317,-2.4301,-2.4302,-2.4394,-2.4302,-2.4284,-2.4284,-2.4247,-2.4247,-2.4284,-2.4247,-2.4247,-2.4247,-2.4209,-2.419,-2.419,-2.419,-2.419,-0.9234,0.0,0.0,0.0,0.0,-1.1842,-1.2238,0.0,-1.3623,-1.3932,-1.4294,-1.4846,-1.5834,-1.5883,-1.5465,-1.4528,-1.4753,-1.4901,-1.4536,-1.5209,-1.5645,-1.5334,-1.4873,-1.4279,-1.3491,-1.2988,-1.2695,-1.2695,-1.1914,-1.2012,-1.3359,-1.2969,-1.3125,-1.4062,-1.447,-1.4891,-1.5336,-1.53,-1.5287,-1.5245,-1.5245,-1.5204,-1.5126,-1.5069,-1.5035,-1.5015,-1.4859,-1.4747,-1.4674,-1.4545,-1.5441,-1.6908,-1.6908,-1.7808,-1.9117,-1.9035,-1.8807,-1.8528,-1.841,-1.829,-1.8256,-1.8629,-1.8925,-1.9195,-1.9576,-2.0399,-2.1204,-2.1204,-2.1735,-2.231,-2.231,-2.231,-2.231,-2.231,-2.231,-2.231,-2.231,-2.231,-2.2321,-2.2436,-2.2581,-2.2686,-2.2686,-2.2686,-2.2686,-2.2686,-2.2686,-2.2747,-2.2898,-2.2923,-2.3045,-2.3392,-2.3414,-2.3477,-2.3628,-2.3816,-2.3917,-2.3917,-2.4094,-2.419,-2.419,-2.419,-2.419,-2.419,-2.419,-2.419,-2.419,-2.4649,-2.4869,-2.4869,-2.5328,-2.5291,0.0,0.0,0.0,0.0,-1.0105,-1.0467,0.0,0.0,-1.1582,-1.1812,-1.2123,-1.2723,-1.3847,-1.4348,-1.4157,-1.2892,-1.3387,-1.3824,-1.3613,-1.4516,-1.5071,-1.4704,-1.4279,-1.3619,-1.2656,-1.1973,-1.1602,-1.1602,-1.0781,-1.0957,-1.248,-1.1953,-1.2265,-1.3729,-1.3975,-1.4481,-1.5281,-1.5287,-1.522,-1.5146,-1.5146,-1.5082,-1.497,-1.4946,-1.4909,-1.4832,-1.4747,-1.4645,-1.4574,-1.4731,-1.5625,-1.6913,-1.7055,-1.7884,-1.8984,-1.8861,-1.8547,-1.8187,-1.8125,-1.822,-1.8439,-1.8778,-1.9314,-1.9842,-2.0196,-2.0856,-2.1465,-2.1465,-2.187,-2.231,-2.231,-2.231,-2.231,-2.231,-2.231,-2.231,-2.231,-2.231,-2.231,-2.231,-2.231,-2.231,-2.231,-2.231,-2.231,-2.231,-2.231,-2.236,-2.2573,-2.2599,-2.2712,-2.3045,-2.3069,-2.3117,-2.3189,-2.3414,-2.3566,-2.3566,-2.3896,-2.4165,-2.4366,-2.4444,-2.4593,-2.4814,-2.4814,-2.4704,-2.4502,-2.5309,-2.5695,-2.5713,-2.6319,-2.6282,0.0,0.0,0.0,0.0,0.0,0.0,0.0,0.0,-1.0992,-1.1818,-1.2159,-1.2143,-1.1588,-1.2223,-1.2796,-1.27,-1.3387,-1.3632,-1.2873,-1.4176,-1.4642,-1.3106,-1.3559,-1.3383,-1.1816,-1.1621,-1.1602,-1.1602,-1.0781,-1.0703,-1.1621,-1.1621,-1.199,-1.2835,-1.3674,-1.4489,-1.5287,-1.524,-1.514,-1.5021,-1.5021,-1.4962,-1.4904,-1.4757,-1.4708,-1.4717,-1.4688,-1.4707,-1.4743,-1.5367,-1.6151,-1.6936,-1.7457,-1.8208,-1.8931,-1.843,-1.8229,-1.8166,-1.7905,-1.8291,-1.8866,-1.8877,-1.99,-2.1102,-2.1136,-2.1651,-2.2243,-2.2243,-2.2276,-2.231,-2.231,-2.231,-2.231,-2.231,-2.231,-2.231,-2.231,-2.231,-2.231,-2.231,-2.231,-2.231,-2.231,-2.231,-2.231,-2.231,-2.231,-2.231,-2.2338,-2.2321,-2.2426,-2.2712,-2.2721,-2.2848,-2.3165,-2.323,-2.323,-2.323,-2.3544,-2.4057,-2.4834,-2.5168,-2.5695,-2.6465,-2.6484,-2.6098,-2.5348,-2.6153,-2.6539,-2.6539,-2.6594,-2.6594,0.0,0.0,0.0,-0.9043,-0.9272,-0.9527,-0.957,-0.9817,-1.0144,-1.0458,-1.0613,-1.063,-1.0444,-1.116,-1.1815,-1.1868,-1.2584,-1.3214,-1.344,-1.4459,-1.4796,-1.3703,-1.3337,-1.2758,-1.1699,-1.1094,-1.0762,-1.0762,-1.0488,-1.0449,-1.0742,-1.0762,-1.1132,-1.1943,-1.2762,-1.3862,-1.5215,-1.512,-1.5042,-1.4995,-1.4965,-1.4885,-1.4776,-1.4727,-1.4656,-1.4578,-1.4578,-1.4578,-1.4633,-1.5386,-1.6169,-1.6936,-1.7493,-1.8125,-1.8697,-1.833,-1.8392,-1.8643,-1.8551,-1.8995,-1.9705,-2.0196,-2.0737,-2.1305,-2.1752,-2.209,-2.231,-2.231,-2.231,-2.231,-2.231,-2.231,-2.2209,-2.1928,-2.2077,-2.2209,-2.1928,-2.2106,-2.231,-2.231,-2.231,-2.231,-2.231,-2.231,-2.231,-2.231,-2.231,-2.2479,-2.2953,-2.2598,-2.2536,-2.3102,-2.2726,-2.249,-2.2624,-2.2764,-2.2873,-2.2873,-2.3189,-2.3725,-2.4486,-2.4883,-2.5348,-2.5864,-2.6609,-2.6727,-2.6172,-2.6979,-2.7365,-2.7365,-2.7365,-2.7365,-0.9774,0.0,0.0,0.0,0.0,-0.961,-0.9438,-0.9546,-0.9652,-0.9602,-0.9703,-0.9819,-0.9881,-1.0426,-1.0981,-1.1344,-1.2122,-1.2892,-1.3426,-1.4505,-1.4724,-1.3331,-1.2917,-1.2317,-1.1269,-1.0645,-1.0293,-1.0293,-1.0293,-1.0293,-1.0293,-1.0273,-1.0775,-1.1864,-1.2675,-1.3777,-1.5195,-1.5101,-1.5028,-1.4981,-1.4919,-1.4804,-1.4635,-1.4635,-1.4571,-1.4488,-1.4488,-1.4653,-1.4976,-1.5766,-1.652,-1.722,-1.7779,-1.8199,-1.8465,-1.8443,-1.8614,-1.8927,-1.9181,-1.9773,-2.05,-2.1034,-2.1363,-2.1651,-2.2158,-2.231,-2.231,-2.231,-2.231,-2.231,-2.231,-2.231,-2.2209,-2.1899,-2.2061,-2.2209,-2.1899,-2.2077,-2.231,-2.231,-2.231,-2.231,-2.231,-2.231,-2.231,-2.231,-2.231,-2.2581,-2.3308,-2.2767,-2.2581,-2.3325,-2.275,-2.231,-2.231,-2.2685,-2.2924,-2.2924,-2.3467,-2.4137,-2.4901,-2.5298,-2.5765,-2.6286,-2.7049,-2.7299,-2.7048,-2.7692,-2.7994,-2.7994,-2.7852,-2.7658,0.0,0.0,0.0,0.0,0.0,0.0,-0.927,0.0,-0.9568,-0.9468,-0.9639,-0.9819,-0.9925,-0.9979,-1.0302,-1.1282,-1.2161,-1.2719,-1.2777,-1.4202,-1.4322,-1.1837,-1.2255,-1.2117,-1.0469,-1.0293,-1.0293,-1.0293,-1.0293,-1.0293,-1.0293,-1.0231,-1.0964,-1.261,-1.3446,-1.4286,-1.5151,-1.5189,-1.5087,-1.4895,-1.4895,-1.4765,-1.4488,-1.4488,-1.4488,-1.4488,-1.4524,-1.4995,-1.5771,-1.6578,-1.7202,-1.7761,-1.8359,-1.843,-1.827,-1.8739,-1.891,-1.9046,-1.9765,-2.0568,-2.1237,-2.1237,-2.1718,-2.231,-2.231,-2.231,-2.231,-2.231,-2.231,-2.231,-2.231,-2.231,-2.2282,-2.2282,-2.2282,-2.2282,-2.2254,-2.2254,-2.2282,-2.2282,-2.231,-2.231,-2.231,-2.231,-2.2282,-2.2282,-2.2282,-2.2535,-2.3262,-2.2721,-2.2552,-2.3279,-2.2704,-2.2282,-2.2282,-2.2924,-2.3376,-2.3393,-2.4391,-2.5334,-2.616,-2.6514,-2.7063,-2.7851,-2.7869,-2.7869,-2.7869,-2.821,-2.8394,-2.8376,-2.7994,-2.7361,-1.0114,0.0,0.0,0.0,0.0,0.0,-1.0063,-0.9817,-0.9723,-1.0419,-1.0048,-0.9871,-1.0815,-1.0439,-1.0486,-1.1962,-1.2486,-1.3123,-1.4349,-1.4415,-1.3865,-1.2529,-1.2074,-1.1453,-1.0391,-1.0293,-1.0293,-1.0293,-1.0293,-1.0293,-1.0293,-1.0242,-1.0673,-1.1721,-1.2588,-1.3399,-1.4182,-1.4762,-1.4946,-1.4756,-1.4756,-1.4666,-1.4488,-1.4488,-1.4488,-1.4524,-1.5123,-1.5713,-1.6287,-1.6522,-1.7049,-1.7745,-1.8136,-1.827,-1.827,-1.8739,-1.9249,-1.9799,-2.0602,-2.1363,-2.2006,-2.2006,-2.2141,-2.231,-2.231,-2.231,-2.231,-2.231,-2.231,-2.231,-2.231,-2.231,-2.2152,-2.1524,-2.1568,-2.1628,-2.1007,-2.1118,-2.1554,-2.218,-2.231,-2.231,-2.231,-2.231,-2.218,-2.1823,-2.1794,-2.1953,-2.241,-2.1824,-2.163,-2.2394,-2.1808,-2.1493,-2.1764,-2.1976,-2.2475,-2.3329,-2.3697,-2.4437,-2.57,-2.6117,-2.6571,-2.7002,-2.7334,-2.7317,-2.7019,-2.7707,-2.802,-2.8047,-2.8178,-2.7496,0.0,0.0,0.0,0.0,0.0,0.0,-0.9839,-0.9898,-0.9958,-1.0131,-0.9602,-0.9097,-0.9043,-0.9347,-1.0116,-1.1596,-1.2209,-1.2997,-1.4451,-1.4289,-1.3681,-1.2803,-1.2339,-1.1617,-1.043,-1.0293,-1.0293,-1.0293,-1.0293,-1.0292,-1.0267,-1.0229,-1.0562,-1.137,-1.2251,-1.3059,-1.3831,-1.4661,-1.497,-1.4785,-1.4785,-1.4677,-1.4488,-1.4488,-1.4488,-1.4543,-1.5238,-1.5914,-1.6507,-1.6653,-1.7188,-1.7931,-1.8119,-1.8314,-1.8562,-1.9127,-1.9841,-2.0619,-2.138,-2.1938,-2.231,-2.231,-2.231,-2.231,-2.231,-2.231,-2.231,-2.231,-2.231,-2.2237,-2.2061,-2.2003,-2.184,-2.115,-2.1181,-2.1213,-2.0715,-2.0797,-2.1166,-2.1661,-2.1751,-2.1751,-2.1751,-2.1751,-2.1645,-2.1399,-2.1337,-2.1535,-2.2035,-2.1455,-2.1295,-2.2018,-2.1696,-2.1488,-2.1761,-2.2069,-2.2655,-2.3621,-2.3719,-2.4232,-2.539,-2.5866,-2.6218,-2.6401,-2.6824,-2.6939,-2.6691,-2.7317,-2.7549,-2.7391,-2.7959,-2.7521,0.0,0.0,0.0,0.0,-0.9518,0.0,-0.9167,-0.9733,-1.0068,-0.9244,-0.8646,-0.7867,-0.6478,-0.7797,-0.9486,-1.0671,-1.1462,-1.2381,-1.3672,-1.3946,-1.3683,-1.2812,-1.2744,-1.2109,-1.0469,-1.0293,-1.0293,-1.0293,-1.0293,-1.0267,-1.0193,-1.0191,-1.051,-1.1237,-1.2098,-1.2916,-1.372,-1.4589,-1.4964,-1.4859,-1.4877,-1.4755,-1.4488,-1.4476,-1.4519,-1.4617,-1.5175,-1.5849,-1.659,-1.697,-1.7544,-1.8187,-1.8166,-1.8459,-1.8995,-1.9714,-2.0517,-2.1322,-2.204,-2.231,-2.231,-2.231,-2.231,-2.231,-2.231,-2.231,-2.231,-2.231,-2.2254,-2.2135,-2.1718,-2.1552,-2.143,-2.1023,-2.0926,-2.0894,-2.0878,-2.0878,-2.0878,-2.0878,-2.0926,-2.0991,-2.0991,-2.0991,-2.0991,-2.0926,-2.0926,-2.115,-2.1756,-2.1276,-2.11,-2.1772,-2.1784,-2.1782,-2.1895,-2.2518,-2.3255,-2.4037,-2.4143,-2.4484,-2.5189,-2.5652,-2.5924,-2.5924,-2.6332,-2.6539,-2.6539,-2.7002,-2.6991,-2.6531,-2.7406,-2.7353,0.0,0.0,0.0,0.0,-0.9081,0.0,-0.9761,-0.9459,-0.9091,-0.9491,-0.7799,-0.6922,-0.9087,-0.9271,-0.9444,-1.0494,-1.0439,-1.1051,-1.3332,-1.3849,-1.3703,-1.2882,-1.2222,-1.1445,-1.0391,-1.0293,-1.0273,-1.021,-1.0218,-1.0217,-1.0202,-1.02,-1.0254,-1.0348,-1.1158,-1.1912,-1.2605,-1.3481,-1.4134,-1.4578,-1.4687,-1.4656,-1.4488,-1.432,-1.457,-1.518,-1.5826,-1.6395,-1.6967,-1.7671,-1.8049,-1.8166,-1.7971,-1.8297,-1.8995,-1.9714,-2.0517,-2.1322,-2.204,-2.231,-2.231,-2.231,-2.231,-2.231,-2.231,-2.231,-2.231,-2.231,-2.2032,-2.1718,-2.1612,-2.1368,-2.0991,-2.055,-2.0449,-2.0364,-2.0,-1.9945,-1.9945,-1.9945,-2.0499,-2.0991,-2.0991,-2.0991,-2.0862,-2.0483,-2.0449,-2.0376,-2.0183,-2.0021,-2.0005,-2.0162,-2.0142,-2.0482,-2.1361,-2.1568,-2.2357,-2.4005,-2.4122,-2.4463,-2.5189,-2.5297,-2.5335,-2.5335,-2.5449,-2.5486,-2.5486,-2.6368,-2.6302,-2.5379,-2.6782,-2.6678,0.0,0.0,0.0,-0.9142,-0.8761,0.0,0.0,-0.8733,-0.8404,-0.8948,-0.7845,-0.7281,-0.887,-0.8818,-0.879,-0.9496,-0.9457,-1.008,-1.2113,-1.2985,-1.3552,-1.4007,-1.2982,-1.1738,-1.043,-1.0293,-1.0272,-1.0215,-1.0195,-1.0193,-1.0197,-1.0194,-1.017,-1.0098,-1.1263,-1.2053,-1.2404,-1.3626,-1.4372,-1.4592,-1.4566,-1.4489,-1.4332,-1.4149,-1.4252,-1.4652,-1.5657,-1.6236,-1.654,-1.7555,-1.8014,-1.7992,-1.7839,-1.8488,-1.9502,-1.9849,-2.0754,-2.1803,-2.2175,-2.231,-2.231,-2.231,-2.2135,-2.2003,-2.2237,-2.231,-2.2237,-2.2032,-2.1794,-2.1491,-2.1054,-2.0813,-2.055,-2.0089,-2.0,-1.9945,-1.9747,-1.969,-1.9794,-2.0124,-2.0533,-2.0837,-2.0837,-2.0837,-2.0875,-2.0959,-2.0983,-2.0925,-2.0715,-2.0692,-2.0692,-2.0692,-2.0692,-2.1061,-2.1926,-2.1668,-2.2164,-2.3736,-2.356,-2.3708,-2.4358,-2.4657,-2.495,-2.5182,-2.5221,-2.5221,-2.5221,-2.5386,-2.5143,-2.4612,-2.5291,-2.5184,0.0,-1.0438,-0.9055,-0.8967,-0.8593,-0.8281,0.0,0.0,0.0,-0.8309,-0.8137,-0.7913,-0.794,-0.7969,-0.8149,-0.8591,-0.8653,-0.9056,-1.0287,-1.1425,-1.2714,-1.4321,-1.3359,-1.1969,-1.0428,-0.9902,-0.9529,-0.9232,-0.9831,-1.02,-1.0188,-1.0183,-1.0161,-1.0098,-1.1479,-1.2307,-1.2452,-1.3869,-1.4616,-1.4666,-1.446,-1.4302,-1.4188,-1.3955,-1.4,-1.4337,-1.5384,-1.6001,-1.636,-1.7369,-1.7811,-1.7811,-1.7811,-1.8684,-2.0002,-2.0002,-2.0964,-2.231,-2.231,-2.2237,-2.218,-2.218,-2.1899,-2.1658,-2.1945,-2.2106,-2.2077,-2.1628,-2.143,-2.1197,-2.0467,-2.0246,-2.0089,-1.9782,-1.969,-1.969,-1.969,-1.969,-1.9854,-2.0408,-2.0617,-2.0752,-2.0887,-2.0902,-2.1081,-2.162,-2.1695,-2.1695,-2.1695,-2.1695,-2.1695,-2.1695,-2.1695,-2.1964,-2.2664,-2.2188,-2.2383,-2.3535,-2.3131,-2.3071,-2.358,-2.4032,-2.4471,-2.4855,-2.4894,-2.4831,-2.472,-2.4062,-2.3824,-2.3991,-2.3829,-2.3687,-1.0243,-0.925,-0.8789,-0.9304,-0.8548,-0.7921,-0.8819,0.0,-0.7839,-0.8235,0.0,-0.8013,-0.8063,0.0,0.0,-0.8773,-0.8192,-0.77,-0.7803,-0.8911,-1.0198,-1.1518,-1.1489,-1.1076,-1.0289,-0.8434,-0.6836,-0.5761,-0.848,-1.0163,-1.011,-1.0106,-1.0102,-1.0094,-1.0857,-1.1601,-1.2328,-1.3086,-1.3827,-1.4522,-1.432,-1.4214,-1.4188,-1.3813,-1.4378,-1.5678,-1.5646,-1.638,-1.7596,-1.7743,-1.7811,-1.7811,-1.7811,-1.8684,-2.0002,-2.0002,-2.0964,-2.231,-2.231,-2.2032,-2.1688,-2.1688,-2.1642,-2.1521,-2.1244,-2.1415,-2.1582,-2.1181,-2.0781,-2.04,-2.0348,-2.0035,-1.9747,-1.9711,-1.969,-1.969,-1.969,-1.969,-1.9705,-1.9794,-2.0288,-2.0902,-2.1485,-2.159,-2.1605,-2.168,-2.1695,-2.1695,-2.1695,-2.1695,-2.1695,-2.1695,-2.1695,-2.1964,-2.2664,-2.2649,-2.2862,-2.355,-2.3535,-2.3535,-2.3595,-2.3681,-2.3724,-2.3794,-2.3794,-2.3522,-2.2964,-2.2299,-2.2416,-2.3231,-2.3275,-2.2923,-1.192,-1.1033,-1.0125,-0.925,-0.8848,-0.8464,-0.7799,-0.7649,-0.7665,-0.7753,0.0,0.0,0.0,0.0,0.0,0.0,-0.7148,-0.6645,-0.7666,-0.7735,-0.8342,-1.0175,-0.9624,-0.7837,-0.4594,-0.5053,-0.6083,-0.733,-0.8959,-0.9884,-0.9823,-0.9992,-1.0074,-1.0049,-1.1188,-1.1944,-1.2236,-1.3296,-1.3993,-1.432,-1.3997,-1.3838,-1.3838,-1.3605,-1.4076,-1.5117,-1.5448,-1.6187,-1.7185,-1.7625,-1.7811,-1.7845,-1.8268,-1.9096,-2.0052,-2.0517,-2.138,-2.2254,-2.2003,-2.1764,-2.1521,-2.1007,-2.1039,-2.1181,-2.0715,-2.091,-2.115,-2.0715,-2.0449,-2.0246,-2.0,-1.9854,-1.969,-1.969,-1.969,-1.969,-1.969,-2.0004,-2.0393,-2.0782,-2.1395,-2.2054,-2.2697,-2.2503,-2.2263,-2.2263,-2.2577,-2.2802,-2.2802,-2.2802,-2.2802,-2.2802,-2.2473,-2.2517,-2.3161,-2.2877,-2.2936,-2.3565,-2.3595,-2.3595,-2.3595,-2.3595,-2.3595,-2.3595,-2.3251,-2.2795,-2.2217,-2.1501,-2.1158,-2.1235,-2.1424,-2.1358,-1.3377,-1.2594,-1.1583,-1.0,-0.945,-0.8966,-0.7687,-0.7285,-0.7193,-0.7253,-0.7191,0.0,0.0,0.0,-0.6967,-0.7519,0.0,-0.6018,-0.7706,-0.7165,-0.7275,-0.9088,-0.8129,-0.5906,-0.2351,-0.4161,-0.6566,-0.8972,-0.9466,-0.9666,-0.9657,-0.9898,-1.0178,-1.0434,-1.1645,-1.2277,-1.2195,-1.3525,-1.4093,-1.3864,-1.3693,-1.3584,-1.3601,-1.3462,-1.3904,-1.4834,-1.5375,-1.612,-1.7033,-1.7591,-1.7811,-1.7873,-1.8706,-1.9437,-2.0086,-2.0889,-2.1596,-2.2061,-2.1718,-2.146,-2.1134,-2.0382,-2.0431,-2.0715,-2.0246,-2.0465,-2.0715,-2.0261,-2.0124,-2.007,-1.9782,-1.969,-1.969,-1.969,-1.969,-1.969,-1.969,-2.0228,-2.0857,-2.1335,-2.1964,-2.2503,-2.2757,-2.2877,-2.2936,-2.2936,-2.331,-2.3595,-2.3595,-2.3595,-2.3595,-2.3595,-2.3191,-2.3116,-2.3565,-2.3191,-2.3041,-2.3325,-2.289,-2.2789,-2.3052,-2.2922,-2.2878,-2.2878,-2.2438,-2.1857,-2.114,-2.0575,-1.9982,-1.9441,-1.9912,-2.0124,-1.3496,-1.2884,-1.2694,-1.2069,-1.0432,-0.9072,-0.934,-0.7721,-0.6293,-0.6809,-0.6667,-0.6537,-0.6858,-0.6709,0.0,0.0,0.0,0.0,0.0,-0.7154,-0.7189,-0.7962,-0.7166,-0.6672,-0.7036,-0.7634,-0.8359,-0.9224,-0.9492,-0.9662,-0.9781,-0.9862,-1.0419,-1.1516,-1.2034,-1.2277,-1.2195,-1.3525,-1.3822,-1.3034,-1.3429,-1.3584,-1.3601,-1.3462,-1.4192,-1.5561,-1.5595,-1.6424,-1.7777,-1.7794,-1.7811,-1.7901,-1.8956,-1.9641,-2.0086,-2.0889,-2.1396,-2.1612,-2.1628,-2.1054,-2.028,-1.9839,-2.0,-2.0246,-1.9839,-2.0,-2.0261,-1.9839,-1.9711,-1.9726,-1.9711,-1.969,-1.969,-1.969,-1.969,-1.969,-1.969,-2.0228,-2.0722,-2.0737,-2.1276,-2.153,-2.0917,-2.2338,-2.3565,-2.3565,-2.3595,-2.3595,-2.3595,-2.3595,-2.3595,-2.3595,-2.358,-2.358,-2.3595,-2.358,-2.3325,-2.2742,-2.1126,-2.0668,-2.1715,-2.1243,-2.0973,-2.0973,-2.0945,-2.0392,-1.9183,-1.9141,-1.8822,-1.8173,-1.9207,-1.9711,-1.4334,-1.4376,-1.4344,-1.2423,-1.1656,-1.0961,-0.94,-0.8648,-0.8154,-0.7723,-0.8004,-0.8109,-0.7484,-0.7291,0.0,0.0,0.0,0.0,0.0,-0.6544,-0.6488,-0.6593,-0.6554,-0.6249,-0.5647,-0.6066,-0.6833,-0.795,-0.876,-0.926,-0.9394,-0.9544,-1.0387,-1.2008,-1.1699,-1.1895,-1.2717,-1.3039,-1.3276,-1.3394,-1.3453,-1.3735,-1.4178,-1.3633,-1.448,-1.6309,-1.5798,-1.6441,-1.7811,-1.7811,-1.7937,-1.8211,-1.9065,-1.9628,-2.002,-2.0796,-2.1294,-2.1521,-2.0927,-2.0382,-1.9874,-1.9747,-1.9782,-1.9874,-1.9747,-1.9782,-1.9874,-1.9747,-1.969,-1.969,-1.969,-1.969,-1.969,-1.969,-1.969,-1.9809,-2.0273,-2.0887,-2.1485,-2.1934,-2.2517,-2.2892,-2.2667,-2.3161,-2.331,-2.2473,-2.3056,-2.3595,-2.3595,-2.3595,-2.3595,-2.3595,-2.3595,-2.3421,-2.3054,-2.2246,-2.1739,-2.1495,-2.0639,-2.0257,-2.0654,-2.048,-2.0392,-2.0392,-1.9932,-1.9525,-1.9078,-1.8673,-1.8358,-1.8189,-1.8498,-1.865,-1.5171,-1.5484,-1.5427,-1.3457,-1.2633,-1.1937,-1.0503,-0.9911,-0.9412,-0.8567,-0.8747,-0.8938,-0.856,-0.788,0.0,0.0,0.0,0.0,0.0,-0.6098,-0.5916,-0.5841,-0.5938,-0.5733,-0.5012,-0.5501,-0.6302,-0.7386,-0.8328,-0.8923,-0.9078,-0.9304,-1.0302,-1.2241,-1.1768,-1.1985,-1.2992,-1.3081,-1.3138,-1.3173,-1.3326,-1.365,-1.4107,-1.3887,-1.4699,-1.6309,-1.6069,-1.6678,-1.7789,-1.7681,-1.7738,-1.8002,-1.8707,-1.9196,-1.9665,-2.0655,-2.1055,-2.1039,-2.0314,-1.9909,-1.969,-1.969,-1.969,-1.969,-1.969,-1.969,-1.969,-1.969,-1.969,-1.969,-1.969,-1.969,-1.969,-1.969,-1.969,-1.9809,-2.0258,-2.1066,-2.1814,-2.2248,-2.2832,-2.3191,-2.2966,-2.2921,-2.2802,-2.2428,-2.3071,-2.3595,-2.3595,-2.3595,-2.3508,-2.329,-2.3465,-2.3377,-2.274,-2.1384,-2.0671,-2.0854,-1.9772,-1.9395,-1.998,-1.9624,-1.9427,-1.9427,-1.8932,-1.8396,-1.7862,-1.7342,-1.7046,-1.6942,-1.6927,-1.6915]},{"header":{"parameterUnit":"m.s-1","parameterCategory":1,"la1":30.6,"la2":29.2853,"lo1":-89.7004,"lo2":-87.6739,"dy":0.0162,"dx":0.0183,"nx":112,"ny":82,"refTime":"2023-06-30T00:00:00:Z","depth":0,"parameterNumber":3,"parameterNumberName":"V-component_of_WINDS"},"data":[0.0,0.0,0.0,0.0,0.0,0.0,0.0,0.0,0.0,0.0,0.0,0.0,0.0,0.0,0.0,0.0,0.0,0.0,0.0,0.0,0.0,0.0,0.0,0.0,0.0,0.0,0.0,0.0,0.0,0.0,0.0,0.0,0.0,0.0,0.0,0.0,0.0,0.0,0.0,0.0,0.0,0.0,0.0,0.0,0.0,0.0,0.0,0.0,0.0,0.0,0.0,0.0,0.0,0.0,0.0,0.0,0.0,0.0,0.0,0.0,0.0,0.0,0.0,0.0,0.0,0.0,0.0,0.0,0.0,0.0,0.0,0.0,0.0,0.0,0.0,0.0,0.0,0.0,0.0,0.0,0.0,0.0,0.0,0.0,0.0,0.0,0.0,0.0,0.0,0.0,-0.5755,-0.4878,-0.4207,-0.3526,-0.2756,-0.0674,0.2085,0.5603,0.0,0.0,0.0,0.0,0.0,0.0,0.0,0.0,0.0,0.0,0.0,0.0,0.0,0.0,0.0,0.0,0.0,0.0,0.0,0.0,0.0,0.0,0.0,0.0,0.0,0.0,0.0,0.0,0.0,0.0,0.0,0.0,0.0,0.0,0.0,0.0,0.0,0.0,0.0,0.0,0.0,0.0,0.0,0.0,0.0,0.0,0.0,0.0,0.0,0.0,0.0,0.0,0.0,0.0,0.0,0.0,0.0,0.0,0.0,0.0,0.0,0.0,0.0,0.0,0.0,0.0,0.0,0.0,0.0,0.0,0.0,0.0,0.0,0.0,0.0,0.0,0.0,0.0,0.0,0.0,0.0,0.0,0.0,0.0,0.0,0.0,0.0,0.0,0.0,0.0,0.0,0.0,0.0,0.0,0.0,0.0,0.0,0.0,0.0,0.0,0.0,0.0,0.0,0.0,-0.5916,-0.5656,-0.4627,-0.3738,-0.3156,-0.1434,0.1168,0.4832,0.0,0.0,0.0,0.0,0.0,0.0,0.0,0.0,0.0,0.0,0.0,0.0,0.0,0.0,0.0,0.0,0.0,0.0,0.0,0.0,0.0,0.0,0.0,0.0,0.0,0.0,0.0,0.0,0.0,0.0,0.0,0.0,0.0,0.0,0.0,0.0,0.0,0.0,0.0,0.0,0.0,0.0,0.0,0.0,0.0,0.0,0.0,0.0,0.0,0.0,0.0,0.0,0.0,0.0,0.0,0.0,0.0,0.0,0.0,0.0,0.0,0.0,0.0,0.0,0.0,0.0,0.0,0.0,0.0,0.0,0.0,0.0,0.0,0.0,0.0,0.0,0.0,0.0,0.0,0.0,0.0,0.0,0.0,0.0,0.0,0.0,0.0,0.0,0.0,0.0,0.0,0.0,0.0,0.0,0.0,0.0,0.0,0.0,0.0,0.0,0.0,0.0,0.0,-0.3496,-0.244,-0.5035,-0.4302,-0.3292,-0.2501,-0.1171,0.1342,0.5412,0.5582,0.0,0.0,0.0,0.0,0.0,0.0,0.0,0.0,0.0,0.0,0.0,0.0,0.0,0.0,0.0,0.0,0.0,0.0,0.0,0.0,0.0,0.0,0.0,0.0,0.0,0.0,0.0,0.0,0.0,0.0,0.0,0.0,0.0,0.0,0.0,0.0,0.0,0.0,0.0,0.0,0.0,0.0,0.0,0.0,0.0,0.0,0.0,0.0,0.0,0.0,0.0,0.0,0.0,0.0,0.0,0.0,0.0,0.0,0.0,0.0,0.0,0.0,0.0,0.0,0.0,0.0,0.0,0.0,0.0,0.0,0.0,0.0,0.0,0.0,0.0,0.0,0.0,0.0,0.0,0.0,0.0,0.0,0.0,0.0,0.0,0.0,0.0,0.0,0.0,0.0,0.0,0.0,0.0,0.0,0.0,0.0,0.0,0.0,0.0,0.0,0.0,0.0,-0.2249,-0.0647,-0.4001,-0.3602,-0.2738,-0.1829,-0.0325,0.2137,0.5795,0.5928,0.0,0.0,0.0,0.0,0.0,0.0,0.0,0.0,0.0,0.0,0.0,0.0,0.0,0.0,0.0,0.0,0.0,0.0,0.0,0.0,0.0,0.0,0.0,0.0,0.0,0.0,0.0,0.0,0.0,0.0,0.0,0.0,0.0,0.0,0.0,0.0,0.0,0.0,0.0,0.0,0.0,0.0,0.0,0.0,0.0,0.0,0.0,0.0,0.0,0.0,0.0,0.0,0.0,0.0,0.0,0.0,0.0,0.0,0.0,0.0,0.0,0.0,0.0,0.0,0.0,0.0,0.0,0.0,0.0,0.0,0.0,0.0,0.0,0.0,0.0,0.0,0.0,0.0,0.0,0.0,0.0,0.0,0.0,0.0,0.0,0.0,0.0,0.0,0.0,0.0,0.0,0.0,0.0,0.0,0.0,0.0,0.0,0.0,0.0,0.0,0.0,0.0,-0.545,-0.4106,-0.2889,-0.263,-0.2302,-0.1666,0.1138,0.3529,0.5089,0.6662,0.0,0.0,0.0,0.0,0.0,0.0,0.0,0.0,0.0,0.0,0.0,0.0,0.0,0.0,0.0,0.0,0.0,0.0,0.0,0.0,0.0,0.0,0.0,0.0,0.0,0.0,0.0,0.0,0.0,0.0,0.0,0.0,0.0,0.0,0.0,0.0,0.0,0.0,0.0,0.0,0.0,0.0,0.0,0.0,0.0,0.0,0.0,0.0,0.0,0.0,0.0,0.0,0.0,0.0,0.0,0.0,0.0,0.0,0.0,0.0,0.0,0.0,0.0,0.0,0.0,0.0,0.0,0.0,0.0,0.0,0.0,0.0,0.0,0.0,0.0,0.0,0.0,0.0,0.0,0.0,0.0,0.0,0.0,0.0,0.0,0.0,0.0,0.0,0.0,0.0,0.0,0.0,0.0,0.0,0.0,0.0,0.0,0.0,0.0,0.0,0.0,0.0,0.0176,0.21,-0.3555,-0.2225,-0.0843,-0.0619,0.0331,0.2411,0.5942,0.0,0.0,0.0,0.0,0.0,0.0,0.0,0.0,0.0,0.0,0.0,0.0,0.0,0.0,0.0,0.0,0.0,0.0,0.0,0.0,0.0,0.0,0.0,0.0,0.0,0.0,0.0,0.0,0.0,0.0,0.0,0.0,0.0,0.0,0.0,0.0,0.0,0.0,0.0,0.0,0.0,0.0,0.0,0.0,0.0,0.0,0.0,0.0,0.0,0.0,0.0,0.0,0.0,0.0,0.0,0.0,0.0,0.0,0.0,0.0,0.0,0.0,0.0,0.0,0.0,0.0,0.0,0.0,0.0,0.0,0.0,0.0,0.0,0.0,0.0,0.0,0.0,0.0,0.0,0.0,0.0,0.0,0.0,0.0,0.0,0.0,0.0,0.0,0.0,0.0,0.0,0.0,0.0,0.0,0.0,0.0,0.0,0.0,0.0,0.0,0.0,0.0,-0.4123,0.2231,0.4128,-0.2752,-0.1387,0.0,0.0,-0.0169,0.1439,0.5458,0.0,0.0,0.0,0.0,0.0,0.0,0.0,0.0,0.0,0.0,0.0,0.0,0.0,0.0,0.0,0.0,0.0,0.0,0.0,0.0,0.0,0.0,0.0,0.0,0.0,0.0,0.0,0.0,0.0,0.0,0.0,0.0,0.0,0.0,0.0,0.0,0.0,0.0,0.0,0.0,0.0,0.0,0.0,0.0,0.0,0.0,0.0,0.0,0.0,0.0,0.0,0.0,0.0,0.0,0.0,0.0,0.0,0.0,0.0,0.0,0.0,0.0,0.0,0.0,0.0,0.0,0.0,0.0,0.0,0.0,0.0,0.0,0.0,0.0,0.0,0.0,0.0,0.0,0.0,0.0,0.0,0.0,0.0,0.0,0.0,0.0,0.0,0.0,0.0,0.0,0.0,0.0,0.0,0.0,0.0,0.0,0.0,0.0,0.0,0.0,0.0,0.0,-0.296,-0.1074,0.0,0.0,0.0,0.0,0.0,0.0,0.098,0.0,0.0,0.0,0.0,0.0,0.0,0.0,0.0,0.0,0.0,0.0,0.0,0.0,0.0,0.0,0.0,0.0,0.0,0.0,0.0,0.0,0.0,0.0,0.0,0.0,0.0,0.0,0.0,0.0,0.0,0.0,0.0,0.0,0.0,0.0,0.0,0.0,0.0,0.0,0.0,0.0,0.0,0.0,0.0,0.0,0.0,0.0,0.0,0.0,0.0,0.0,0.0,0.0,0.0,0.0,0.0,0.0,0.0,0.0,0.0,0.0,0.0,0.0,0.0,0.0,0.0,0.0,0.0,0.0,0.0,0.0,0.0,0.0,0.0,0.0,0.0,0.0,0.0,0.0,0.0,0.0,0.0,0.0,0.0,0.0,0.0,0.0,0.0,0.0,0.0,0.0,0.0,0.0,0.0,0.0,0.0,0.0,0.0,0.0,0.0,0.0,0.0,0.0,-0.3169,-0.1111,0.0,0.0,0.0,0.0,0.0,0.0,0.1604,0.5343,0.0,0.0,0.0,0.0,0.0,0.0,0.0,0.0,0.0,0.0,0.0,0.0,0.0,0.0,0.0,0.0,0.0,0.0,0.0,0.0,0.0,0.0,0.0,0.0,0.0,0.0,0.0,0.0,0.0,0.0,0.0,0.0,0.0,0.0,0.0,0.0,0.0,0.0,0.0,0.0,0.0,0.0,0.0,0.0,0.0,0.0,0.0,0.0,0.0,0.0,0.0,0.0,0.0,0.0,0.0,0.0,0.0,0.0,0.0,0.0,0.0,0.0,0.0,0.0,0.0,0.0,0.0,0.0,0.0,0.0,0.0,0.0,0.0,0.0,0.0,0.0,0.0,0.0,0.0,0.0,0.0,0.0,0.0,0.0,0.0,0.0,0.0,0.0,0.0,0.0,0.0,0.0,0.0,0.0,0.0,0.0,0.0,0.0,0.0,0.0,0.0,0.0,-0.4061,-0.1499,0.0,0.0,0.0,0.0,0.0,0.0,0.1123,0.3733,0.0,0.0,0.0,0.0,0.0,0.0,0.0,0.0,0.0,0.0,0.0,0.0,0.0,0.0,0.0,0.0,0.0,0.0,0.0,0.0,0.0,0.0,0.0,0.0,0.0,0.0,0.0,0.0,0.0,0.0,0.0,0.0,0.0,0.0,0.0,0.0,0.0,0.0,0.0,0.0,0.0,0.0,0.0,0.0,0.0,0.0,0.0,0.0,0.0,0.0,0.0,0.0,0.0,0.0,0.0,0.0,0.0,0.0,0.0,0.0,0.0,0.0,0.0,0.0,0.0,0.0,0.0,0.0,0.0,0.0,0.0,0.0,0.0,0.0,0.0,0.0,0.0,0.0,0.0,0.0,0.0,0.0,0.0,0.0,0.0,0.0,0.0,0.0,0.0,0.0,0.0,0.0,0.0,0.0,0.0,0.0,0.0,0.0,0.0,0.0,0.0,0.0,-0.5149,-0.2012,0.0,0.0,0.0,0.0,0.0,0.0,0.0,0.0,0.0,0.0,0.0,0.0,0.0,0.0,0.0,0.0,0.0,0.0,0.0,0.0,0.0,0.0,0.0,0.0,0.0,0.0,0.0,0.0,0.0,0.0,0.0,0.0,0.0,0.0,0.0,0.0,0.0,0.0,0.0,0.0,0.0,0.0,0.0,0.0,0.0,0.0,0.0,0.0,0.0,0.0,0.0,0.0,0.0,0.0,0.0,0.0,0.0,0.0,0.0,0.0,0.0,0.0,0.0,0.0,0.0,0.0,0.0,0.0,-0.611,-0.5773,0.0,0.0,0.0,0.0,0.0,0.0,0.0,0.0,0.0,0.0,0.0,0.0,0.0,0.0,0.0,0.0,0.0,0.0,0.0,0.0,0.0,0.0,0.0,0.0,0.0,0.0,0.0,0.0,0.0,0.0,0.0,0.0,0.0,0.0,0.0,0.0,0.0,0.0,0.0,0.0,-0.4139,-0.1549,0.0,0.0,0.0,0.0,0.0,0.0,0.0,0.0,0.1734,0.0,0.0,0.0,0.0,0.0,0.0,0.0,0.0,0.0,0.0,0.0,0.0,0.0,0.0,0.0,0.0,0.0,0.0,0.0,0.0,0.0,0.0,0.0,0.0,0.0,0.0,0.0,0.0,0.0,0.0,0.0,0.0,0.0,0.0,0.0,0.0,0.0,0.0,0.0,0.0,0.0,0.0,0.0,0.0,0.0,0.0,0.0,0.0,0.0,0.0,0.0,0.0,0.0,0.0,0.0,0.0,0.0,0.0,0.0,-0.633,-0.6083,0.0,0.0,0.0,0.0,0.0,0.0,0.0,0.0,0.0,0.0,0.0,0.0,0.0,0.0,0.0,0.0,0.0,0.0,0.0,0.0,0.0,0.0,0.0,0.0,0.0,0.0,0.0,0.0,0.0,0.0,0.0,0.0,0.0,0.0,0.0,0.0,0.0,0.0,0.0,0.0,-0.3686,-0.1333,0.0,0.0,0.0,0.0,0.0,0.0,0.0,0.0,0.0,0.0,0.0,0.0,0.0,0.0,0.0,0.0,0.0,0.0,0.0,0.0,0.0,0.0,0.0,0.0,0.0,0.0,0.0,0.0,0.0,0.0,0.0,0.0,0.0,0.0,0.0,0.0,0.0,0.0,0.0,0.0,0.0,0.0,0.0,0.0,0.0,0.0,0.0,0.0,0.0,0.0,0.0,0.0,0.0,0.0,0.0,0.0,0.0,0.0,0.0,0.0,0.0,0.0,-0.7068,-0.6808,-0.6434,-0.637,-0.6353,-0.639,-0.6779,-0.6644,-0.6132,-0.5997,0.0,0.0,0.0,0.0,0.0,0.0,0.0,0.0,0.0,0.0,0.0,0.0,0.0,0.0,0.0,0.0,0.0,0.0,0.0,0.0,0.0,0.0,-0.7963,-0.853,-0.753,-0.6736,-0.7753,0.0,0.0,0.0,0.0,0.0,0.0,0.0,0.0,0.0,0.0,0.0,-0.4396,-0.1627,0.0,0.0,0.0,0.0,0.0,0.0,0.0,0.0,0.0,0.0,0.0,0.0,0.0,0.0,0.0,0.0,0.0,0.0,0.0,0.0,0.0,0.0,0.0,0.0,0.0,0.0,0.0,0.0,0.0,0.0,0.0,0.0,0.0,0.0,0.0,0.0,0.0,0.0,0.0,0.0,0.0,0.0,-0.5521,-0.6401,0.0,0.0,0.0,0.0,0.0,0.0,0.0,0.0,0.0,0.0,0.0,0.0,0.0,-0.7862,-0.8717,-0.8197,-0.8356,-0.9223,-0.8867,-0.8651,-0.8575,-0.8213,-0.7852,-0.747,-0.7259,0.0,-0.6296,-0.6509,0.0,0.0,0.0,0.0,0.0,0.0,0.0,0.0,0.0,0.0,0.0,0.0,0.0,0.0,0.0,0.0,0.0,0.0,0.0,0.0,0.0,0.0,-0.8706,-0.8566,-0.7793,-0.7088,-0.7077,-0.6637,-0.6329,-0.6667,-0.7,-0.7294,0.0,0.0,0.0,0.0,0.0,0.0,-0.7775,-0.3161,0.0,0.0,0.0,0.0,0.0,0.0,0.0,0.0,0.0,0.0,0.0,0.0924,0.0,0.0,0.0,0.0,0.0,0.0,0.0,0.0,0.0,0.0,0.0,0.0,0.0,0.0,0.0,0.0,0.0,0.0,0.0,0.0,0.0,0.0,0.0,0.0,0.0,0.0,0.0,0.0,0.0,-0.6587,-0.7257,-0.7886,-0.8692,-0.8982,0.0,0.0,0.0,0.0,0.0,0.0,0.0,0.0,0.0,-0.7998,-0.7945,-0.8243,-0.8945,-0.8721,-0.8841,-0.9277,-0.8848,-0.8652,-0.8643,-0.8213,-0.788,-0.7695,-0.7306,-0.6988,-0.6766,-0.6914,-0.668,-0.6273,0.0,0.0,0.0,0.0,-0.6986,-0.6521,-0.7333,-0.7946,-0.8334,-0.8094,0.0,0.0,0.0,0.0,0.0,0.0,0.0,-0.7401,-0.7636,-0.7633,-0.7597,-0.7745,-0.7384,-0.7012,-0.6911,-0.6581,-0.6234,-0.6053,-0.6352,-0.6718,-0.6953,-0.7053,0.0,0.0,0.0,-0.7509,-0.8902,-0.3763,0.0,0.0,0.0,0.0,0.0,0.0,0.0,0.0,0.0,0.0,0.0,0.0,0.1236,0.0,0.0,0.0,0.0,0.0,0.0,0.0,0.0,0.0,0.0,0.0,0.0,0.0,0.0,0.0,0.0,0.0,0.0,0.0,0.0,0.0,0.0,0.0,0.0,0.0,0.0,0.0,0.0,-0.7412,-0.82,-0.8787,-0.9203,-0.917,0.0,0.0,0.0,0.0,0.0,0.0,-0.7988,-0.7894,-0.8054,-0.8535,-0.8518,-0.8688,-0.916,-0.9277,-0.9326,-0.9326,-0.9014,-0.8901,-0.8881,-0.8418,-0.8182,-0.8153,-0.7656,-0.749,-0.7579,-0.7287,-0.6895,-0.6566,-0.7083,-0.6841,-0.6331,-0.7246,-0.7153,-0.6658,-0.7368,-0.7925,-0.8327,-0.8461,-0.8664,-0.8832,-0.8694,0.0,0.0,0.0,0.0,-0.6399,-0.6883,-0.6805,-0.6691,-0.7046,-0.6963,-0.6863,-0.6989,-0.6905,-0.6602,-0.5914,-0.6012,-0.6251,-0.6369,-0.6241,0.0,-0.7918,-0.6311,-0.5663,-0.7633,-0.3652,-0.0498,-0.0049,0.0,0.0,0.0,0.0,0.0,0.0,0.0,0.0,0.0,0.0,0.0,0.0,0.0,0.0,0.0,0.0,0.0,0.0,0.0,0.0,0.0,0.0,0.0,0.0,0.0,0.0,0.0,0.0,0.0,0.0,0.0,0.0,0.0,0.0,0.0,0.0,0.0,0.0,0.0,0.0,0.0,-0.8317,-0.8527,0.0,0.0,0.0,0.0,-0.8232,-0.8069,-0.8123,-0.8453,-0.8451,-0.8604,-0.895,-0.934,-0.9527,-0.9563,-1.001,-1.0215,-1.0215,-1.0195,-1.0186,-1.0176,-0.9736,-0.9495,-0.9456,-0.8672,-0.8545,-0.8818,-0.7618,-0.7085,-0.7096,-0.739,-0.7469,-0.7484,-0.7901,-0.7717,-0.7319,-0.7808,-0.7871,-0.7829,-0.8334,-0.9093,-0.9635,-0.8568,-0.8105,0.0,0.0,-0.6657,-0.6638,-0.6934,-0.6951,-0.6884,-0.6908,-0.6757,-0.6754,-0.7263,-0.7356,-0.7187,-0.6654,-0.6355,-0.6121,-0.5878,0.0,-0.6414,-0.5359,-0.5144,-0.4576,-0.3142,-0.2676,-0.1836,-0.0176,0.0,0.0,0.0,0.0,0.0,0.0,0.0,0.0,0.0,0.0,0.0,0.0,0.586,0.0,0.0,0.0,0.0,0.0,0.0,0.0,0.0,0.0,0.0,0.0,0.0,0.0,0.0,0.0,0.0,0.0,0.0,0.0,0.0,0.0,0.0,0.0,0.0,0.0,0.0,0.0,0.0,-0.9331,-0.9772,0.0,-0.9468,-0.9706,-0.9611,-0.8838,-0.9225,-0.9526,-0.9639,-0.9648,-0.9829,-1.0225,-1.0117,-1.0186,-1.0449,-1.0342,-1.0283,-1.0312,-1.0,-0.9863,-0.9853,-0.9424,-0.9228,-0.9209,-0.8916,-0.8867,-0.8975,-0.8516,-0.7998,-0.7501,-0.7585,-0.728,-0.6951,-0.8169,-0.8147,-0.7637,-0.8622,-0.8917,-0.8931,-0.9321,-0.9664,-0.9816,-0.9427,-0.9021,-0.8642,-0.8342,-0.7981,-0.7731,-0.7811,-0.7822,-0.7694,-0.7325,-0.7471,-0.7486,-0.6791,-0.6942,-0.6989,-0.6277,-0.6348,-0.6478,-0.6391,-0.6145,-0.5995,-0.6076,-0.5713,-0.5127,-0.4312,-0.4213,-0.3969,-0.3356,-0.1313,0.0,0.0,0.0,0.0,0.0,0.0,0.0,0.0,0.0,0.0,0.0,0.3997,0.5513,0.0,0.0,0.0,0.0,0.0,0.0,0.0,0.0,0.0,0.0,0.0,0.0,0.0,0.0,0.0,0.0,0.0,0.0,0.0,0.0,0.0,0.0,0.0,0.0,0.0,-0.8545,-0.9362,-1.0321,-1.0567,-1.0529,-1.0205,-1.0229,-1.014,-0.974,-1.0067,-1.041,-1.0744,-1.0576,-1.0693,-1.1113,-1.0859,-1.0781,-1.0908,-1.0635,-1.042,-1.0312,-0.999,-0.9853,-0.9844,-0.9561,-0.9434,-0.9424,-0.9277,-0.9297,-0.9414,-0.9131,-0.875,-0.834,-0.8168,-0.7739,-0.74,-0.8675,-0.8767,-0.8431,-0.9433,-0.955,-0.9379,-0.9856,-0.9903,-0.9731,-0.9511,-0.9192,-0.8838,-0.8536,-0.837,-0.8234,-0.799,-0.8012,-0.7959,-0.7467,-0.7638,-0.7746,-0.7122,-0.7064,-0.7054,-0.6728,-0.6694,-0.6528,-0.6017,-0.5611,-0.5352,-0.5332,-0.4814,-0.4331,-0.4002,-0.4223,-0.4595,-0.5049,-0.2568,-0.0635,-0.0049,0.0563,0.0652,0.0038,0.0,0.0731,0.2356,0.2429,0.2578,0.2896,0.396,0.4822,0.5487,0.0,0.0,0.0,0.0,0.0,0.0,0.0,0.0,0.0,0.0,0.0,0.0,0.0,0.0,0.0,0.0,0.0,0.0,0.0,0.0,0.0,0.0,0.0,-0.8762,-0.9424,-1.0214,-1.1209,-1.0777,-1.0518,-1.0908,-1.0596,-1.0527,-1.0918,-1.0586,-1.0763,-1.1606,-1.1191,-1.1152,-1.1636,-1.1616,-1.14,-1.0937,-1.0918,-1.0703,-1.0283,-1.0283,-1.0283,-1.0283,-1.0283,-1.0283,-1.0254,-0.9834,-0.9893,-1.0215,-0.9385,-0.9287,-0.9561,-0.9082,-0.889,-0.8952,-0.9439,-0.9578,-0.9645,-1.0118,-0.9668,-0.9035,-0.9841,-0.9835,-0.94,-0.8805,-0.8597,-0.8379,-0.7549,-0.7828,-0.8245,-0.7519,-0.7554,-0.769,-0.7348,-0.7255,-0.747,-0.8261,-0.7804,-0.7399,-0.8012,-0.7384,-0.6254,-0.4733,-0.4844,-0.459,-0.2951,-0.2487,0.0,-0.1849,-0.2583,-0.3627,-0.4856,-0.355,-0.1907,-0.0146,0.1617,0.1902,0.0192,0.0031,0.21,0.6776,0.7114,0.7637,0.8589,0.5953,0.5677,0.7839,0.0,0.0,0.0,0.0,0.0,0.0,0.0,0.0,0.0,0.0,0.0,0.0,0.0,0.0,0.0,0.0,0.0,0.0,0.0,0.0,0.0,-0.8977,-0.9154,-0.9331,-1.018,-1.0934,-1.1465,-1.1924,-1.209,-1.184,-1.2051,-1.209,-1.1885,-1.2061,-1.2266,-1.251,-1.2109,-1.207,-1.2547,-1.1939,-1.1547,-1.143,-1.1064,-1.0703,-1.0283,-1.0283,-1.0283,-1.0283,-1.0283,-1.0283,-1.0273,-1.0156,-1.0166,-1.0264,-1.0029,-1.0,-1.002,-0.9254,-0.8984,-0.9024,-0.946,-0.9413,-0.9243,-0.9646,-0.9391,-0.9004,-0.9562,-0.981,-0.9868,-0.9381,-0.9677,-1.012,-0.9892,-1.0254,-1.0656,-1.0435,-0.9964,-0.9378,-0.8907,-0.857,-0.8153,-0.7433,-0.7389,-0.7386,-0.6968,-0.7146,-0.7031,-0.6024,-0.5966,-0.5801,-0.5037,-0.4866,-0.458,-0.3948,-0.4097,-0.3752,-0.2414,-0.2602,-0.2047,-0.0163,0.046,0.1095,0.1916,0.0731,0.0594,0.1927,0.5333,0.7637,0.8589,0.7427,0.7433,0.0,0.0,0.0,0.0,0.0,0.0,0.0,0.0,0.0,0.0,0.0,0.0,0.0,0.0,0.0,0.0,0.0,0.0,0.0,0.0,0.0,0.0,-0.9399,-0.9811,-1.0187,-1.0776,-1.1369,-1.2073,-1.2616,-1.2783,-1.2529,-1.2734,-1.2773,-1.252,-1.2568,-1.2686,-1.2871,-1.2461,-1.2432,-1.2871,-1.243,-1.2031,-1.1846,-1.118,-1.0709,-1.0431,-0.9882,-0.9689,-0.9803,-0.968,-0.9755,-0.9971,-1.0141,-1.0242,-1.0293,-1.0469,-1.0439,-1.0253,0.0,0.0,0.0,0.0,-0.9924,-0.9642,-1.0039,-0.9763,-0.9281,-0.9737,-0.9887,-0.9841,-0.9613,-0.9907,-1.0252,-1.0091,-1.0475,-1.0896,-1.0582,-1.0239,-0.9833,-0.9362,-0.8937,-0.8445,-0.7827,-0.7667,-0.7555,-0.7265,-0.7427,0.0,-0.7028,-0.662,-0.6026,-0.4984,-0.4699,-0.4335,-0.3619,-0.3724,-0.3195,-0.1457,-0.171,-0.1754,-0.1178,-0.067,0.0,0.0,0.0,0.0714,0.1476,0.3226,0.0,0.0,0.0,0.6984,0.846,0.6996,0.0,0.0,0.7179,0.8091,0.0,0.0,0.0,0.0,0.0,0.0,0.0,0.0,0.0,0.0,0.0,0.0,0.0,0.0,0.0,0.0,-0.9846,-1.0437,-1.1072,-1.1217,-1.1659,-1.2597,-1.2754,-1.2774,-1.2783,-1.2832,-1.2881,-1.2881,-1.252,-1.2471,-1.2861,-1.252,0.0,0.0,0.0,-1.256,-1.2088,-1.1186,-1.0651,-1.0463,-0.9317,-0.8898,-0.9074,-0.884,-0.9001,-0.9417,-0.9807,-0.9999,-1.0147,-1.0522,-1.0495,-1.0196,-1.0213,-1.0195,-1.0267,-1.0683,-1.0616,-1.0374,-1.0787,0.0,0.0,-1.0078,-0.998,-0.9661,-0.9612,-0.9677,-0.9677,-0.9313,-0.9734,-1.0124,-0.9474,-0.947,-0.9543,-0.9233,-0.8787,-0.8495,-0.8787,-0.8299,-0.7931,-0.8197,-0.7987,-0.7754,-0.7705,-0.7024,-0.5894,-0.4175,-0.3556,-0.3071,-0.2386,-0.2649,-0.2512,-0.1499,-0.1132,0.0,-0.2335,-0.1576,-0.0817,-0.0245,0.0431,0.1513,0.3134,0.1143,0.1004,0.315,0.361,0.4806,0.6839,0.8282,0.7253,0.392,0.4692,0.6401,0.0,0.0,0.0,0.0,0.0,0.0,0.0,0.0,0.0,0.0,0.0,0.0,0.0,0.0,0.0,-1.0646,-1.0871,-1.1173,-1.1556,-1.1672,-1.1721,-1.1608,-1.187,-1.203,-1.2008,-1.2569,-1.2881,-1.2881,-1.2803,-1.2793,-1.2881,-1.2803,-1.2793,-1.2881,-1.2344,-1.1789,-1.1387,-1.0694,-1.0131,-0.9694,-0.9465,0.0,-0.9117,-0.9052,-0.8948,-0.8846,-0.8954,-0.8986,-0.9007,-0.9076,-0.935,-0.9707,-1.0108,-1.0271,-1.0299,-1.0376,-1.0156,-0.9834,-1.028,-1.0066,-0.9612,-0.969,-0.9941,-1.0088,-0.9699,-1.0136,0.0,-1.0646,-1.1049,-1.1447,-1.1314,-1.0489,-0.9739,-1.0057,-0.9261,-0.8411,-0.8495,-0.8639,-0.8555,-0.794,-0.8068,-0.8145,-0.7754,-0.7548,-0.7178,-0.6502,-0.6067,-0.5538,-0.4802,-0.4337,-0.3394,-0.1579,-0.2135,-0.2095,-0.0711,-0.1528,-0.192,-0.1474,-0.0421,0.0334,0.0683,0.0248,0.0219,0.0685,0.0784,0.1052,0.1498,0.6557,0.6198,0.0864,0.1019,0.1401,0.0,0.0,0.0,0.0,0.0,0.0,0.0,0.0,0.0,0.0,0.0,-1.009,0.0,0.0,-1.163,-1.0984,-1.1284,-1.1487,-1.1211,-1.0944,-1.1058,-1.1744,-1.2307,-1.257,-1.2382,-1.2676,-1.2881,-1.2881,-1.2881,-1.2881,-1.2881,-1.2559,-1.2344,-1.2344,-1.1674,-1.1221,-1.0991,-1.0181,-0.976,-0.9655,-0.8992,-0.8702,-0.8741,-0.8446,-0.8382,-0.8492,-0.8569,-0.8641,-0.8716,-0.8716,-0.8837,-0.9159,-0.9677,-1.004,-1.0283,-1.0283,-0.9983,-0.9601,-0.9808,-0.9587,-0.9181,-0.9449,-0.9714,-0.9923,-0.9944,-1.0288,-1.0649,-1.0649,-1.084,-1.1067,-1.1067,-1.0547,-1.0041,-1.0301,-0.9641,-0.8945,-0.874,-0.8691,-0.8496,-0.7822,-0.787,-0.7978,-0.7734,-0.7539,-0.7337,-0.714,-0.6749,-0.6241,-0.5489,-0.4943,-0.4063,-0.2697,-0.3056,-0.2852,-0.1513,-0.1839,-0.2004,-0.1806,-0.086,-0.0206,-0.0006,0.0,0.0,0.0,0.0,0.0,0.0009,0.3031,0.2954,0.0,0.0,0.0,0.0,0.0,0.0,0.0,0.0,0.0,0.0,0.0,-1.0631,-1.0717,-1.1022,-1.1295,-1.1327,-1.2061,-1.2277,-1.1187,-1.15,-1.1561,-1.0739,-1.0275,-1.055,-1.2014,-1.2709,-1.2966,-1.2705,-1.2822,-1.2881,-1.2881,-1.2881,-1.2822,-1.2715,-1.2129,-1.1765,-1.1616,-1.0965,-1.0618,-1.0618,-0.9703,-0.9416,-0.9607,-0.8565,-0.8196,-0.8407,-0.7916,-0.7847,-0.8136,-0.8194,-0.8272,-0.839,-0.8594,-0.8635,-0.8635,-0.9359,-0.9795,-1.0,-1.0127,-0.9883,-0.9478,-0.9399,-0.9079,-0.8756,-0.9199,-0.9359,-0.9439,-1.0,-1.0118,-1.0166,-1.0283,-1.0283,-1.0283,-1.0283,-1.0215,-1.0176,-1.0264,-0.9876,-0.9387,-0.9164,-0.8723,-0.8261,-0.7873,-0.769,-0.7564,-0.7534,-0.7241,-0.6999,-0.7089,-0.6703,-0.6172,-0.5573,-0.501,-0.4442,-0.3799,-0.3591,-0.3262,-0.2664,-0.2145,-0.1869,-0.1869,-0.1307,-0.0696,-0.0136,-0.0044,0.0,0.0,0.0,0.0,0.0,0.0,0.0,0.0,0.0,0.0,-0.6432,-0.6213,-0.6615,-0.686,-0.8548,-1.0763,0.0,0.0,-1.4393,-1.5236,-1.5236,-1.479,-1.3864,-1.3562,-1.3169,-1.2348,-1.2015,-1.1505,-1.073,-1.0927,-1.1274,-1.1719,-1.1664,-1.1636,-1.1909,-1.251,-1.2881,-1.2881,-1.2881,-1.2608,-1.1972,-1.1864,-1.1516,-1.0914,-1.0261,-0.9909,-0.9909,-0.9228,-0.8876,-0.8903,-0.879,-0.8591,-0.842,-0.8303,-0.8024,-0.7589,-0.7274,-0.7181,-0.7273,-0.8259,-0.8439,-0.816,-0.9646,-0.9677,-0.8918,-0.9399,-0.9558,-0.9439,-0.8958,-0.8756,-0.8724,-0.8756,-0.8797,-0.8878,-0.9439,-0.9597,-0.9686,-1.0166,-1.0283,-1.0283,-1.0283,-0.999,-0.9768,-1.0186,-0.9563,-0.9023,-0.9425,-0.8858,-0.8194,-0.8139,-0.7633,-0.7121,-0.7023,-0.6757,-0.67,-0.7059,-0.6447,-0.5953,-0.5861,-0.4927,-0.4147,-0.3825,-0.3208,-0.2664,-0.229,-0.218,-0.2155,-0.2155,-0.2192,-0.1702,-0.0584,-0.0195,0.0,0.0,0.0,0.0,0.0,0.0,0.0,0.0,0.0,0.0,-1.0487,-0.962,-0.9336,0.0,-1.3192,-1.3506,-1.5311,-1.568,-1.5699,-1.5756,-1.5619,-1.5372,-1.4968,-1.4735,-1.4203,0.0,-1.2607,-1.202,-1.0506,-1.0485,-1.0689,-1.0839,-1.1134,-1.1427,-1.1751,-1.2452,-1.2715,-1.2295,-1.2236,-1.2129,-1.1814,-1.1065,-1.0517,-1.0218,-0.9562,-0.9211,-0.9211,-0.8962,-0.8804,-0.8804,-0.8804,-0.8744,-0.8617,-0.827,-0.7782,-0.7201,-0.7074,-0.6979,-0.7021,-0.7516,-0.7565,-0.7489,-0.8513,-0.8643,-0.8357,-0.9199,-0.9119,-0.8521,-0.8316,-0.8021,-0.7773,-0.8111,-0.8234,-0.8316,-0.8878,-0.9039,-0.9159,-0.9677,-0.9607,-0.9439,-0.9755,-0.947,-0.9115,-0.9323,-0.9037,-0.8738,-0.8665,-0.8225,-0.7812,-0.7734,-0.7215,-0.6777,-0.6877,-0.6474,-0.6254,-0.6578,-0.6222,-0.5727,-0.5194,-0.4722,-0.4245,-0.3728,-0.3086,-0.2683,-0.2622,-0.2596,-0.2596,-0.2596,-0.2506,-0.2259,-0.1827,-0.0654,0.0,0.0,0.0,0.0,0.0,0.0,0.0,0.0,0.0,0.0,-1.256,-1.2029,0.0,-1.6638,-1.7121,-1.6707,-1.78,-1.7636,-1.7132,-1.654,-1.5959,-1.5557,-1.543,-1.5042,-1.4274,-1.3024,-1.28,-1.2289,-1.0618,-1.0506,-1.0654,-1.081,-1.1178,-1.1516,-1.1792,-1.2452,-1.2608,-1.1864,-1.1972,-1.1922,-1.1566,-1.0618,-0.9917,-0.951,-0.9061,-0.8804,-0.8804,-0.8804,-0.8804,-0.8804,-0.8804,-0.8804,-0.8791,-0.8283,-0.7769,-0.7224,-0.7181,-0.7101,-0.7021,-0.7189,-0.7201,-0.722,-0.7859,-0.8006,-0.7906,-0.8757,-0.8561,-0.7878,-0.7704,-0.7363,-0.7063,-0.7489,-0.7663,-0.7761,-0.8385,-0.8552,-0.8643,-0.933,-0.9112,-0.8822,-0.9281,-0.9035,-0.8716,-0.8716,-0.8602,-0.8448,-0.822,-0.7735,-0.7373,-0.7512,-0.6919,-0.6511,-0.6785,-0.6234,-0.5804,-0.5992,-0.5726,-0.5333,-0.4845,-0.4543,-0.4157,-0.3529,-0.3078,-0.2849,-0.2957,-0.2968,-0.2968,-0.2968,-0.2759,-0.2575,-0.239,-0.1121,-0.0314,0.0,0.0,0.0,0.0,0.0,0.0,0.0,0.0,0.0,-1.062,0.0,-1.3075,-1.6244,-1.879,-2.0661,-2.1237,-2.0452,-1.9505,-1.9037,-1.7455,-1.5918,-1.5488,-1.4044,-1.2861,-1.2497,-1.2438,-1.2078,-1.1219,-1.1514,-1.1944,-1.2237,-1.1983,-1.1774,0.0,-1.2452,-1.2608,-1.1864,-1.2452,-1.2255,-1.0914,-1.0813,-1.0167,-0.8857,-0.8804,-0.8804,-0.8804,-0.8804,-0.8804,-0.8804,-0.8804,-0.8804,-0.8798,-0.8497,-0.8196,-0.7842,-0.7582,-0.7288,-0.7063,-0.7621,-0.7717,-0.7555,-0.8359,-0.8219,-0.7548,-0.7856,-0.7919,-0.7829,-0.7231,-0.7021,-0.7021,-0.7021,-0.7021,-0.7201,-0.807,-0.8125,-0.8131,-0.9204,-0.9125,-0.8758,-0.9062,-0.8898,-0.8716,-0.8716,-0.8316,-0.8077,-0.8586,-0.7619,-0.6859,-0.774,-0.6962,-0.6294,-0.6552,-0.5901,-0.5317,-0.5323,-0.4824,-0.4663,-0.5199,-0.4446,-0.3651,-0.3152,-0.311,-0.3107,-0.3075,-0.3075,-0.3075,-0.3075,-0.3078,-0.265,-0.1676,-0.1598,-0.1076,-0.0037,0.0,0.0,0.0,0.0,0.0,0.0,0.0,0.0,-1.4461,0.0,-1.7329,-2.0298,-2.1274,-2.1655,-2.2189,-2.0563,-1.8814,-1.8078,-1.6262,-1.4401,-1.346,-1.259,-1.1738,-1.0902,-1.1213,-1.1347,-1.0666,-1.1134,-1.1439,-1.1318,-1.185,0.0,0.0,0.0,-1.3016,-1.1864,-1.2463,-1.2258,-1.0864,-1.0364,-0.9718,-0.8804,-0.8804,-0.8804,-0.8804,-0.8804,-0.8804,-0.8804,-0.8804,-0.8704,-0.8517,-0.8417,-0.821,-0.7868,-0.7602,-0.7453,-0.7345,-0.732,-0.725,-0.7204,-0.7475,-0.7419,-0.7161,-0.7272,-0.7321,-0.728,-0.7063,-0.6979,-0.6979,-0.6979,-0.7154,-0.7338,-0.7416,-0.7544,-0.7758,-0.8278,-0.8027,-0.767,-0.8166,-0.8102,-0.7867,-0.7608,-0.7603,-0.7608,-0.7566,-0.7078,-0.664,-0.6758,-0.6119,-0.5567,-0.5499,-0.5026,-0.4658,-0.4447,-0.4203,-0.4085,-0.4276,-0.3736,-0.3317,-0.3303,-0.3181,-0.3122,-0.3222,-0.3273,-0.3273,-0.3232,-0.2983,-0.2657,-0.2215,-0.1517,-0.0925,-0.0462,-0.0151,0.0,0.0,0.0,0.0,0.0,0.0,0.0,-1.6841,-1.8474,-1.9709,-2.2687,-2.303,-2.2599,-2.2468,-2.0614,-1.8408,-1.6869,-1.4985,-1.3221,-1.1926,-1.1268,-1.0705,-1.02,-1.0753,-1.1172,-1.0788,-1.1304,-1.1699,-1.1538,-1.21,-1.2295,0.0,0.0,0.0,-1.1922,-1.2596,-1.2407,-1.0872,-1.0415,-0.9762,-0.8804,-0.8804,-0.8804,-0.8804,-0.8804,-0.8804,-0.8804,-0.8804,-0.8711,-0.853,-0.853,-0.831,-0.7875,-0.7722,-0.7508,-0.7295,-0.7101,-0.7088,-0.7168,-0.7061,-0.7088,-0.7168,-0.7061,-0.6979,-0.6979,-0.6979,-0.6979,-0.7041,-0.7148,-0.7308,-0.752,-0.7495,-0.7562,-0.7727,-0.8119,-0.7695,-0.7321,-0.79,-0.7802,-0.7493,-0.7368,-0.7302,-0.7173,-0.6893,-0.652,-0.6127,-0.5905,-0.558,-0.5254,-0.507,-0.469,-0.4284,-0.3913,-0.3802,-0.3733,-0.3733,-0.3449,-0.3324,-0.3464,-0.3344,-0.3324,-0.338,-0.3256,-0.3125,-0.3083,-0.2633,-0.2247,-0.1932,-0.1288,-0.0763,-0.0453,-0.0162,0.0,0.0,0.0,0.0,0.0,0.0,0.0,-1.7784,-1.951,-2.0439,-2.3306,-2.4017,-2.3642,-2.2271,-2.0493,-1.84,-1.5587,-1.3863,-1.2369,0.0,0.0,-0.9744,-1.0281,-1.091,-1.1416,-1.1566,-1.2091,-1.2553,0.0,0.0,0.0,0.0,0.0,0.0,-1.2054,-1.2909,-1.2684,-1.0913,-1.0795,-1.0182,-0.8857,-0.8804,-0.8804,-0.8804,-0.8804,-0.8804,-0.8804,-0.8804,-0.8804,-0.8804,-0.8804,-0.849,-0.7908,-0.7888,-0.755,-0.7041,-0.6985,-0.7188,-0.7459,-0.7134,-0.7194,-0.7453,-0.7128,-0.6979,-0.6937,-0.6937,-0.6992,-0.7094,-0.7419,-0.7533,-0.7661,-0.8183,-0.8163,-0.8014,-0.8611,-0.815,-0.7668,-0.8196,-0.7882,-0.7536,-0.7768,-0.729,-0.6735,-0.6585,-0.603,-0.5459,-0.5291,-0.5241,-0.5236,-0.5236,-0.47,-0.4132,-0.3619,-0.3534,-0.3534,-0.3534,-0.3578,-0.3578,-0.3534,-0.3534,-0.3534,-0.3534,-0.299,-0.2674,-0.2674,-0.2095,-0.1518,-0.094,-0.0851,-0.0583,0.0,0.0,0.0,0.0,0.0,0.0,0.0,0.0,0.0,-2.1138,-2.3048,-2.4089,-2.4493,-2.4305,-2.3542,-2.1922,-1.9378,-1.6751,-1.4495,-1.2006,-0.9889,0.0,0.0,0.0,-0.8939,-0.9762,0.0,-1.1616,-1.1472,0.0,-1.3186,0.0,-1.321,-1.3869,-1.4419,0.0,-1.3556,-1.3359,-1.2707,-1.1383,-1.0751,-0.9916,-0.8811,-0.8804,-0.8804,-0.8804,-0.8804,-0.8804,-0.8804,-0.8804,-0.8804,-0.8804,-0.8804,-0.8611,-0.825,-0.8029,-0.7709,-0.7335,-0.7114,-0.7068,-0.7128,-0.7054,-0.7068,-0.7128,-0.7054,-0.6725,-0.6392,-0.6392,-0.6823,-0.7368,-0.7486,-0.7815,-0.813,-0.8063,-0.8143,-0.8243,-0.8176,-0.7989,-0.7701,-0.7297,-0.7285,-0.7156,-0.6482,-0.6339,-0.6297,-0.6074,-0.5836,-0.5582,-0.5105,-0.4556,-0.4191,-0.4191,-0.3587,-0.307,-0.2943,-0.2544,-0.241,-0.2854,-0.3306,-0.3265,-0.2366,-0.2677,-0.2765,-0.2277,-0.2097,-0.2051,-0.2051,-0.1474,-0.1073,-0.0895,-0.0448,-0.0135,0.0,0.0,0.0,0.0,0.0,0.0,0.0,0.0,0.0,-2.3528,-2.4961,-2.5473,-2.4946,-2.4126,-2.2836,-2.0088,-1.7519,-1.4824,-1.2032,-1.0089,0.0,-0.785,-0.761,0.0,0.0,0.0,0.0,-1.1084,-1.0902,-1.116,0.0,-1.2833,0.0,-1.4043,-1.4531,-1.4644,-1.4185,-1.3652,-1.2824,-1.1587,-1.0732,-0.9843,-0.8811,-0.8804,-0.8804,-0.8804,-0.8804,-0.8804,-0.8804,-0.8804,-0.8804,-0.8804,-0.8804,-0.8651,-0.8357,-0.8063,-0.7756,-0.7486,-0.7141,-0.6979,-0.6979,-0.6732,-0.6641,-0.6598,-0.6337,-0.6081,-0.5787,-0.5787,-0.6205,-0.6799,-0.7197,-0.7474,-0.7653,-0.7999,-0.8243,-0.8287,-0.777,-0.7628,-0.7499,-0.689,-0.6743,-0.6708,-0.6268,-0.6038,-0.5859,-0.5608,-0.5316,-0.4994,-0.4576,-0.3896,-0.3384,-0.3422,-0.2789,-0.232,-0.2324,-0.2039,-0.1835,-0.1881,-0.2431,-0.2571,-0.1881,-0.2096,-0.2164,-0.1837,-0.1555,-0.1414,-0.1414,-0.0837,-0.051,-0.0519,-0.0183,0.0,0.0,0.0,0.0,0.0,0.0,0.0,0.0,0.0,0.0,-2.5029,-2.5729,-2.5561,-2.4828,-2.3671,-2.1649,-1.7566,-1.5247,-1.2895,-0.9183,0.0,-0.8102,-0.7803,-0.7026,-0.7175,-0.9479,0.0,-0.8624,-1.0436,-1.039,-1.0574,-1.1722,-1.2281,-1.2919,-1.3914,-1.4554,-1.4668,-1.4067,-1.3678,-1.2846,-1.1473,-1.0639,-0.9785,-0.8818,-0.8804,-0.8804,-0.8804,-0.8804,-0.8804,-0.8804,-0.8804,-0.8804,-0.8804,-0.8804,-0.8651,-0.8357,-0.8063,-0.7756,-0.7486,-0.7062,-0.6894,-0.6852,-0.6307,-0.6093,-0.6007,-0.548,-0.526,-0.5173,-0.5173,-0.5296,-0.558,-0.6571,-0.6766,-0.6742,-0.7807,-0.813,-0.8012,-0.7341,-0.7212,-0.708,-0.6592,-0.6279,-0.6124,-0.6269,-0.5819,-0.5337,-0.5242,-0.4692,-0.4184,-0.3948,-0.3352,-0.2906,-0.281,-0.2159,-0.1702,-0.1688,-0.1591,-0.1388,-0.0863,-0.1389,-0.1722,-0.1578,-0.1627,-0.1661,-0.156,-0.1057,-0.0756,-0.0756,-0.0294,0.0,0.0,0.0,0.0,0.0,0.0,0.0,0.0,0.0,0.0,0.0,0.0,0.0,-2.5353,-2.6009,-2.5927,-2.4165,-2.2706,-2.0441,-1.5912,-1.3466,0.0,0.0,-0.7209,-0.7069,-0.734,-0.7464,-0.808,-0.979,-0.9538,-0.9594,-1.0891,-1.0116,-1.0136,0.0,-1.2275,-1.2569,-1.3614,-1.4639,0.0,-1.3304,-1.2915,-1.2282,-1.1064,-1.0215,-0.9471,-0.8824,-0.8804,-0.8804,-0.8804,-0.8804,-0.8804,-0.8804,-0.8804,-0.8804,-0.8804,-0.8804,-0.8651,-0.8357,-0.8063,-0.7756,-0.7442,-0.6674,-0.6349,-0.6264,-0.5696,-0.5437,-0.5437,-0.5346,-0.5,-0.4565,-0.4565,-0.4288,-0.417,-0.553,-0.6076,-0.6309,-0.6541,-0.6657,-0.6713,-0.6616,-0.665,-0.6538,-0.586,-0.5679,-0.5504,-0.4999,-0.4791,-0.4673,-0.4645,-0.4532,-0.4249,-0.3564,-0.3215,-0.2887,-0.2245,-0.1526,-0.1046,-0.1039,-0.0646,-0.025,-0.015,-0.1097,-0.1395,-0.0399,-0.0753,-0.0857,-0.0354,-0.0202,-0.0151,-0.0151,-0.005,0.0,0.0,0.0,0.0,0.0,0.0,0.0,0.0,0.0,0.0,0.0,0.0,0.0,-2.409,-2.5083,-2.6052,-2.3977,-2.2171,-1.9632,-1.4901,0.0,0.0,0.0,-0.6494,-0.657,-0.7041,-0.7,0.0,-0.8849,-0.8382,-0.8302,-0.9611,-0.947,0.0,-1.1413,-1.2356,-1.2993,0.0,-1.4151,-1.4055,-1.225,-1.2024,-1.1604,-1.0922,-0.9827,-0.8928,-0.8275,-0.8209,-0.8209,-0.8209,-0.8209,-0.8427,-0.8804,-0.8804,-0.8804,-0.8804,-0.8804,-0.8731,-0.8584,-0.829,-0.7839,-0.726,-0.6663,-0.6122,-0.5658,-0.5087,-0.4822,-0.4783,-0.453,-0.4228,-0.3965,-0.3965,-0.3796,-0.3725,-0.4369,-0.4906,-0.5385,-0.5947,-0.6144,-0.6107,-0.5808,-0.588,-0.5873,-0.5167,-0.5003,-0.4893,-0.457,-0.4519,-0.4519,-0.4519,-0.4519,-0.4294,-0.3511,-0.2973,-0.2383,-0.1651,-0.0943,-0.0412,-0.0456,-0.0205,0.0,0.0,-0.0527,-0.0635,-0.0052,-0.0264,-0.032,0.0,0.0,0.0,0.0,0.0,0.0,0.0,0.0,0.0,0.0,0.0,0.0,0.0,0.0,0.0,0.0,0.0,0.0,-2.3304,-2.4648,-2.6052,-2.3977,-2.1835,-1.8935,-1.4234,-1.1508,0.0,0.0,-0.6045,-0.6371,-0.6877,-0.6434,-0.6466,0.0,-0.7246,-0.696,-0.82,-0.8967,-0.9711,0.0,-1.2262,0.0,-1.2606,-1.3423,0.0,-1.1137,-1.0872,-1.0784,-1.0534,-0.9458,-0.848,-0.7723,-0.7723,-0.7723,-0.7723,-0.7723,-0.8049,-0.8804,-0.8804,-0.8699,-0.8586,-0.8752,-0.8613,-0.8266,-0.8145,-0.7609,-0.6747,-0.6304,-0.5731,-0.5043,-0.4439,-0.422,-0.4176,-0.3751,-0.3581,-0.3581,-0.3581,-0.3581,-0.3581,-0.3581,-0.388,-0.4405,-0.5213,-0.5486,-0.5415,-0.5009,-0.5031,-0.5116,-0.4615,-0.4519,-0.4519,-0.4519,-0.4519,-0.446,-0.4294,-0.4236,-0.3959,-0.3067,-0.2399,-0.1716,-0.0971,-0.0376,0.0,0.0,0.0,0.0,0.0,0.0,0.0,0.0,0.0,0.0,0.0,0.0,0.0,0.0,0.0,0.0,0.0,0.0,0.0,0.0,0.0,0.0,0.0,0.0,0.0,0.0,0.0,0.0,-2.489,-2.5972,-2.6052,-2.3977,-2.1639,-1.8555,-1.3811,0.0,0.0,-0.604,-0.592,-0.641,-0.6827,-0.641,-0.6427,-0.7705,0.0,-0.7185,0.0,0.0,-0.98,-1.0395,0.0,0.0,-1.1522,-1.2499,-1.2282,-1.0003,-0.9579,-0.9361,-0.9334,-0.8978,-0.848,-0.7723,-0.7723,-0.7723,-0.7723,-0.7723,-0.8049,-0.8804,-0.8804,-0.8427,-0.783,-0.848,-0.8019,-0.6632,-0.7046,-0.6689,-0.5784,-0.4937,-0.4535,-0.4434,-0.388,-0.3667,-0.3667,-0.3622,-0.3581,-0.3581,-0.3581,-0.3581,-0.3581,-0.3581,-0.3622,-0.367,-0.3787,-0.389,-0.4033,-0.4094,-0.4199,-0.435,-0.4484,-0.4519,-0.4519,-0.4519,-0.4519,-0.4294,-0.3566,-0.34,-0.301,-0.1563,-0.1229,-0.0949,-0.0223,-0.0056,0.0,0.0,0.0,0.0,0.0,0.0,0.0,0.0,0.0,0.0,0.0,0.0,0.0,0.0,0.0,0.0,0.0,0.0,0.0,0.0,0.0,0.0,0.0,0.0,0.0,0.0,0.0,0.0,-2.0348,-2.3033,-2.5319,-2.258,-2.0777,-1.8295,-1.3077,0.0,-0.8855,-0.6199,-0.5897,-0.6129,-0.618,-0.6033,-0.5987,-0.6193,0.0,0.0,-0.7299,0.0,-0.9131,-1.0676,-1.1758,0.0,0.0,0.0,-1.1142,-0.8972,-0.8472,-0.8094,-0.7652,-0.7943,-0.761,-0.6411,-0.6799,-0.702,-0.702,-0.745,-0.8049,-0.8804,-0.8374,-0.799,-0.767,-0.7557,-0.7127,-0.6549,-0.6625,-0.639,-0.5823,-0.5047,-0.4581,-0.4347,-0.3792,-0.3581,-0.3534,-0.317,-0.3306,-0.3534,-0.317,-0.3306,-0.3581,-0.3581,-0.3581,-0.3595,-0.3683,-0.3748,-0.3822,-0.3975,-0.408,-0.4207,-0.4317,-0.4399,-0.4405,-0.3901,-0.379,-0.3566,-0.2788,-0.2621,-0.2343,-0.1284,-0.1118,-0.0838,-0.0112,0.0,0.0,0.0,0.0,0.0,0.0,0.0,0.0,0.0,0.0,0.0,0.0,0.0,0.0,0.0,0.0,0.0,0.0,0.0,0.0,0.0,0.0,0.0,0.0,0.0,0.0,0.0,0.0,0.0,-1.7557,-2.0686,-2.3429,-2.1481,-1.9831,-1.7497,0.0,0.0,-0.8499,-0.6354,-0.6021,-0.6029,-0.5795,-0.5826,-0.5749,0.0,0.0,-0.5446,-0.646,-0.7355,-0.8528,0.0,0.0,-1.1387,-1.0829,-1.0627,-0.9924,-0.8472,-0.7937,-0.7396,-0.6642,-0.6907,-0.6578,-0.5538,-0.5982,-0.6258,-0.6258,-0.6799,-0.7396,-0.8156,-0.7616,-0.725,-0.6966,-0.6701,-0.6365,-0.6029,-0.5971,-0.5883,-0.5721,-0.4872,-0.4463,-0.4347,-0.3792,-0.349,-0.3262,-0.2854,-0.2854,-0.2993,-0.2586,-0.2721,-0.3084,-0.3084,-0.3173,-0.3369,-0.3462,-0.3586,-0.3715,-0.3665,-0.3631,-0.3614,-0.3599,-0.3727,-0.368,-0.3121,-0.2954,-0.2788,-0.2009,-0.1898,-0.1675,-0.0895,-0.0783,-0.0615,-0.0112,0.0,0.0,0.0,0.0,0.0,0.0,0.0,0.0,0.0,0.0,0.0,0.0,0.0,0.0,0.0,0.0,0.0,0.0,0.0,0.0,0.0,0.0,0.0,0.0,0.0,0.0,0.0,0.0,0.0,-1.8493,-2.0003,-2.022,-2.1242,-1.8943,-1.5699,0.0,0.0,-0.7637,-0.6364,-0.6252,-0.626,-0.5874,-0.5905,-0.5765,-0.5124,-0.5061,0.0,-0.5379,-0.6928,0.0,0.0,0.0,-0.9818,-0.9527,-0.9088,-0.8818,-0.8811,-0.8103,-0.7396,-0.6642,-0.5923,-0.5542,-0.5487,-0.5487,-0.5487,-0.5487,-0.5542,-0.5873,-0.6642,-0.6588,-0.6153,-0.5332,-0.6051,-0.5769,-0.473,-0.4861,-0.5065,-0.5226,-0.406,-0.3924,-0.4347,-0.3792,-0.3214,-0.2719,-0.2719,-0.2317,-0.183,-0.183,-0.183,-0.183,-0.183,-0.2228,-0.2719,-0.2719,-0.3126,-0.3519,-0.305,-0.2555,-0.2241,-0.221,-0.223,-0.2232,-0.2232,-0.223,-0.2009,-0.1284,-0.1118,-0.0895,-0.0168,0.0,0.0,0.0,0.0,0.0,0.0,0.0,0.0,0.0,0.0,0.0,0.0,0.0,0.0,0.0,0.0,0.0,0.0,0.0,0.0,0.0,0.0,0.0,0.0,0.0,0.0,0.0,0.0,0.0,0.0,0.0,0.0,-1.3305,-1.53,-1.6566,-1.5557,-1.4668,-1.3257,-1.0143,-0.8644,-0.7517,-0.5993,-0.5866,-0.5928,-0.5703,-0.5641,-0.5446,-0.5055,-0.4935,0.0,0.0,0.0,0.0,-0.9313,-1.0059,-1.0216,0.0,-0.9024,-0.8593,-0.8103,-0.783,-0.7176,-0.5923,-0.5651,-0.5269,-0.4842,-0.5273,-0.5487,-0.5487,-0.5982,-0.6367,-0.6588,-0.6091,-0.5729,-0.54,-0.5072,-0.4706,-0.4343,-0.4212,-0.4453,-0.4802,-0.3973,-0.3921,-0.4299,-0.3337,-0.2854,-0.2583,-0.1784,-0.1607,-0.1741,-0.134,-0.1474,-0.1786,-0.1786,-0.1919,-0.2095,-0.2095,-0.2497,-0.2898,-0.2424,-0.2159,-0.2075,-0.2198,-0.2174,-0.2063,-0.1563,-0.1452,-0.1229,-0.0504,-0.0336,-0.028,-0.0056,0.0,0.0,0.0,0.0,0.0,0.0,0.0,0.0,0.0,0.0,0.0,0.0,0.0,0.0,0.0,0.0,0.0,0.0,0.0,0.0,0.0,0.0,0.0,0.0,0.0,0.0,0.0,0.0,0.0,0.0,0.0,0.0,0.0,-1.1589,-1.2663,-1.2066,-1.1705,-1.0885,-0.8474,-0.7515,-0.6817,-0.5853,-0.5578,-0.5522,-0.5484,-0.5312,-0.5119,-0.4985,-0.4828,0.0,0.0,0.0,0.0,-0.8542,0.0,0.0,-0.8665,-0.8685,-0.848,-0.7777,-0.745,-0.6745,-0.5542,-0.5273,-0.4948,-0.4519,-0.4893,-0.5109,-0.5109,-0.5605,-0.5828,-0.5828,-0.5328,-0.5043,-0.4914,-0.4355,-0.4198,-0.427,-0.3886,-0.4165,0.0,-0.3739,-0.3561,-0.3946,-0.2802,-0.2228,-0.1919,-0.1163,-0.0984,-0.1073,-0.0672,-0.0806,-0.1118,-0.1118,-0.1297,-0.1474,-0.1474,-0.1741,-0.1947,-0.1646,-0.1444,-0.1274,-0.135,-0.1383,-0.1173,-0.0447,-0.0279,-0.0056,0.0671,0.0615,0.0392,0.0392,0.0168,0.0,0.0,0.0,0.0,0.0,0.0,0.0,0.0,0.0,0.0,0.0,0.0,0.0,0.0,0.0,0.0,0.0,0.0,0.0,0.0,0.0,0.0,0.0,0.0,0.0,0.0,0.0,0.0,0.0,0.0,0.0,0.0,-0.8715,0.0,-1.0233,-0.9688,-0.8517,-0.7693,-0.6633,0.0,-0.5859,-0.5477,-0.5169,-0.5277,-0.5016,-0.4791,-0.4927,-0.4761,0.0,0.0,-0.5398,0.0,0.0,-0.7894,-0.837,-0.7684,-0.8307,-0.8427,-0.7777,-0.702,-0.6258,-0.5542,-0.4893,-0.4574,-0.4519,-0.4519,-0.4519,-0.4519,-0.4519,-0.4519,-0.4519,-0.4508,-0.4304,-0.4036,-0.4012,-0.4131,-0.432,-0.3843,-0.4184,-0.4995,-0.3375,-0.2973,-0.3265,-0.218,-0.1382,-0.0892,-0.0849,-0.0493,0.0,0.0,0.0,0.0,0.0,-0.0359,-0.0851,-0.0851,-0.0851,-0.0903,-0.0847,-0.0441,0.0,0.0053,0.0055,0.028,0.1006,0.1174,0.1341,0.2063,0.1675,0.1174,0.1174,0.0615,0.0168,0.0168,0.0168,0.0168,0.0168,0.0112,0.0056,0.0056,0.0056,0.0056,0.0056,0.0056,0.0056,0.0056,0.0056,0.0,0.0,0.0,0.0,0.0,0.0,0.0,0.0,0.0056,0.0112,0.0168,0.0168,0.0168,0.0168,0.0168,0.0112,-0.4762,0.0,-0.5663,-0.5904,-0.6158,-0.6218,0.0,0.0,0.0,0.0,0.0,0.0,0.0,0.0,0.0,-0.5207,0.0,-0.4493,-0.4443,0.0,0.0,-0.8875,-0.9713,-0.9892,-0.8912,-0.83,-0.7883,-0.7723,-0.702,-0.6258,-0.5542,-0.5378,-0.5058,-0.4519,-0.4519,-0.4519,-0.4519,-0.4519,-0.4519,-0.4515,-0.4351,-0.421,-0.4133,-0.3951,-0.3899,-0.3915,-0.3715,-0.3483,-0.3287,-0.2849,-0.249,-0.2126,-0.1411,-0.1008,-0.0855,-0.0399,-0.0135,0.0,0.0,0.0,0.0,0.0,-0.009,-0.0225,-0.0225,-0.0538,-0.0813,-0.033,-0.0098,0.0153,0.0684,0.0817,0.1006,0.1786,0.1952,0.2009,0.2174,0.2063,0.1952,0.1952,0.1786,0.1675,0.1675,0.1675,0.1675,0.1675,0.1229,0.0838,0.0838,0.0838,0.0838,0.0838,0.0838,0.0838,0.0838,0.0336,0.0,0.0,0.0,0.0,0.0,0.0,0.0,0.0,0.056,0.1118,0.1675,0.1675,0.1675,0.1675,0.1675,0.1396,-0.3442,-0.3761,-0.4155,-0.4168,-0.4574,-0.4996,-0.5147,0.0,0.0,0.0,0.0,0.0,0.0,0.0,0.0,0.0,-0.5171,0.0,0.0,0.0,-0.7916,-0.845,-0.9227,-0.9539,-0.9068,-0.822,-0.7563,-0.7235,-0.6529,-0.5764,-0.5058,-0.5058,-0.4897,-0.4519,-0.4519,-0.4519,-0.4519,-0.4395,-0.4365,-0.4362,-0.4212,-0.4056,-0.3983,-0.3576,-0.3333,-0.3309,-0.314,-0.2808,-0.2271,-0.2229,-0.1881,-0.1342,-0.0732,-0.03,-0.0042,0.0302,0.0397,0.0403,0.0403,0.0224,0.0,0.0,0.0,0.0045,0.0314,0.0179,0.0,0.0322,0.0435,0.0659,0.1341,0.156,0.1786,0.2508,0.273,0.2788,0.3176,0.2954,0.273,0.2732,0.2454,0.2174,0.2174,0.2174,0.2174,0.2174,0.1842,0.1619,0.1619,0.1619,0.1619,0.1619,0.1619,0.1619,0.1619,0.1229,0.0727,0.0056,0.0,0.0,0.0,0.0,0.0168,0.0504,0.0895,0.1452,0.2174,0.2174,0.2174,0.2174,0.2174,0.2009,-0.3342,-0.34,-0.3523,-0.369,-0.4024,-0.4429,-0.4991,0.0,0.0,0.0,0.0,0.0,0.0,-0.4841,0.0,0.0,0.0,0.0,-0.666,-0.7002,-0.7268,-0.7465,-0.8167,-0.8663,-0.8822,-0.8072,-0.7289,-0.6642,-0.5819,-0.5109,-0.4515,-0.4519,-0.4508,-0.4429,-0.4429,-0.4419,-0.445,-0.4297,-0.4184,-0.416,-0.406,-0.3869,-0.3648,-0.3108,-0.2763,-0.2536,-0.2449,-0.2109,-0.1676,-0.1532,-0.1206,-0.0699,-0.0208,0.0373,0.0864,0.0876,0.0941,0.0966,0.1018,0.0624,0.0135,0.0224,0.0269,0.0359,0.0895,0.1029,0.1073,0.1163,0.1182,0.1351,0.201,0.227,0.255,0.3284,0.3511,0.3677,0.4349,0.3956,0.3511,0.3566,0.301,0.2565,0.2565,0.2565,0.2565,0.2565,0.2454,0.2341,0.2341,0.2341,0.2397,0.2397,0.2397,0.2341,0.2341,0.2286,0.1675,0.0392,0.0336,0.0336,0.0336,0.0224,0.056,0.1396,0.1452,0.1786,0.2565,0.2565,0.2565,0.2565,0.2565,0.2508,-0.3366,-0.3393,-0.3357,-0.3104,-0.3591,-0.4144,-0.4268,0.0,0.0,0.0,0.0,0.0,0.0,-0.5358,-0.5297,0.0,0.0,-0.716,0.0,0.0,-0.8633,-0.9252,-0.9464,-0.9453,-0.9184,-0.7687,-0.6696,-0.6588,-0.5386,-0.4625,-0.4519,-0.4519,-0.4406,-0.4234,-0.4227,-0.4167,-0.409,-0.4143,-0.413,-0.4053,-0.39,-0.3576,-0.3031,-0.2834,-0.2422,-0.1917,-0.1905,-0.1566,-0.1057,-0.1009,-0.0681,-0.0112,-0.0039,0.031,0.0754,0.0856,0.1027,0.1246,0.1423,0.1173,0.0851,0.134,0.1518,0.1563,0.1652,0.1652,0.1784,0.2273,0.2079,0.1882,0.2693,0.2956,0.3179,0.41,0.4294,0.4349,0.446,0.4405,0.4294,0.4349,0.4236,0.4125,0.4125,0.4125,0.4125,0.4125,0.3566,0.3121,0.3121,0.3121,0.3176,0.3234,0.3178,0.3121,0.3121,0.2565,0.212,0.1898,0.1842,0.1842,0.1842,0.1285,0.1563,0.2954,0.2954,0.3345,0.4125,0.4125,0.4125,0.4125,0.4125,0.379,-0.333,-0.3323,-0.3413,-0.3747,-0.3982,-0.4195,-0.4292,0.0,0.0,0.0,0.0,0.0,0.0,0.0,-0.6276,-0.8018,0.0,-0.7367,-0.8334,-0.8331,-0.8456,-0.896,-0.867,-0.8441,-0.8365,-0.694,-0.5982,-0.5982,-0.5062,-0.4519,-0.4519,-0.4389,-0.4317,-0.4197,-0.3804,-0.3545,-0.3411,-0.3123,-0.3123,-0.3408,-0.3274,-0.289,-0.2294,-0.1891,-0.1563,-0.1293,-0.1232,-0.0919,-0.0418,-0.0677,-0.0342,0.0365,0.0374,0.0854,0.1502,0.1575,0.174,0.1915,0.1667,0.1511,0.1429,0.1697,0.1786,0.1873,0.2184,0.2273,0.2495,0.3375,0.3027,0.2571,0.3297,0.3859,0.4407,0.4854,0.5267,0.5609,0.5609,0.5609,0.5496,0.5113,0.5058,0.4948,0.457,0.4519,0.4519,0.4519,0.4181,0.3959,0.3959,0.3959,0.3959,0.4015,0.3959,0.3959,0.3959,0.3622,0.3065,0.2232,0.2174,0.2174,0.2174,0.1898,0.2232,0.3345,0.3345,0.3735,0.4519,0.4519,0.4519,0.4519,0.4519,0.4294,-0.3336,-0.326,-0.3426,-0.4127,-0.4342,-0.4576,-0.5247,0.0,0.0,0.0,0.0,0.0,0.0,-0.6839,0.0,-0.8116,-0.7752,-0.7671,-0.8575,-0.822,-0.8013,-0.843,-0.784,-0.7402,-0.7433,-0.6249,-0.5467,-0.5483,-0.4841,-0.4395,-0.4362,-0.4253,-0.4075,-0.3885,-0.3324,-0.2919,-0.2665,-0.2179,-0.2169,-0.2626,-0.2541,-0.2184,-0.156,-0.1097,-0.0833,-0.0693,-0.0572,-0.0321,-0.0041,-0.0376,-0.0036,0.0716,0.0716,0.1329,0.2218,0.2309,0.2433,0.243,0.2097,0.1982,0.2053,0.2186,0.2233,0.2319,0.2937,0.3114,0.329,0.4343,0.404,0.3595,0.4058,0.4816,0.5477,0.5522,0.6053,0.6588,0.6588,0.6588,0.6421,0.5869,0.576,0.5601,0.5062,0.4842,0.4732,0.4732,0.4625,0.4519,0.4519,0.4519,0.4519,0.4519,0.4519,0.4519,0.4519,0.4519,0.4012,0.2788,0.2565,0.2565,0.2732,0.2565,0.2843,0.3624,0.368,0.3956,0.4519,0.4519,0.4519,0.4519,0.4519,0.4519,-0.3464,-0.3309,-0.3159,-0.3336,-0.4225,0.0,-0.7575,-0.7736,0.0,-0.9083,0.0,0.0,0.0,-0.8376,-0.8116,-0.6878,-0.7419,-0.8434,-0.9526,-0.8567,-0.7982,-0.86,-0.81,-0.7433,-0.6745,-0.5977,-0.5474,-0.531,-0.4625,-0.415,-0.406,-0.4043,-0.3722,-0.3016,-0.2955,-0.2569,-0.1884,-0.1853,-0.1857,-0.1899,-0.1851,-0.1562,-0.095,-0.0909,-0.0577,-0.008,-0.0041,-0.004,0.0,-0.0037,0.0248,0.071,0.071,0.1321,0.2247,0.2697,0.2719,0.2555,0.3016,0.2927,0.2719,0.3306,0.349,0.3575,0.4128,0.4256,0.443,0.5043,0.5183,0.5154,0.5312,0.5681,0.6002,0.609,0.6365,0.6588,0.6588,0.6588,0.6588,0.6534,0.6529,0.6534,0.648,0.5873,0.5433,0.5433,0.4893,0.4519,0.4519,0.4519,0.4519,0.4519,0.4519,0.4519,0.4519,0.4519,0.446,0.4349,0.368,0.3624,0.4294,0.368,0.368,0.4405,0.4405,0.446,0.4519,0.4519,0.4519,0.4519,0.4519,0.4519,-0.3245,-0.4061,-0.4871,-0.476,0.0,0.0,0.0,0.0,-0.8149,-0.8675,-0.8635,0.0,0.0,0.0,-0.8401,-0.75,-0.7493,-0.7668,-0.777,-0.7337,-0.7068,-0.7264,-0.6634,-0.6062,-0.5729,-0.5003,-0.4569,-0.4509,-0.4256,-0.3878,-0.3471,-0.334,-0.3032,-0.2373,-0.1898,-0.1527,-0.1246,-0.0863,-0.0673,-0.0692,-0.1068,-0.0915,-0.0353,-0.0329,-0.0205,0.0,0.0,0.0155,0.0436,0.0422,0.0856,0.1577,0.2103,0.2563,0.2931,0.322,0.3332,0.3302,0.3317,0.3482,0.3774,0.4045,0.4355,0.47,0.4913,0.4957,0.5087,0.5696,0.5873,0.5842,0.5672,0.6133,0.6721,0.6957,0.7477,0.7996,0.7996,0.7996,0.783,0.7396,0.7289,0.7128,0.6696,0.6367,0.6204,0.6204,0.5601,0.5109,0.5109,0.4732,0.4519,0.4519,0.4519,0.4519,0.4519,0.4519,0.4519,0.4519,0.4236,0.4184,0.4463,0.4236,0.4239,0.4519,0.4519,0.4519,0.4519,0.4519,0.4519,0.4519,0.4519,0.4519,-0.2875,-0.4127,-0.5366,0.0,0.0,0.0,0.0,0.0,-0.8158,-0.9096,-0.8928,0.0,-0.8019,0.0,0.0,-0.6979,-0.6968,-0.6968,-0.6579,-0.6323,-0.6159,-0.6066,-0.558,-0.5086,-0.4763,-0.4266,-0.3927,-0.3883,-0.3693,-0.341,-0.2946,-0.2683,-0.2281,-0.1658,-0.1144,-0.082,-0.0616,-0.0196,0.0,0.0,-0.0408,-0.0411,0.0,0.0,0.0,0.0,0.0152,0.0411,0.0709,0.0853,0.1408,0.2314,0.3123,0.3546,0.3682,0.398,0.4129,0.42,0.3983,0.4244,0.4696,0.4696,0.4957,0.5346,0.5524,0.5567,0.5696,0.6301,0.6539,0.658,0.6424,0.686,0.7412,0.7735,0.8326,0.8804,0.8804,0.8804,0.8646,0.8156,0.8049,0.7883,0.7402,0.7128,0.6966,0.6966,0.6308,0.5873,0.5873,0.5441,0.5062,0.4842,0.4625,0.4519,0.4519,0.4519,0.4519,0.4519,0.4519,0.4519,0.4519,0.4519,0.4519,0.4519,0.4519,0.4519,0.4519,0.4519,0.4519,0.4519,0.4519,0.4519,-0.2394,-0.3319,-0.4164,0.0,0.0,0.0,0.0,-0.9062,-0.8112,-1.0968,0.0,-0.8627,-0.715,-0.6976,0.0,-0.4876,-0.5718,-0.6556,-0.638,-0.5737,-0.5276,-0.5271,-0.5153,-0.4792,-0.4062,-0.3877,-0.3727,-0.3588,-0.3049,-0.2629,-0.2509,-0.2027,-0.152,-0.0899,-0.0898,-0.0587,0.0,0.0,0.0,0.0,0.0,0.0,0.0,0.0,0.0,0.0034,0.0499,0.0708,0.0739,0.1139,0.1869,0.2779,0.3526,0.4066,0.4479,0.4925,0.509,0.5121,0.5269,0.5308,0.5308,0.5308,0.5308,0.5437,0.6007,0.6227,0.6307,0.6852,0.7235,0.7587,0.7849,0.7929,0.8009,0.831,0.8597,0.8804,0.8804,0.8804,0.8804,0.8804,0.8804,0.8804,0.8804,0.8209,0.7723,0.7723,0.7074,0.6588,0.6588,0.6588,0.6312,0.5597,0.4897,0.4519,0.4519,0.4519,0.4519,0.4519,0.4519,0.4519,0.4519,0.4519,0.4519,0.4519,0.4519,0.4519,0.4519,0.4519,0.4519,0.4519,0.4519,0.4519,-0.3488,-0.5239,0.0,0.0,0.0,0.0,0.0,-0.866,0.0,0.0,-0.8542,-0.829,-0.6944,-0.7186,-0.7084,-0.5508,-0.5562,-0.558,-0.4823,-0.4534,-0.4343,-0.4274,-0.412,-0.3893,-0.3558,-0.3366,-0.3181,-0.2855,-0.2657,-0.2221,-0.1407,-0.1249,-0.0899,-0.0274,-0.0265,-0.0186,0.0,0.0,0.0,0.0,0.0,0.0,0.0,0.0,0.0177,0.0505,0.0641,0.106,0.1678,0.2402,0.286,0.3241,0.429,0.4772,0.4939,0.5364,0.5504,0.5497,0.5354,0.5567,0.5916,0.5916,0.6167,0.655,0.6725,0.6768,0.6901,0.7447,0.7931,0.8246,0.8436,0.8688,0.8883,0.8707,0.8744,0.8804,0.8804,0.8804,0.8804,0.8804,0.8804,0.8804,0.8804,0.8646,0.848,0.848,0.783,0.7182,0.6642,0.6588,0.6534,0.6312,0.6095,0.5769,0.5273,0.5218,0.5003,0.4515,0.4519,0.4519,0.4519,0.4519,0.4519,0.4519,0.4519,0.4519,0.4519,0.4519,0.4519,0.4519,0.4519,0.4519,-0.3846,0.0,0.0,0.0,0.0,-0.9791,-0.8201,0.0,0.0,0.0,-0.8146,-0.8229,-0.6796,-0.6979,-0.6842,-0.5107,-0.511,-0.5031,-0.4066,-0.388,-0.3812,-0.3721,-0.3524,-0.3278,-0.3023,-0.2847,-0.2578,-0.2166,-0.1902,-0.1513,-0.0848,-0.0627,-0.0369,0.0,0.0,0.0,0.0,0.0,0.0,0.0,0.0202,0.0168,0.0,0.0209,0.0416,0.0708,0.1078,0.1729,0.2573,0.3097,0.3601,0.4096,0.4928,0.545,0.5751,0.6071,0.6231,0.6208,0.6029,0.6209,0.652,0.652,0.6725,0.7063,0.728,0.7363,0.751,0.8231,0.8724,0.9017,0.9315,0.9657,0.9768,0.8967,0.8804,0.8804,0.8804,0.8804,0.8804,0.8804,0.8804,0.8804,0.8804,0.8804,0.8804,0.8804,0.8427,0.799,0.7509,0.7235,0.702,0.702,0.675,0.6455,0.6147,0.5749,0.5411,0.5098,0.4712,0.4519,0.4519,0.4519,0.4519,0.4519,0.4787,0.4893,0.4893,0.5171,0.5336,0.5336,0.5336,0.5336,-0.3831,0.0,0.0,0.0,0.0,0.0,-0.8288,-0.8804,-0.9427,-0.8347,0.0,-0.8234,-0.6579,-0.6409,-0.593,-0.4187,-0.4534,-0.4714,-0.3844,-0.3632,-0.3554,-0.3541,-0.3239,-0.2869,-0.2523,-0.2262,-0.1944,-0.1551,-0.1001,-0.0672,-0.0639,-0.0235,0.0,0.0,0.0,0.0,0.0,0.0034,0.0067,0.0067,0.0504,0.0471,0.0067,0.0537,0.0773,0.0874,0.1744,0.2573,0.329,0.3388,0.4076,0.5115,0.545,0.5984,0.6627,0.6914,0.6979,0.6979,0.6979,0.7021,0.7063,0.7021,0.7063,0.7231,0.7746,0.7976,0.8226,0.9113,0.9617,0.9956,1.0393,1.0697,1.0568,0.9263,0.8956,0.8956,0.8956,0.8956,0.8956,0.891,0.891,0.8857,0.8804,0.8804,0.8804,0.8804,0.8804,0.8804,0.8804,0.8209,0.7777,0.7777,0.7182,0.6887,0.7156,0.6248,0.5775,0.6067,0.5198,0.468,0.468,0.4625,0.457,0.457,0.5273,0.5597,0.5597,0.6258,0.6588,0.6588,0.6588,0.6588,0.0,-0.6192,0.0,0.0,0.0,-0.9419,-0.962,-0.9406,-0.8403,-0.5619,-0.6349,-0.7013,-0.5365,-0.5419,-0.5461,-0.4635,-0.4457,-0.4109,-0.3368,-0.3344,-0.3399,-0.3232,-0.2712,-0.2357,-0.2284,-0.1791,-0.133,-0.0923,-0.0779,-0.0538,-0.0168,-0.0067,0.0,0.0,0.0,0.0,0.0,0.037,0.0538,0.0538,0.0639,0.0639,0.0571,0.0973,0.1375,0.1778,0.2636,0.313,0.3355,0.4043,0.4615,0.515,0.5785,0.6257,0.6627,0.6914,0.6979,0.6979,0.6979,0.7321,0.7621,0.7147,0.7599,0.8267,0.7995,0.8422,0.9113,0.9742,1.0472,1.1035,1.1022,1.1323,1.1366,1.0568,1.0364,1.0364,1.0364,1.0364,1.021,0.9666,0.9562,0.9413,0.891,0.8804,0.8804,0.8804,0.8804,0.8804,0.8804,0.8646,0.8586,0.8586,0.8427,0.8127,0.7637,0.7371,0.7036,0.6489,0.6287,0.6154,0.6154,0.5601,0.5269,0.5269,0.5982,0.6367,0.6367,0.6529,0.6588,0.6588,0.6588,0.6588,0.0,0.0,0.0,0.0,0.0,0.0,-0.9196,-0.857,-0.7452,-0.5739,-0.6294,-0.669,-0.532,-0.512,-0.4852,-0.4082,-0.3773,-0.3525,-0.3169,-0.313,-0.303,-0.2719,-0.2344,-0.1938,-0.1516,-0.1211,-0.0837,-0.0387,-0.0378,-0.0254,0.0,0.0,0.0,0.0,0.0,0.0101,0.0336,0.0571,0.0807,0.1007,0.1208,0.1444,0.1642,0.1406,0.1771,0.2636,0.3097,0.3523,0.3946,0.4403,0.4991,0.5653,0.6056,0.6458,0.6814,0.6967,0.7196,0.7447,0.7447,0.7621,0.787,0.7814,0.8021,0.8357,0.8594,0.9131,0.9846,1.0591,1.129,1.1827,1.1978,1.2184,1.2246,1.1891,1.1275,1.0813,1.0813,1.0813,1.0712,1.0364,1.0261,1.0167,0.9814,0.9762,0.9762,0.9762,0.9762,0.9666,0.9309,0.9263,0.9159,0.8857,0.8804,0.8698,0.845,0.7955,0.7614,0.74,0.6867,0.6588,0.6588,0.6578,0.6362,0.6036,0.6745,0.7128,0.7128,0.7509,0.767,0.767,0.767,0.767,0.0,0.0,0.0,0.0,0.0,0.0,-0.797,-0.7236,-0.6615,-0.6666,-0.6658,-0.6407,-0.5503,-0.4824,-0.4078,-0.3201,-0.3083,-0.3076,-0.3049,-0.2964,-0.2717,-0.222,-0.1999,-0.1574,-0.0774,-0.0616,-0.0431,-0.0031,0.0,0.0,0.0,0.0,0.0,0.0,0.0,0.0235,0.0706,0.0773,0.1007,0.144,0.1811,0.2214,0.2547,0.1873,0.2134,0.3196,0.336,0.3816,0.4505,0.4666,0.5314,0.6196,0.6196,0.6513,0.7021,0.7105,0.7489,0.7912,0.7995,0.8118,0.8234,0.8602,0.8553,0.8568,0.9376,1.0027,1.0646,1.1485,1.2002,1.2422,1.2783,1.2881,1.2881,1.2881,1.1999,1.1174,1.1174,1.1174,1.1124,1.1015,1.0864,1.0813,1.0813,1.0813,1.0813,1.0813,1.0813,1.0618,1.0064,0.9961,0.971,0.9061,0.8956,0.9004,0.9145,0.834,0.8033,0.8312,0.7454,0.6966,0.6966,0.7563,0.7616,0.6966,0.7563,0.7883,0.7883,0.848,0.8804,0.8804,0.8804,0.8804,0.0,0.0,0.0,0.0,0.0,-0.6365,0.0,0.0,-0.5902,0.0,-0.5523,-0.487,-0.4732,-0.3863,-0.3095,-0.2944,-0.2937,-0.2893,-0.2757,-0.2839,-0.2682,-0.2081,-0.1648,-0.1211,-0.0743,-0.0338,-0.0062,0.0,0.0,0.0,0.0,0.0,0.0,0.0,0.0,0.0235,0.0706,0.1039,0.144,0.1911,0.1981,0.2047,0.2114,0.2371,0.2603,0.2812,0.3565,0.3961,0.4156,0.489,0.5591,0.6196,0.6196,0.6513,0.7063,0.7572,0.7829,0.7953,0.8439,0.8878,0.9239,0.8837,0.95,1.0441,1.0109,1.091,1.1969,1.2073,1.2461,1.2812,1.2861,1.2881,1.2881,1.2881,1.2774,1.2618,1.2618,1.2618,1.2412,1.1774,1.1216,1.0813,1.0813,1.0813,1.0813,1.0813,1.0813,1.0771,1.0661,1.0669,1.0415,0.971,0.9666,0.9427,0.8911,0.8725,0.8665,0.8698,0.8606,0.848,0.848,0.8586,0.8586,0.848,0.8586,0.8646,0.8646,0.8752,0.8804,0.8804,0.8804,0.8804,-0.4087,0.0,0.0,0.0,0.0,-0.5522,-0.6269,0.0,-0.5332,-0.5453,-0.461,-0.3909,-0.3985,-0.334,-0.2727,-0.2529,-0.2601,-0.2661,-0.2596,-0.2716,-0.2478,-0.1713,-0.1432,-0.103,-0.0383,-0.0113,0.0,0.0,0.0,0.0,0.0,0.0,0.0,0.0,0.0253,0.0585,0.1039,0.1473,0.1945,0.238,0.238,0.251,0.2735,0.2929,0.3196,0.3467,0.4086,0.4473,0.4768,0.5151,0.5658,0.6196,0.6196,0.6747,0.753,0.7787,0.8275,0.8837,0.9079,0.9319,0.9554,0.9853,1.0169,1.0531,1.0851,1.1541,1.218,1.218,1.2549,1.2881,1.2881,1.2881,1.2881,1.2881,1.2881,1.2881,1.2881,1.2881,1.2822,1.2501,1.2197,1.1999,1.1999,1.1999,1.1999,1.1999,1.1999,1.1841,1.1416,1.1366,1.1116,1.0415,1.0364,1.0269,0.9969,0.9562,0.9361,0.9361,0.9008,0.8804,0.8804,0.8804,0.8804,0.8804,0.8804,0.8804,0.8804,0.8971,0.9051,0.9051,0.9218,0.9205,0.0,0.0,0.0,0.0,-0.5121,-0.5049,0.0,0.0,-0.4857,-0.4862,-0.4086,-0.3379,-0.3229,-0.2854,-0.2496,-0.2244,-0.2361,-0.2469,-0.2431,-0.2592,-0.2353,-0.1351,-0.1281,-0.0952,-0.0083,0.0,0.0,0.0,0.0,0.0,0.0,0.0,0.0054,0.018,0.0519,0.0949,0.1471,0.1945,0.2411,0.2841,0.2841,0.3068,0.349,0.3588,0.3821,0.4183,0.4473,0.4794,0.5125,0.5325,0.5726,0.624,0.6419,0.709,0.7912,0.8201,0.8797,0.9518,0.9637,0.979,0.996,1.0678,1.0761,1.0773,1.1543,1.2041,1.2393,1.2393,1.2627,1.2881,1.2881,1.2881,1.2881,1.2881,1.2881,1.2881,1.2881,1.2881,1.2881,1.2881,1.2881,1.2881,1.2881,1.2881,1.2881,1.2881,1.2881,1.2715,1.2129,1.208,1.1823,1.1116,1.1065,1.0965,1.0813,1.0364,1.0064,1.0064,0.9413,0.9095,0.9171,0.9018,0.8951,0.9031,0.9031,0.8991,0.8918,0.9212,0.9352,0.9359,0.9579,0.9566,0.0,0.0,0.0,0.0,0.0,0.0,0.0,0.0,-0.4441,-0.4419,-0.4039,-0.3425,-0.2596,-0.2321,-0.2227,-0.2211,-0.2361,-0.2434,-0.2241,-0.25,-0.2319,-0.1233,-0.1216,-0.0965,-0.0077,0.0,0.0,0.0,0.0,0.0,0.0,0.0,0.0209,0.0645,0.0687,0.1108,0.1945,0.2414,0.2874,0.3261,0.3261,0.3523,0.3993,0.4371,0.4532,0.457,0.4596,0.4602,0.4684,0.5404,0.5878,0.629,0.7053,0.7589,0.8036,0.9039,0.9439,0.9558,1.0079,1.0507,1.0838,1.0898,1.1431,1.2122,1.2141,1.25,1.2842,1.2842,1.2861,1.2881,1.2881,1.2881,1.2881,1.2881,1.2881,1.2881,1.2881,1.2881,1.2881,1.2881,1.2881,1.2881,1.2881,1.2881,1.2881,1.2881,1.2881,1.2881,1.2832,1.2822,1.2559,1.1823,1.1765,1.1516,1.0864,1.0771,1.0771,1.0771,1.0115,0.9903,1.0223,0.9535,0.9352,0.9633,0.9639,0.9499,0.9163,0.9519,0.9659,0.9659,0.9679,0.9679,0.0,0.0,0.0,-0.4314,-0.3421,-0.2553,-0.2542,-0.2677,-0.2813,-0.2851,-0.3093,-0.3174,-0.2677,-0.2449,-0.227,-0.2093,-0.2191,-0.233,-0.24,-0.2582,-0.2343,-0.135,-0.1284,-0.0948,-0.0077,0.0,0.0,0.0,0.0,0.0,0.0,0.0,0.0146,0.0495,0.0892,0.1518,0.2444,0.2871,0.3163,0.329,0.3593,0.3988,0.4377,0.4538,0.4762,0.5055,0.5055,0.5055,0.5074,0.5524,0.5885,0.629,0.7068,0.7834,0.8521,0.9239,0.9882,1.044,1.0603,1.0967,1.1377,1.166,1.1973,1.2239,1.2559,1.2754,1.2881,1.2881,1.2881,1.2881,1.2881,1.2881,1.3017,1.3372,1.32,1.3017,1.3372,1.3152,1.2881,1.2881,1.2881,1.2881,1.2881,1.2881,1.2881,1.2881,1.2881,1.2978,1.3252,1.3047,1.288,1.2871,1.2662,1.2403,1.2157,1.1724,1.1466,1.1466,1.0813,1.0625,1.103,1.0307,1.0306,1.1246,1.0886,1.0326,0.9526,0.982,0.996,0.996,0.996,0.996,-0.4688,0.0,0.0,0.0,0.0,-0.1501,-0.0805,-0.1405,-0.203,-0.178,-0.2419,-0.2955,-0.274,-0.2503,-0.2259,-0.2026,-0.211,-0.2244,-0.2367,-0.2427,-0.2168,-0.1342,-0.1158,-0.0807,-0.0074,0.0,0.0,0.0,0.0,0.0,0.0,0.009,0.0353,0.0856,0.1416,0.2028,0.2679,0.297,0.3229,0.3528,0.3858,0.428,0.4826,0.4826,0.5017,0.5309,0.5309,0.5369,0.5451,0.5738,0.6176,0.6697,0.7501,0.8294,0.9056,0.9703,1.0371,1.0928,1.1074,1.1416,1.1836,1.2083,1.2334,1.25,1.2793,1.2881,1.2881,1.2881,1.2881,1.2881,1.2881,1.2881,1.3017,1.342,1.319,1.3017,1.342,1.32,1.2881,1.2881,1.2881,1.2881,1.2881,1.2881,1.2881,1.2881,1.2881,1.3037,1.3457,1.3145,1.3037,1.3467,1.3135,1.2881,1.2881,1.2575,1.2382,1.2382,1.1893,1.1773,1.2212,1.1462,1.1471,1.2397,1.2043,1.1517,1.0791,1.0699,1.0676,1.0676,1.0275,1.0067,0.0,0.0,0.0,0.0,0.0,0.0,0.1262,0.0,-0.2143,-0.1394,-0.2093,-0.2816,-0.2729,-0.2442,-0.2166,-0.204,-0.2117,-0.2214,-0.2224,-0.2091,-0.179,-0.1166,-0.0857,-0.0529,-0.0046,0.0,0.0,0.0,0.0,0.0,0.0,0.0268,0.0839,0.1772,0.225,0.2551,0.2706,0.2712,0.3138,0.4026,0.4026,0.4479,0.5309,0.5309,0.5309,0.5309,0.5322,0.5458,0.5779,0.6075,0.669,0.7494,0.8367,0.9039,0.9612,1.0548,1.0918,1.0996,1.1469,1.1875,1.22,1.22,1.2539,1.2881,1.2881,1.2881,1.2881,1.2881,1.2881,1.2881,1.2881,1.2881,1.2929,1.2929,1.2929,1.2929,1.2978,1.2978,1.2929,1.2929,1.2881,1.2881,1.2881,1.2881,1.2929,1.2929,1.2929,1.3077,1.3498,1.3184,1.3086,1.3508,1.3175,1.2929,1.2929,1.3302,1.3496,1.3506,1.3243,1.3258,1.3618,1.3003,1.2764,1.3061,1.307,1.307,1.307,1.2266,1.1834,1.1826,1.0676,1.0026,-0.4112,0.0,0.0,0.0,0.0,0.0,0.0549,0.073,0.0276,-0.1978,-0.184,-0.1718,-0.3025,-0.2773,-0.2421,-0.2624,-0.2399,-0.2284,-0.253,-0.2251,-0.1825,-0.1317,-0.0924,-0.0525,-0.0045,0.0,0.0,0.0,0.0,0.0,0.0,0.0492,0.1028,0.1647,0.205,0.2514,0.2982,0.3071,0.3588,0.4441,0.4441,0.473,0.5309,0.5309,0.5309,0.5322,0.5504,0.5992,0.6663,0.6759,0.7019,0.7532,0.8796,0.9359,0.9612,1.0548,1.1113,1.1489,1.1895,1.2334,1.2705,1.2705,1.2783,1.2881,1.2881,1.2881,1.2881,1.2881,1.2881,1.2881,1.2881,1.2881,1.3113,1.3978,1.3873,1.3779,1.4641,1.4514,1.3931,1.3065,1.2881,1.2881,1.2881,1.2881,1.3065,1.3505,1.3552,1.3851,1.4693,1.4445,1.4385,1.4752,1.4434,1.4025,1.36,1.3666,1.3638,1.3537,1.3407,1.3685,1.4467,1.3741,1.3758,1.4737,1.4154,1.4145,1.4746,1.3364,1.2696,1.2634,1.1744,1.1039,0.0,0.0,0.0,0.0,0.0,0.0,0.2091,0.1679,0.0915,-0.0354,0.0377,0.0656,-0.1191,-0.0941,-0.0641,-0.1219,-0.1364,-0.1682,-0.2516,-0.204,-0.1559,-0.1317,-0.0782,-0.0304,-0.0023,0.0,0.0,0.0,0.0,0.0112,0.0359,0.0715,0.1157,0.175,0.205,0.242,0.2845,0.2983,0.349,0.4344,0.4344,0.4698,0.5309,0.5309,0.5309,0.5329,0.5811,0.6389,0.7049,0.7589,0.8015,0.8362,0.9182,0.9738,1.0183,1.0932,1.1455,1.1904,1.2344,1.2666,1.2881,1.2881,1.2881,1.2881,1.2881,1.2881,1.2881,1.2881,1.2881,1.2968,1.319,1.3286,1.3515,1.4468,1.4422,1.4376,1.505,1.4971,1.4479,1.38,1.3658,1.3658,1.3658,1.3658,1.3789,1.4097,1.419,1.4457,1.5215,1.4954,1.4842,1.5274,1.5121,1.4907,1.454,1.4677,1.4853,1.4976,1.4894,1.5216,1.5943,1.5236,1.5137,1.5864,1.5099,1.4932,1.541,1.4145,1.3288,1.2846,1.2448,1.2038,0.0,0.0,0.0,0.0,0.2662,0.0,0.4372,0.254,0.0992,0.2241,0.3254,0.336,0.163,0.1908,0.206,0.1051,0.025,-0.073,-0.2196,-0.1651,-0.1137,-0.1234,-0.0501,0.0,0.0,0.0,0.0022,0.0045,0.009,0.0359,0.0914,0.0936,0.1267,0.1956,0.2133,0.2336,0.2605,0.2737,0.3249,0.4156,0.4091,0.4511,0.5309,0.534,0.5392,0.5465,0.6286,0.685,0.73,0.8554,0.923,0.9518,0.9558,1.0127,1.0967,1.1439,1.1846,1.2248,1.2725,1.2881,1.2881,1.2881,1.2881,1.2881,1.2881,1.2881,1.2881,1.2881,1.2978,1.3104,1.3637,1.3862,1.405,1.4652,1.4789,1.4835,1.4892,1.4892,1.4892,1.4892,1.4789,1.4698,1.4698,1.4698,1.4698,1.4789,1.4789,1.4947,1.5375,1.5106,1.5051,1.5387,1.5538,1.5609,1.5618,1.5988,1.6435,1.6987,1.6905,1.7064,1.7556,1.6978,1.6595,1.6595,1.5979,1.5633,1.5633,1.4737,1.3753,1.2655,1.2998,1.2973,0.0,0.0,0.0,0.0,0.3949,0.0,0.2661,0.342,0.4024,0.23,0.2955,0.3451,0.2224,0.2528,0.2486,0.1057,0.0456,-0.0265,-0.1519,-0.1456,-0.1139,-0.0844,-0.032,0.0,0.0,0.0,0.009,0.0312,0.058,0.0871,0.1208,0.123,0.1418,0.1825,0.2169,0.2668,0.3289,0.333,0.392,0.5055,0.4666,0.4762,0.5309,0.5641,0.5961,0.6326,0.7046,0.7864,0.8645,0.9199,0.9446,0.9558,0.9961,1.0457,1.0967,1.1439,1.1846,1.2248,1.2725,1.2881,1.2881,1.2881,1.2881,1.2881,1.2881,1.2881,1.2881,1.2881,1.3238,1.3637,1.3768,1.4143,1.4698,1.5276,1.541,1.5555,1.6051,1.6151,1.6151,1.6151,1.5377,1.4698,1.4698,1.4698,1.488,1.5365,1.541,1.5635,1.6198,1.6212,1.62,1.6254,1.6311,1.6292,1.6244,1.6327,1.6543,1.6965,1.6969,1.7129,1.7556,1.7468,1.7413,1.7413,1.7246,1.7191,1.7191,1.5843,1.443,1.3001,1.3646,1.3593,0.0,0.0,0.0,0.3857,0.4781,0.0,0.0,0.4991,0.5668,0.4149,0.4575,0.5027,0.4446,0.459,0.4431,0.3316,0.2358,0.1529,0.0927,-0.0283,-0.1067,-0.101,-0.0397,0.0,0.0,0.0,0.0179,0.0625,0.0892,0.1116,0.1252,0.1274,0.1452,0.1781,0.2343,0.2838,0.3208,0.3556,0.4155,0.4953,0.4909,0.5131,0.5609,0.6006,0.6308,0.6562,0.7552,0.8273,0.8748,0.9581,0.9883,0.9922,1.0196,1.0674,1.126,1.1518,1.1982,1.2588,1.2803,1.2881,1.2881,1.2881,1.3104,1.3286,1.2968,1.2881,1.2968,1.3238,1.3552,1.3956,1.4538,1.4915,1.5276,1.5908,1.6051,1.6151,1.6423,1.6522,1.6609,1.6886,1.6479,1.6061,1.6061,1.6061,1.6236,1.6822,1.6916,1.702,1.7305,1.7363,1.7363,1.7363,1.7363,1.7439,1.7676,1.7468,1.763,1.8378,1.816,1.8191,1.8691,1.8328,1.7961,1.7633,1.7578,1.7578,1.7578,1.6565,1.5711,1.4935,1.4749,1.4467,0.0,0.3067,0.4055,0.4471,0.5266,0.588,0.0,0.0,0.0,0.6009,0.6272,0.6552,0.6458,0.6453,0.6224,0.5526,0.4267,0.3386,0.3417,0.1504,-0.0111,-0.0657,-0.0058,0.0313,0.0159,0.0043,0.0208,0.0686,0.1012,0.123,0.1319,0.1363,0.1519,0.1781,0.2545,0.2955,0.3018,0.3781,0.4364,0.473,0.5156,0.5526,0.5913,0.6397,0.6715,0.6915,0.8051,0.8597,0.8836,0.9877,1.0283,1.0283,1.0283,1.0842,1.1606,1.1606,1.2165,1.2881,1.2881,1.2968,1.3065,1.3065,1.342,1.3732,1.3382,1.3152,1.32,1.3779,1.405,1.4365,1.5353,1.5676,1.5908,1.638,1.6522,1.6522,1.6522,1.6522,1.666,1.7124,1.73,1.7413,1.7526,1.7539,1.7689,1.8141,1.8204,1.8204,1.8204,1.8204,1.8204,1.8204,1.8204,1.843,1.8933,1.8618,1.8781,1.9748,1.9409,1.9359,1.9786,1.9202,1.8608,1.8058,1.8004,1.7958,1.7878,1.7322,1.6915,1.6643,1.5698,1.5236,0.3427,0.424,0.4972,0.3973,0.5264,0.6357,0.4838,0.0,0.6549,0.6011,0.0,0.646,0.6271,0.0,0.0,0.5194,0.4518,0.4116,0.4171,0.3898,0.3118,0.1542,0.1615,0.1458,0.0697,0.0239,0.003,0.0101,0.0779,0.1361,0.1714,0.1736,0.1759,0.1803,0.2632,0.319,0.3419,0.4284,0.4896,0.5214,0.5641,0.5851,0.5913,0.67,0.7445,0.8205,0.8717,0.9362,1.0108,1.0244,1.0283,1.0283,1.0283,1.0842,1.1606,1.1606,1.2165,1.2881,1.2881,1.3238,1.3684,1.3684,1.3721,1.3909,1.4329,1.4107,1.3815,1.4422,1.496,1.5443,1.5543,1.6008,1.6423,1.6466,1.6522,1.6522,1.6522,1.6522,1.6534,1.6609,1.7024,1.7539,1.8028,1.8116,1.8129,1.8191,1.8204,1.8204,1.8204,1.8204,1.8204,1.8204,1.8204,1.843,1.8933,1.892,1.9183,1.9761,1.9748,1.9748,1.9798,1.9695,1.9643,1.9527,1.9527,1.9304,1.8846,1.8301,1.7435,1.6266,1.5997,1.5681,0.2972,0.319,0.376,0.3902,0.4533,0.5289,0.6038,0.6533,0.6781,0.6621,0.0,0.0,0.0,0.0,0.0,0.0,0.5313,0.5007,0.5294,0.4647,0.3736,0.2702,0.2068,0.1329,0.0382,0.0925,0.1744,0.2704,0.2484,0.2419,0.2655,0.2124,0.1913,0.2136,0.2919,0.3481,0.3799,0.4872,0.5512,0.5641,0.6305,0.6601,0.6601,0.7196,0.7802,0.8422,0.8829,0.9346,0.9922,1.0176,1.0283,1.0303,1.0547,1.1025,1.1636,1.1846,1.2344,1.2978,1.3286,1.36,1.3909,1.4641,1.4595,1.4422,1.505,1.4778,1.4468,1.505,1.541,1.5676,1.6051,1.6293,1.6522,1.6522,1.6522,1.6522,1.6522,1.6785,1.7112,1.7438,1.7953,1.8505,1.9045,1.8882,1.8681,1.8681,1.8945,1.9133,1.9133,1.9133,1.9133,1.9133,1.8857,1.8894,1.9434,1.9196,1.9246,1.9773,1.9798,1.9798,1.9798,1.9798,1.9798,1.9798,1.951,1.9383,1.9484,1.8282,1.7597,1.735,1.6291,1.566,0.1791,0.1882,0.2436,0.275,0.3722,0.4894,0.6087,0.6793,0.7225,0.7221,0.7254,0.0,0.0,0.0,0.7309,0.6711,0.0,0.5914,0.6157,0.5158,0.4158,0.3466,0.2331,0.15,0.1237,0.1842,0.2923,0.4547,0.3681,0.3117,0.3208,0.2445,0.2187,0.2553,0.3175,0.3666,0.3992,0.526,0.5837,0.5778,0.6678,0.7109,0.7118,0.75,0.8027,0.8564,0.8877,0.9307,0.9834,1.0156,1.0283,1.0371,1.1074,1.1449,1.1655,1.2061,1.2594,1.319,1.3637,1.4003,1.4457,1.5499,1.5466,1.505,1.5676,1.5421,1.505,1.5688,1.5864,1.5964,1.638,1.6522,1.6522,1.6522,1.6522,1.6522,1.6522,1.6974,1.7501,1.7903,1.843,1.8882,1.9095,1.9196,1.9246,1.9246,1.956,1.9798,1.9798,1.9798,1.9798,1.9798,1.9459,1.9397,1.9773,1.9459,1.9334,1.9572,1.9723,1.981,1.9863,2.0014,2.0064,2.0064,1.9677,1.9508,1.9542,1.8364,1.7913,1.8129,1.656,1.5864,-0.0088,0.0816,0.1587,-0.0184,0.3016,0.6004,0.3679,0.5687,0.7947,0.7562,0.7636,0.7722,0.7517,0.7651,0.0,0.0,0.0,0.0,0.0,0.5845,0.5057,0.3991,0.2697,0.2511,0.4103,0.2949,0.2716,0.4204,0.3502,0.3,0.3014,0.2735,0.2695,0.2978,0.3309,0.3666,0.3992,0.526,0.5725,0.5432,0.655,0.7109,0.7118,0.75,0.8153,0.8984,0.9004,0.9482,1.0264,1.0273,1.0283,1.044,1.1902,1.2095,1.1655,1.2061,1.2856,1.3768,1.3779,1.4538,1.5632,1.6281,1.6051,1.5676,1.6281,1.6051,1.5688,1.6281,1.6466,1.6479,1.6466,1.6522,1.6522,1.6522,1.6522,1.6522,1.6522,1.6974,1.7388,1.74,1.7852,1.8066,1.7551,1.8744,1.9773,1.9773,1.9798,1.9798,1.9798,1.9798,1.9798,1.9798,1.9786,1.9786,1.9798,1.9786,1.9572,1.9083,1.9529,1.9872,1.9985,2.0514,2.079,2.079,2.0763,2.0127,1.8934,1.8892,1.8577,1.8094,1.6993,1.6466,-0.1696,-0.1829,-0.1603,-0.1388,0.0738,0.2937,0.3468,0.5325,0.6842,0.6625,0.6657,0.6804,0.7009,0.7485,0.0,0.0,0.0,0.0,0.0,0.6631,0.5665,0.4681,0.3727,0.3048,0.2769,0.2749,0.3186,0.4227,0.4272,0.4171,0.4012,0.3356,0.3101,0.333,0.3272,0.3779,0.4913,0.567,0.6191,0.6533,0.7191,0.7652,0.794,0.7792,0.8318,0.9369,0.9121,0.9492,1.0283,1.0283,1.0724,1.1435,1.2204,1.2808,1.3314,1.3699,1.3829,1.3909,1.4721,1.5499,1.6238,1.6423,1.638,1.6238,1.6423,1.638,1.6238,1.6423,1.6522,1.6522,1.6522,1.6522,1.6522,1.6522,1.6522,1.6622,1.7011,1.7526,1.8028,1.8405,1.8894,1.9208,1.902,1.9434,1.956,1.8857,1.9346,1.9798,1.9798,1.9798,1.9798,1.9798,1.9798,2.0003,2.0396,2.0475,2.0361,2.0221,1.9931,1.9819,1.9859,2.0038,2.0127,2.0127,1.9759,1.9697,2.0104,1.8919,1.8681,1.9251,1.8098,1.7544,-0.3121,-0.315,-0.2824,-0.2524,-0.0303,0.1917,0.2256,0.3829,0.5298,0.5563,0.568,0.5888,0.6392,0.7127,0.0,0.0,0.0,0.0,0.0,0.7172,0.6153,0.51,0.4255,0.3428,0.2554,0.3049,0.3694,0.4394,0.4833,0.4972,0.4726,0.3925,0.3497,0.351,0.3458,0.4068,0.5381,0.5961,0.6479,0.6967,0.7463,0.7841,0.8145,0.8018,0.8486,0.9369,0.9277,0.9629,1.0322,1.0467,1.0976,1.1691,1.2677,1.3379,1.3833,1.4463,1.4606,1.4595,1.5588,1.6194,1.6522,1.6522,1.6522,1.6522,1.6522,1.6522,1.6522,1.6522,1.6522,1.6522,1.6522,1.6522,1.6522,1.6522,1.6522,1.6622,1.6999,1.7677,1.8304,1.8668,1.9158,1.9459,1.9271,1.9233,1.9133,1.8819,1.9359,1.9798,1.9798,1.9798,1.9901,2.0156,1.9952,2.0055,2.0746,2.1014,2.1035,2.0854,2.0385,2.026,2.051,2.05,2.0472,2.0472,2.0481,2.052,2.0548,1.9862,1.9782,2.028,1.9472,1.9119]}]]